Time,TemperatureF,DewpointF,PressureIn,WindDirection,WindDirectionDegrees,WindSpeedMPH,WindSpeedGustMPH,Humidity,HourlyPrecipIn,Conditions,Clouds,dailyrainin,SoftwareType,DateUTC
2013-03-02 00:00:00,57.9,30.2,29.66,ESE,113,0.0,6.2,35,0.00,,,0.00,WUHU216HW,2013-03-02 05:00:00,
2013-03-02 00:01:00,57.9,30.2,29.65,ESE,113,0.0,6.2,35,0.00,,,0.00,WUHU216HW,2013-03-02 05:01:00,
2013-03-02 00:02:00,57.7,30.0,29.65,SW,225,0.0,6.2,35,0.00,,,0.00,WUHU216HW,2013-03-02 05:02:00,
2013-03-02 00:04:00,57.3,30.4,29.66,SW,225,0.0,6.2,36,0.00,,,0.00,WUHU216HW,2013-03-02 05:04:00,
2013-03-02 00:05:00,57.3,30.4,29.66,SW,225,0.0,0.0,36,0.00,,,0.00,WUHU216HW,2013-03-02 05:05:00,
2013-03-02 00:06:00,57.0,30.8,29.66,West,270,0.0,0.0,37,0.00,,,0.00,WUHU216HW,2013-03-02 05:06:00,
2013-03-02 00:08:00,56.8,30.6,29.66,NW,315,0.0,0.0,37,0.00,,,0.00,WUHU216HW,2013-03-02 05:08:00,
2013-03-02 00:09:00,56.8,30.6,29.66,NW,315,0.0,0.0,37,0.00,,,0.00,WUHU216HW,2013-03-02 05:09:00,
2013-03-02 00:10:00,56.8,30.6,29.66,NW,315,0.0,0.0,37,0.00,,,0.00,WUHU216HW,2013-03-02 05:10:00,
2013-03-02 00:11:00,56.8,30.6,29.66,WNW,293,0.0,0.0,39,0.00,,,0.00,WUHU216HW,2013-03-02 05:11:00,
2013-03-02 00:12:00,56.8,30.6,29.66,WNW,293,0.0,0.0,39,0.00,,,0.00,WUHU216HW,2013-03-02 05:12:00,
2013-03-02 00:13:00,57.2,31.6,29.66,South,180,0.0,0.0,38,0.00,,,0.00,WUHU216HW,2013-03-02 05:13:00,
2013-03-02 00:14:00,38.3,28.2,29.61,West,270,0.0,0.0,67,0.00,,,0.00,WUHU216HW,2013-03-02 05:14:00,
2013-03-02 00:15:00,57.2,31.6,29.66,WSW,248,0.0,0.0,37,0.00,,,0.00,WUHU216HW,2013-03-02 05:15:00,
2013-03-02 00:16:00,57.2,31.6,29.66,WSW,248,0.0,0.0,37,0.00,,,0.00,WUHU216HW,2013-03-02 05:16:00,
2013-03-02 00:17:00,56.8,30.6,29.66,West,270,0.0,0.0,37,0.00,,,0.00,WUHU216HW,2013-03-02 05:17:00,
2013-03-02 00:18:00,56.8,30.6,29.66,West,270,0.0,0.0,37,0.00,,,0.00,WUHU216HW,2013-03-02 05:18:00,
2013-03-02 00:19:00,38.1,28.0,29.61,West,270,0.0,0.0,67,0.00,,,0.00,WUHU216HW,2013-03-02 05:19:00,
2013-03-02 00:20:00,56.4,29.6,29.66,NW,315,3.3,3.3,36,0.00,,,0.00,WUHU216HW,2013-03-02 05:20:00,
2013-03-02 00:21:00,56.4,29.6,29.66,WNW,293,0.0,3.3,38,0.00,,,0.00,WUHU216HW,2013-03-02 05:21:00,
2013-03-02 00:22:00,56.4,29.6,29.66,WNW,293,0.0,3.3,38,0.00,,,0.00,WUHU216HW,2013-03-02 05:22:00,
2013-03-02 00:23:00,56.4,29.6,29.66,WNW,293,0.0,3.3,38,0.00,,,0.00,WUHU216HW,2013-03-02 05:23:00,
2013-03-02 00:24:00,56.8,29.9,29.66,West,270,1.5,5.1,36,0.00,,,0.00,WUHU216HW,2013-03-02 05:24:00,
2013-03-02 00:25:00,37.9,27.9,29.61,West,270,0.0,0.0,68,0.00,,,0.00,WUHU216HW,2013-03-02 05:25:00,
2013-03-02 00:26:00,56.8,29.9,29.66,WNW,293,0.0,5.1,38,0.00,,,0.00,WUHU216HW,2013-03-02 05:26:00,
2013-03-02 00:27:00,56.8,29.9,29.66,WNW,293,0.0,5.1,38,0.00,,,0.00,WUHU216HW,2013-03-02 05:27:00,
2013-03-02 00:28:00,57.2,31.6,29.66,West,270,0.0,5.1,38,0.00,,,0.00,WUHU216HW,2013-03-02 05:28:00,
2013-03-02 00:29:00,57.2,31.6,29.66,West,270,0.0,5.1,38,0.00,,,0.00,WUHU216HW,2013-03-02 05:29:00,
2013-03-02 00:31:00,37.7,27.7,29.61,West,270,0.0,0.0,68,0.00,,,0.00,WUHU216HW,2013-03-02 05:31:00,
2013-03-02 00:32:00,57.5,32.7,29.66,WSW,248,0.0,5.1,37,0.00,,,0.00,WUHU216HW,2013-03-02 05:32:00,
2013-03-02 00:33:00,57.5,32.7,29.66,WSW,248,0.0,5.1,37,0.00,,,0.00,WUHU216HW,2013-03-02 05:33:00,
2013-03-02 00:34:00,57.5,32.7,29.66,WSW,248,0.0,1.5,37,0.00,,,0.00,WUHU216HW,2013-03-02 05:34:00,
2013-03-02 00:35:00,57.7,30.7,29.66,West,270,2.9,2.9,36,0.00,,,0.00,WUHU216HW,2013-03-02 05:35:00,
2013-03-02 00:36:00,37.5,27.9,29.61,West,270,0.0,0.0,68,0.00,,,0.00,WUHU216HW,2013-03-02 05:36:00,
2013-03-02 00:37:00,57.5,31.3,29.66,WSW,248,0.0,2.9,37,0.00,,,0.00,WUHU216HW,2013-03-02 05:37:00,
2013-03-02 00:38:00,57.5,31.3,29.66,WSW,248,0.0,2.9,37,0.00,,,0.00,WUHU216HW,2013-03-02 05:38:00,
2013-03-02 00:39:00,57.3,31.1,29.66,West,270,0.0,2.9,37,0.00,,,0.00,WUHU216HW,2013-03-02 05:39:00,
2013-03-02 00:40:00,57.3,31.1,29.66,West,270,0.0,2.9,37,0.00,,,0.00,WUHU216HW,2013-03-02 05:40:00,
2013-03-02 00:41:00,37.2,27.6,29.61,West,270,0.0,0.0,69,0.00,,,0.00,WUHU216HW,2013-03-02 05:41:00,
2013-03-02 00:42:00,57.3,31.1,29.66,West,270,0.0,2.9,37,0.00,,,0.00,WUHU216HW,2013-03-02 05:42:00,
2013-03-02 00:43:00,57.0,30.8,29.67,SSW,203,0.0,2.9,37,0.00,,,0.00,WUHU216HW,2013-03-02 05:43:00,
2013-03-02 00:44:00,57.0,30.8,29.67,SSW,203,0.0,2.9,37,0.00,,,0.00,WUHU216HW,2013-03-02 05:44:00,
2013-03-02 00:45:00,57.0,30.8,29.66,SSW,203,0.0,2.9,37,0.00,,,0.00,WUHU216HW,2013-03-02 05:45:00,
2013-03-02 00:46:00,56.8,30.6,29.66,ENE,68,0.0,2.9,37,0.00,,,0.00,WUHU216HW,2013-03-02 05:46:00,
2013-03-02 00:47:00,37.0,27.4,29.61,West,270,0.0,0.0,69,0.00,,,0.00,WUHU216HW,2013-03-02 05:47:00,
2013-03-02 00:48:00,56.4,30.3,29.67,ENE,68,0.0,0.0,37,0.00,,,0.00,WUHU216HW,2013-03-02 05:48:00,
2013-03-02 00:49:00,56.4,30.3,29.67,ENE,68,0.0,0.0,37,0.00,,,0.00,WUHU216HW,2013-03-02 05:49:00,
2013-03-02 00:50:00,56.3,30.1,29.67,West,270,0.0,0.0,37,0.00,,,0.00,WUHU216HW,2013-03-02 05:50:00,
2013-03-02 00:51:00,56.3,30.1,29.67,West,270,0.0,0.0,37,0.00,,,0.00,WUHU216HW,2013-03-02 05:51:00,
2013-03-02 00:52:00,36.8,28.0,29.61,West,270,0.0,0.0,70,0.00,,,0.00,WUHU216HW,2013-03-02 05:52:00,
2013-03-02 00:53:00,55.9,29.1,29.67,WNW,293,4.4,4.4,36,0.00,,,0.00,WUHU216HW,2013-03-02 05:53:00,
2013-03-02 00:54:00,55.9,29.1,29.67,WNW,293,4.2,4.4,36,0.00,,,0.00,WUHU216HW,2013-03-02 05:54:00,
2013-03-02 00:55:00,55.9,29.1,29.67,WNW,293,4.2,4.4,36,0.00,,,0.00,WUHU216HW,2013-03-02 05:55:00,
2013-03-02 00:56:00,56.1,29.3,29.67,WNW,293,3.1,4.4,36,0.00,,,0.00,WUHU216HW,2013-03-02 05:56:00,
2013-03-02 00:57:00,36.6,27.8,29.61,West,270,0.0,0.0,70,0.00,,,0.00,WUHU216HW,2013-03-02 05:57:00,
2013-03-02 00:58:00,56.1,29.3,29.67,West,270,0.0,4.4,36,0.00,,,0.00,WUHU216HW,2013-03-02 05:58:00,
2013-03-02 00:59:00,56.1,29.3,29.67,West,270,0.0,4.4,36,0.00,,,0.00,WUHU216HW,2013-03-02 05:59:00,
2013-03-02 01:00:00,56.1,29.3,29.67,West,270,0.0,4.4,36,0.00,,,0.00,WUHU216HW,2013-03-02 06:00:00,
2013-03-02 01:01:00,56.1,29.3,29.67,West,270,0.0,4.4,36,0.00,,,0.00,WUHU216HW,2013-03-02 06:01:00,
2013-03-02 01:02:00,36.5,27.6,29.61,West,270,0.0,0.0,70,0.00,,,0.00,WUHU216HW,2013-03-02 06:02:00,
2013-03-02 01:03:00,56.1,29.3,29.67,WNW,293,3.3,4.4,38,0.00,,,0.00,WUHU216HW,2013-03-02 06:03:00,
2013-03-02 01:04:00,56.1,29.3,29.67,WNW,293,3.3,4.2,38,0.00,,,0.00,WUHU216HW,2013-03-02 06:04:00,
2013-03-02 01:05:00,56.1,29.3,29.67,West,270,3.1,4.2,36,0.00,,,0.00,WUHU216HW,2013-03-02 06:05:00,
2013-03-02 01:06:00,56.1,29.3,29.67,West,270,3.1,3.3,36,0.00,,,0.00,WUHU216HW,2013-03-02 06:06:00,
2013-03-02 01:07:00,36.3,27.8,29.61,West,270,0.0,0.0,71,0.00,,,0.00,WUHU216HW,2013-03-02 06:07:00,
2013-03-02 01:08:00,55.7,28.9,29.68,WNW,293,0.0,3.3,36,0.00,,,0.00,WUHU216HW,2013-03-02 06:08:00,
2013-03-02 01:09:00,55.5,30.2,29.68,SSE,158,0.8,3.3,38,0.00,,,0.00,WUHU216HW,2013-03-02 06:09:00,
2013-03-02 01:10:00,55.5,30.2,29.68,SSE,158,0.8,3.3,38,0.00,,,0.00,WUHU216HW,2013-03-02 06:10:00,
2013-03-02 01:11:00,55.2,29.1,29.68,NW,315,0.0,3.3,37,0.00,,,0.00,WUHU216HW,2013-03-02 06:11:00,
2013-03-02 01:12:00,36.1,27.6,29.62,West,270,0.0,0.0,71,0.00,,,0.00,WUHU216HW,2013-03-02 06:12:00,
2013-03-02 01:13:00,55.0,29.0,29.68,SW,225,7.1,7.1,37,0.00,,,0.00,WUHU216HW,2013-03-02 06:13:00,
2013-03-02 01:14:00,55.0,29.0,29.68,West,270,1.7,7.1,37,0.00,,,0.00,WUHU216HW,2013-03-02 06:14:00,
2013-03-02 01:15:00,55.0,29.0,29.68,West,270,1.7,7.1,37,0.00,,,0.00,WUHU216HW,2013-03-02 06:15:00,
2013-03-02 01:16:00,55.0,29.0,29.68,West,270,0.0,7.1,37,0.00,,,0.00,WUHU216HW,2013-03-02 06:16:00,
2013-03-02 01:17:00,35.9,27.4,29.62,West,270,0.0,0.0,71,0.00,,,0.00,WUHU216HW,2013-03-02 06:17:00,
2013-03-02 01:18:00,54.6,28.0,29.68,West,270,0.0,7.1,36,0.00,,,0.00,WUHU216HW,2013-03-02 06:18:00,
2013-03-02 01:19:00,54.6,28.0,29.68,West,270,0.0,7.1,36,0.00,,,0.00,WUHU216HW,2013-03-02 06:19:00,
2013-03-02 01:20:00,54.6,28.0,29.68,West,270,1.5,7.1,36,0.00,,,0.00,WUHU216HW,2013-03-02 06:20:00,
2013-03-02 01:21:00,54.6,28.0,29.68,West,270,1.5,7.1,36,0.00,,,0.00,WUHU216HW,2013-03-02 06:21:00,
2013-03-02 01:22:00,54.5,28.5,29.69,NNE,23,0.0,7.1,37,0.00,,,0.00,WUHU216HW,2013-03-02 06:22:00,
2013-03-02 01:23:00,35.7,27.6,29.62,West,270,0.0,0.0,72,0.00,,,0.00,WUHU216HW,2013-03-02 06:23:00,
2013-03-02 01:24:00,54.5,28.5,29.69,NNE,23,0.0,1.7,37,0.00,,,0.00,WUHU216HW,2013-03-02 06:24:00,
2013-03-02 01:25:00,54.5,28.5,29.69,NW,315,3.1,3.1,37,0.00,,,0.00,WUHU216HW,2013-03-02 06:25:00,
2013-03-02 01:26:00,54.5,28.5,29.69,NW,315,3.1,3.1,37,0.00,,,0.00,WUHU216HW,2013-03-02 06:26:00,
2013-03-02 01:27:00,54.5,28.5,29.69,WNW,293,0.0,3.1,37,0.00,,,0.00,WUHU216HW,2013-03-02 06:27:00,
2013-03-02 01:28:00,35.6,27.4,29.62,West,270,0.0,0.0,72,0.00,,,0.00,WUHU216HW,2013-03-02 06:28:00,
2013-03-02 01:29:00,54.5,28.5,29.69,WNW,293,0.0,3.1,37,0.00,,,0.00,WUHU216HW,2013-03-02 06:29:00,
2013-03-02 01:30:00,54.5,28.5,29.69,WNW,293,0.0,3.1,37,0.00,,,0.00,WUHU216HW,2013-03-02 06:30:00,
2013-03-02 01:31:00,54.5,28.5,29.69,ESE,113,0.0,3.1,37,0.00,,,0.00,WUHU216HW,2013-03-02 06:31:00,
2013-03-02 01:32:00,54.5,28.5,29.69,ESE,113,0.0,3.1,37,0.00,,,0.00,WUHU216HW,2013-03-02 06:32:00,
2013-03-02 01:33:00,35.2,27.3,29.63,West,270,0.0,0.0,73,0.00,,,0.00,WUHU216HW,2013-03-02 06:33:00,
2013-03-02 01:34:00,54.5,28.5,29.69,SE,135,0.0,3.1,37,0.00,,,0.00,WUHU216HW,2013-03-02 06:34:00,
2013-03-02 01:35:00,54.5,28.5,29.69,SE,135,0.0,3.1,37,0.00,,,0.00,WUHU216HW,2013-03-02 06:35:00,
2013-03-02 01:36:00,54.5,28.5,29.69,NNW,338,0.0,3.1,36,0.00,,,0.00,WUHU216HW,2013-03-02 06:36:00,
2013-03-02 01:37:00,54.5,28.5,29.69,NNW,338,0.0,0.0,36,0.00,,,0.00,WUHU216HW,2013-03-02 06:37:00,
2013-03-02 01:38:00,35.0,27.2,29.62,West,270,0.0,0.0,73,0.00,,,0.00,WUHU216HW,2013-03-02 06:38:00,
2013-03-02 01:39:00,54.1,26.8,29.69,West,270,0.0,0.0,35,0.00,,,0.00,WUHU216HW,2013-03-02 06:39:00,
2013-03-02 01:40:00,53.9,26.7,29.69,WNW,293,0.0,0.0,35,0.00,,,0.00,WUHU216HW,2013-03-02 06:40:00,
2013-03-02 01:41:00,53.9,26.7,29.69,WNW,293,0.0,0.0,35,0.00,,,0.00,WUHU216HW,2013-03-02 06:41:00,
2013-03-02 01:42:00,53.7,27.9,29.69,SSE,158,0.0,0.0,37,0.00,,,0.00,WUHU216HW,2013-03-02 06:42:00,
2013-03-02 01:43:00,34.8,27.0,29.62,West,270,0.0,0.0,73,0.00,,,0.00,WUHU216HW,2013-03-02 06:43:00,
2013-03-02 01:44:00,53.4,26.9,29.69,West,270,1.3,1.3,36,0.00,,,0.00,WUHU216HW,2013-03-02 06:44:00,
2013-03-02 01:45:00,53.4,26.9,29.69,West,270,1.3,1.3,36,0.00,,,0.00,WUHU216HW,2013-03-02 06:45:00,
2013-03-02 01:46:00,53.2,26.7,29.69,WSW,248,0.0,1.3,36,0.00,,,0.00,WUHU216HW,2013-03-02 06:46:00,
2013-03-02 01:47:00,53.2,26.7,29.69,WSW,248,0.0,1.3,36,0.00,,,0.00,WUHU216HW,2013-03-02 06:47:00,
2013-03-02 01:48:00,34.8,27.0,29.62,West,270,0.0,0.0,74,0.00,,,0.00,WUHU216HW,2013-03-02 06:48:00,
2013-03-02 01:49:00,53.2,26.7,29.69,West,270,0.0,1.3,36,0.00,,,0.00,WUHU216HW,2013-03-02 06:49:00,
2013-03-02 01:50:00,53.2,26.7,29.69,West,270,0.0,1.3,36,0.00,,,0.00,WUHU216HW,2013-03-02 06:50:00,
2013-03-02 01:51:00,53.0,27.3,29.69,WNW,293,0.0,1.3,37,0.00,,,0.00,WUHU216HW,2013-03-02 06:51:00,
2013-03-02 01:52:00,53.0,27.3,29.69,WNW,293,0.0,1.3,37,0.00,,,0.00,WUHU216HW,2013-03-02 06:52:00,
2013-03-02 01:53:00,34.7,27.1,29.62,West,270,0.0,0.0,74,0.00,,,0.00,WUHU216HW,2013-03-02 06:53:00,
2013-03-02 01:54:00,52.8,27.1,29.69,West,270,0.0,1.3,37,0.00,,,0.00,WUHU216HW,2013-03-02 06:54:00,
2013-03-02 01:55:00,52.8,27.1,29.69,West,270,0.0,1.3,37,0.00,,,0.00,WUHU216HW,2013-03-02 06:55:00,
2013-03-02 01:56:00,52.8,27.1,29.69,West,270,0.0,0.0,37,0.00,,,0.00,WUHU216HW,2013-03-02 06:56:00,
2013-03-02 01:57:00,52.7,26.2,29.70,West,270,4.2,4.2,36,0.00,,,0.00,WUHU216HW,2013-03-02 06:57:00,
2013-03-02 01:58:00,52.7,26.2,29.70,West,270,4.2,4.2,36,0.00,,,0.00,WUHU216HW,2013-03-02 06:58:00,
2013-03-02 01:59:00,34.5,26.9,29.62,West,270,0.0,0.0,74,0.00,,,0.00,WUHU216HW,2013-03-02 06:59:00,
2013-03-02 02:00:00,52.5,27.5,29.69,WSW,248,0.0,4.2,38,0.00,,,0.00,WUHU216HW,2013-03-02 07:00:00,
2013-03-02 02:01:00,52.5,27.5,29.69,WNW,293,4.4,4.4,38,0.00,,,0.00,WUHU216HW,2013-03-02 07:01:00,
2013-03-02 02:02:00,52.5,27.5,29.69,WNW,293,4.4,4.4,38,0.00,,,0.00,WUHU216HW,2013-03-02 07:02:00,
2013-03-02 02:03:00,52.5,26.8,29.69,WNW,293,0.0,4.4,37,0.00,,,0.00,WUHU216HW,2013-03-02 07:03:00,
2013-03-02 02:04:00,34.5,26.9,29.62,West,270,0.0,0.0,74,0.00,,,0.00,WUHU216HW,2013-03-02 07:04:00,
2013-03-02 02:05:00,52.5,26.8,29.70,WNW,293,0.0,4.4,37,0.00,,,0.00,WUHU216HW,2013-03-02 07:05:00,
2013-03-02 02:06:00,52.3,27.3,29.70,WNW,293,0.0,4.4,38,0.00,,,0.00,WUHU216HW,2013-03-02 07:06:00,
2013-03-02 02:07:00,52.3,27.3,29.70,WNW,293,0.0,4.4,38,0.00,,,0.00,WUHU216HW,2013-03-02 07:07:00,
2013-03-02 02:08:00,52.1,27.1,29.70,West,270,0.0,4.4,38,0.00,,,0.00,WUHU216HW,2013-03-02 07:08:00,
2013-03-02 02:09:00,34.1,26.9,29.62,West,270,0.0,0.0,75,0.00,,,0.00,WUHU216HW,2013-03-02 07:09:00,
2013-03-02 02:10:00,52.1,27.1,29.70,West,270,0.0,4.4,38,0.00,,,0.00,WUHU216HW,2013-03-02 07:10:00,
2013-03-02 02:11:00,52.1,27.1,29.70,West,270,0.0,4.4,38,0.00,,,0.00,WUHU216HW,2013-03-02 07:11:00,
2013-03-02 02:12:00,51.9,27.0,29.70,WNW,293,0.0,4.4,38,0.00,,,0.00,WUHU216HW,2013-03-02 07:12:00,
2013-03-02 02:13:00,51.9,27.0,29.70,WNW,293,0.0,0.0,38,0.00,,,0.00,WUHU216HW,2013-03-02 07:13:00,
2013-03-02 02:14:00,33.9,26.7,29.62,West,270,0.0,0.0,75,0.00,,,0.00,WUHU216HW,2013-03-02 07:14:00,
2013-03-02 02:15:00,51.9,27.0,29.70,WNW,293,0.0,0.0,37,0.00,,,0.00,WUHU216HW,2013-03-02 07:15:00,
2013-03-02 02:16:00,51.6,26.0,29.71,WNW,293,0.0,0.0,37,0.00,,,0.00,WUHU216HW,2013-03-02 07:16:00,
2013-03-02 02:17:00,51.6,26.0,29.71,WNW,293,0.0,0.0,37,0.00,,,0.00,WUHU216HW,2013-03-02 07:17:00,
2013-03-02 02:18:00,51.6,26.0,29.71,WNW,293,0.0,0.0,37,0.00,,,0.00,WUHU216HW,2013-03-02 07:18:00,
2013-03-02 02:19:00,33.9,26.7,29.61,West,270,0.0,0.0,75,0.00,,,0.00,WUHU216HW,2013-03-02 07:19:00,
2013-03-02 02:20:00,51.4,27.2,29.71,NNE,23,0.0,6.4,39,0.00,,,0.00,WUHU216HW,2013-03-02 07:20:00,
2013-03-02 02:21:00,51.4,27.2,29.71,NNE,23,0.0,6.4,39,0.00,,,0.00,WUHU216HW,2013-03-02 07:21:00,
2013-03-02 02:22:00,51.4,27.2,29.71,WNW,293,0.0,6.4,40,0.00,,,0.00,WUHU216HW,2013-03-02 07:22:00,
2013-03-02 02:23:00,51.4,27.2,29.71,WNW,293,0.0,6.4,40,0.00,,,0.00,WUHU216HW,2013-03-02 07:23:00,
2013-03-02 02:24:00,33.6,26.7,29.61,West,270,0.0,0.0,76,0.00,,,0.00,WUHU216HW,2013-03-02 07:24:00,
2013-03-02 02:25:00,51.0,27.5,29.72,WNW,293,0.0,6.4,40,0.00,,,0.00,WUHU216HW,2013-03-02 07:25:00,
2013-03-02 02:26:00,51.0,28.1,29.72,WNW,293,4.2,6.4,41,0.00,,,0.00,WUHU216HW,2013-03-02 07:26:00,
2013-03-02 02:27:00,51.0,28.1,29.71,WNW,293,4.2,6.4,41,0.00,,,0.00,WUHU216HW,2013-03-02 07:27:00,
2013-03-02 02:29:00,33.4,26.6,29.61,West,270,0.0,0.0,76,0.00,,,0.00,WUHU216HW,2013-03-02 07:29:00,
2013-03-02 02:30:00,50.7,28.3,29.72,WNW,293,3.5,4.2,42,0.00,,,0.00,WUHU216HW,2013-03-02 07:30:00,
2013-03-02 02:31:00,50.7,28.3,29.71,WNW,293,3.5,4.2,42,0.00,,,0.00,WUHU216HW,2013-03-02 07:31:00,
2013-03-02 02:32:00,50.5,28.7,29.71,West,270,0.0,4.2,43,0.00,,,0.00,WUHU216HW,2013-03-02 07:32:00,
2013-03-02 02:33:00,50.5,28.7,29.72,West,270,0.0,4.2,43,0.00,,,0.00,WUHU216HW,2013-03-02 07:33:00,
2013-03-02 02:34:00,33.0,26.2,29.61,West,270,0.0,0.0,76,0.00,,,0.00,WUHU216HW,2013-03-02 07:34:00,
2013-03-02 02:35:00,50.3,28.6,29.72,West,270,0.0,4.2,43,0.00,,,0.00,WUHU216HW,2013-03-02 07:35:00,
2013-03-02 02:36:00,50.3,28.6,29.72,West,270,0.0,4.2,43,0.00,,,0.00,WUHU216HW,2013-03-02 07:36:00,
2013-03-02 02:37:00,50.3,28.6,29.72,West,270,0.0,4.2,43,0.00,,,0.00,WUHU216HW,2013-03-02 07:37:00,
2013-03-02 02:38:00,50.3,28.6,29.72,West,270,0.0,3.5,43,0.00,,,0.00,WUHU216HW,2013-03-02 07:38:00,
2013-03-02 02:39:00,33.0,26.6,29.61,West,270,0.0,0.0,76,0.00,,,0.00,WUHU216HW,2013-03-02 07:39:00,
2013-03-02 02:40:00,50.3,28.6,29.72,West,270,0.0,3.5,43,0.00,,,0.00,WUHU216HW,2013-03-02 07:40:00,
2013-03-02 02:41:00,50.1,28.9,29.72,WNW,293,0.0,3.5,44,0.00,,,0.00,WUHU216HW,2013-03-02 07:41:00,
2013-03-02 02:42:00,50.1,28.9,29.72,WNW,293,0.0,0.0,44,0.00,,,0.00,WUHU216HW,2013-03-02 07:42:00,
2013-03-02 02:43:00,50.0,28.8,29.72,WNW,293,0.0,0.0,44,0.00,,,0.00,WUHU216HW,2013-03-02 07:43:00,
2013-03-02 02:44:00,33.0,26.6,29.61,West,270,0.0,0.0,77,0.00,,,0.00,WUHU216HW,2013-03-02 07:44:00,
2013-03-02 02:45:00,50.0,28.8,29.72,WNW,293,0.0,0.0,44,0.00,,,0.00,WUHU216HW,2013-03-02 07:45:00,
2013-03-02 02:46:00,49.8,28.6,29.72,ENE,68,0.0,0.0,44,0.00,,,0.00,WUHU216HW,2013-03-02 07:46:00,
2013-03-02 02:47:00,49.8,28.6,29.72,ENE,68,0.0,0.0,44,0.00,,,0.00,WUHU216HW,2013-03-02 07:47:00,
2013-03-02 02:48:00,49.6,28.4,29.72,NNE,23,0.0,0.0,44,0.00,,,0.00,WUHU216HW,2013-03-02 07:48:00,
2013-03-02 02:49:00,32.9,26.4,29.61,West,270,0.0,0.0,77,0.00,,,0.00,WUHU216HW,2013-03-02 07:49:00,
2013-03-02 02:50:00,49.6,28.4,29.72,NNE,23,0.0,0.0,44,0.00,,,0.00,WUHU216HW,2013-03-02 07:50:00,
2013-03-02 02:51:00,49.6,28.4,29.72,NNE,23,0.0,0.0,44,0.00,,,0.00,WUHU216HW,2013-03-02 07:51:00,
2013-03-02 02:52:00,49.6,28.4,29.72,NNE,23,0.0,0.0,44,0.00,,,0.00,WUHU216HW,2013-03-02 07:52:00,
2013-03-02 02:53:00,49.6,28.4,29.73,NNE,23,0.0,0.0,44,0.00,,,0.00,WUHU216HW,2013-03-02 07:53:00,
2013-03-02 02:54:00,32.9,26.4,29.61,West,270,0.0,0.0,77,0.00,,,0.00,WUHU216HW,2013-03-02 07:54:00,
2013-03-02 02:55:00,49.4,28.3,29.73,North,0,0.0,0.0,44,0.00,,,0.00,WUHU216HW,2013-03-02 07:55:00,
2013-03-02 02:56:00,49.2,28.1,29.73,WNW,293,0.0,0.0,44,0.00,,,0.00,WUHU216HW,2013-03-02 07:56:00,
2013-03-02 02:57:00,49.2,28.1,29.73,WNW,293,0.0,0.0,44,0.00,,,0.00,WUHU216HW,2013-03-02 07:57:00,
2013-03-02 02:58:00,49.1,27.9,29.73,WNW,293,0.0,0.0,44,0.00,,,0.00,WUHU216HW,2013-03-02 07:58:00,
2013-03-02 02:59:00,49.1,27.9,29.73,WNW,293,0.0,0.0,44,0.00,,,0.00,WUHU216HW,2013-03-02 07:59:00,
2013-03-02 03:00:00,32.9,26.4,29.61,West,270,0.0,0.0,78,0.00,,,0.00,WUHU216HW,2013-03-02 08:00:00,
2013-03-02 03:01:00,49.1,27.9,29.73,WNW,293,0.0,0.0,45,0.00,,,0.00,WUHU216HW,2013-03-02 08:01:00,
2013-03-02 03:02:00,49.1,27.9,29.73,WNW,293,0.0,0.0,45,0.00,,,0.00,WUHU216HW,2013-03-02 08:02:00,
2013-03-02 03:03:00,48.9,28.3,29.73,WNW,293,5.1,5.1,45,0.00,,,0.00,WUHU216HW,2013-03-02 08:03:00,
2013-03-02 03:04:00,48.9,28.3,29.73,WNW,293,5.1,5.1,45,0.00,,,0.00,WUHU216HW,2013-03-02 08:04:00,
2013-03-02 03:05:00,32.9,26.4,29.61,West,270,0.0,0.0,78,0.00,,,0.00,WUHU216HW,2013-03-02 08:05:00,
2013-03-02 03:06:00,48.9,28.3,29.73,NW,315,0.0,5.1,45,0.00,,,0.00,WUHU216HW,2013-03-02 08:06:00,
2013-03-02 03:07:00,48.7,28.1,29.73,NW,315,0.0,5.1,45,0.00,,,0.00,WUHU216HW,2013-03-02 08:07:00,
2013-03-02 03:08:00,48.7,28.1,29.74,NW,315,0.0,5.1,45,0.00,,,0.00,WUHU216HW,2013-03-02 08:08:00,
2013-03-02 03:09:00,48.5,28.0,29.74,NW,315,0.0,5.1,45,0.00,,,0.00,WUHU216HW,2013-03-02 08:09:00,
2013-03-02 03:10:00,48.5,28.0,29.74,NW,315,0.0,5.1,45,0.00,,,0.00,WUHU216HW,2013-03-02 08:10:00,
2013-03-02 03:11:00,32.7,26.6,29.61,West,270,0.0,0.0,78,0.00,,,0.00,WUHU216HW,2013-03-02 08:11:00,
2013-03-02 03:12:00,48.5,28.0,29.74,NW,315,0.0,5.1,45,0.00,,,0.00,WUHU216HW,2013-03-02 08:12:00,
2013-03-02 03:13:00,48.5,28.0,29.74,NW,315,0.0,5.1,45,0.00,,,0.00,WUHU216HW,2013-03-02 08:13:00,
2013-03-02 03:14:00,48.5,28.0,29.74,WNW,293,0.0,0.0,45,0.00,,,0.00,WUHU216HW,2013-03-02 08:14:00,
2013-03-02 03:16:00,32.5,26.4,29.60,West,270,0.0,0.0,78,0.00,,,0.00,WUHU216HW,2013-03-02 08:16:00,
2013-03-02 03:20:00,48.2,27.1,29.74,WNW,293,0.0,0.0,44,0.00,,,0.00,WUHU216HW,2013-03-02 08:20:00,
2013-03-02 03:21:00,48.2,27.1,29.75,WNW,293,0.0,0.0,44,0.00,,,0.00,WUHU216HW,2013-03-02 08:21:00,
2013-03-02 03:22:00,32.1,26.4,29.61,West,270,0.0,0.0,79,0.00,,,0.00,WUHU216HW,2013-03-02 08:22:00,
2013-03-02 03:23:00,48.0,26.9,29.75,East,90,0.0,0.0,44,0.00,,,0.00,WUHU216HW,2013-03-02 08:23:00,
2013-03-02 03:24:00,48.0,26.9,29.75,ESE,113,0.0,0.0,44,0.00,,,0.00,WUHU216HW,2013-03-02 08:24:00,
2013-03-02 03:25:00,48.0,26.9,29.75,ESE,113,0.0,0.0,44,0.00,,,0.00,WUHU216HW,2013-03-02 08:25:00,
2013-03-02 03:26:00,48.0,26.9,29.75,ENE,68,0.0,0.0,44,0.00,,,0.00,WUHU216HW,2013-03-02 08:26:00,
2013-03-02 03:27:00,32.1,26.4,29.60,West,270,0.0,0.0,79,0.00,,,0.00,WUHU216HW,2013-03-02 08:27:00,
2013-03-02 03:28:00,47.8,26.8,29.75,WNW,293,0.0,0.0,44,0.00,,,0.00,WUHU216HW,2013-03-02 08:28:00,
2013-03-02 03:29:00,47.8,26.8,29.75,WNW,293,0.0,0.0,44,0.00,,,0.00,WUHU216HW,2013-03-02 08:29:00,
2013-03-02 03:30:00,47.6,26.1,29.75,East,90,0.0,0.0,43,0.00,,,0.00,WUHU216HW,2013-03-02 08:30:00,
2013-03-02 03:31:00,47.6,26.1,29.75,East,90,0.0,0.0,43,0.00,,,0.00,WUHU216HW,2013-03-02 08:31:00,
2013-03-02 03:32:00,32.0,26.2,29.60,West,270,0.0,0.0,79,0.00,,,0.00,WUHU216HW,2013-03-02 08:32:00,
2013-03-02 03:33:00,47.4,26.4,29.75,NE,45,0.0,0.0,44,0.00,,,0.00,WUHU216HW,2013-03-02 08:33:00,
2013-03-02 03:34:00,47.4,26.4,29.75,NE,45,0.0,0.0,44,0.00,,,0.00,WUHU216HW,2013-03-02 08:34:00,
2013-03-02 03:35:00,47.4,26.4,29.75,NNW,338,0.0,0.0,44,0.00,,,0.00,WUHU216HW,2013-03-02 08:35:00,
2013-03-02 03:36:00,47.4,26.4,29.75,NNW,338,0.0,0.0,44,0.00,,,0.00,WUHU216HW,2013-03-02 08:36:00,
2013-03-02 03:37:00,31.8,26.0,29.60,West,270,0.0,0.0,79,0.00,,,0.00,WUHU216HW,2013-03-02 08:37:00,
2013-03-02 03:38:00,47.4,26.4,29.75,East,90,1.3,1.3,44,0.00,,,0.00,WUHU216HW,2013-03-02 08:38:00,
2013-03-02 03:39:00,47.3,26.3,29.75,WNW,293,0.0,1.3,44,0.00,,,0.00,WUHU216HW,2013-03-02 08:39:00,
2013-03-02 03:40:00,47.3,26.3,29.75,WNW,293,0.0,1.3,44,0.00,,,0.00,WUHU216HW,2013-03-02 08:40:00,
2013-03-02 03:41:00,47.1,26.1,29.75,West,270,2.6,2.6,44,0.00,,,0.00,WUHU216HW,2013-03-02 08:41:00,
2013-03-02 03:42:00,31.8,26.0,29.60,West,270,0.0,0.0,79,0.00,,,0.00,WUHU216HW,2013-03-02 08:42:00,
2013-03-02 03:43:00,47.1,26.1,29.75,West,270,2.6,2.6,44,0.00,,,0.00,WUHU216HW,2013-03-02 08:43:00,
2013-03-02 03:44:00,46.9,25.4,29.75,NW,315,0.0,2.6,43,0.00,,,0.00,WUHU216HW,2013-03-02 08:44:00,
2013-03-02 03:45:00,46.9,25.4,29.75,NW,315,0.0,2.6,43,0.00,,,0.00,WUHU216HW,2013-03-02 08:45:00,
2013-03-02 03:46:00,46.9,25.4,29.75,NNW,338,0.0,2.6,43,0.00,,,0.00,WUHU216HW,2013-03-02 08:46:00,
2013-03-02 03:47:00,46.9,25.4,29.75,NNW,338,0.0,2.6,43,0.00,,,0.00,WUHU216HW,2013-03-02 08:47:00,
2013-03-02 03:48:00,31.6,25.9,29.60,West,270,0.0,0.0,79,0.00,,,0.00,WUHU216HW,2013-03-02 08:48:00,
2013-03-02 03:49:00,46.7,25.3,29.75,West,270,0.0,2.6,43,0.00,,,0.00,WUHU216HW,2013-03-02 08:49:00,
2013-03-02 03:50:00,46.5,26.2,29.75,NW,315,0.0,2.6,45,0.00,,,0.00,WUHU216HW,2013-03-02 08:50:00,
2013-03-02 03:51:00,46.5,26.2,29.75,NW,315,0.0,2.6,45,0.00,,,0.00,WUHU216HW,2013-03-02 08:51:00,
2013-03-02 03:52:00,46.5,26.2,29.76,WNW,293,0.0,2.6,43,0.00,,,0.00,WUHU216HW,2013-03-02 08:52:00,
2013-03-02 03:53:00,31.4,25.7,29.60,West,270,0.0,0.0,79,0.00,,,0.00,WUHU216HW,2013-03-02 08:53:00,
2013-03-02 03:54:00,46.5,26.2,29.76,West,270,0.0,0.0,44,0.00,,,0.00,WUHU216HW,2013-03-02 08:54:00,
2013-03-02 03:55:00,46.5,26.2,29.76,West,270,0.0,0.0,44,0.00,,,0.00,WUHU216HW,2013-03-02 08:55:00,
2013-03-02 03:56:00,46.5,26.2,29.76,West,270,0.0,0.0,44,0.00,,,0.00,WUHU216HW,2013-03-02 08:56:00,
2013-03-02 03:57:00,46.4,24.9,29.77,West,270,0.0,0.0,43,0.00,,,0.00,WUHU216HW,2013-03-02 08:57:00,
2013-03-02 03:58:00,31.4,25.7,29.59,West,270,0.0,0.0,80,0.00,,,0.00,WUHU216HW,2013-03-02 08:58:00,
2013-03-02 03:59:00,46.2,24.8,29.77,West,270,0.0,0.0,43,0.00,,,0.00,WUHU216HW,2013-03-02 08:59:00,
2013-03-02 04:00:00,46.2,24.8,29.77,West,270,0.0,0.0,43,0.00,,,0.00,WUHU216HW,2013-03-02 09:00:00,
2013-03-02 04:01:00,46.2,24.8,29.77,West,270,0.0,0.0,43,0.00,,,0.00,WUHU216HW,2013-03-02 09:01:00,
2013-03-02 04:02:00,46.2,24.8,29.77,WNW,293,0.0,0.0,44,0.00,,,0.00,WUHU216HW,2013-03-02 09:02:00,
2013-03-02 04:03:00,31.4,25.7,29.59,West,270,0.0,0.0,79,0.00,,,0.00,WUHU216HW,2013-03-02 09:03:00,
2013-03-02 04:04:00,46.2,24.8,29.77,WNW,293,0.0,0.0,44,0.00,,,0.00,WUHU216HW,2013-03-02 09:04:00,
2013-03-02 04:05:00,46.0,25.1,29.77,WNW,293,0.0,0.0,44,0.00,,,0.00,WUHU216HW,2013-03-02 09:05:00,
2013-03-02 04:06:00,46.0,25.1,29.77,WNW,293,0.0,0.0,44,0.00,,,0.00,WUHU216HW,2013-03-02 09:06:00,
2013-03-02 04:07:00,46.0,25.1,29.77,WNW,293,0.0,0.0,44,0.00,,,0.00,WUHU216HW,2013-03-02 09:07:00,
2013-03-02 04:08:00,31.4,26.0,29.59,West,270,0.0,0.0,80,0.00,,,0.00,WUHU216HW,2013-03-02 09:08:00,
2013-03-02 04:09:00,45.8,25.5,29.77,ENE,68,0.0,0.0,45,0.00,,,0.00,WUHU216HW,2013-03-02 09:09:00,
2013-03-02 04:10:00,45.8,25.5,29.77,ENE,68,0.0,0.0,45,0.00,,,0.00,WUHU216HW,2013-03-02 09:10:00,
2013-03-02 04:11:00,45.8,25.5,29.77,ENE,68,0.0,0.0,45,0.00,,,0.00,WUHU216HW,2013-03-02 09:11:00,
2013-03-02 04:12:00,45.8,25.5,29.77,WNW,293,0.0,0.0,44,0.00,,,0.00,WUHU216HW,2013-03-02 09:12:00,
2013-03-02 04:13:00,31.2,25.8,29.60,West,270,0.0,0.0,80,0.00,,,0.00,WUHU216HW,2013-03-02 09:13:00,
2013-03-02 04:14:00,45.6,24.8,29.77,WNW,293,0.0,0.0,44,0.00,,,0.00,WUHU216HW,2013-03-02 09:14:00,
2013-03-02 04:15:00,45.6,24.8,29.77,WNW,293,0.0,0.0,44,0.00,,,0.00,WUHU216HW,2013-03-02 09:15:00,
2013-03-02 04:16:00,45.6,24.8,29.77,West,270,0.0,0.0,44,0.00,,,0.00,WUHU216HW,2013-03-02 09:16:00,
2013-03-02 04:17:00,45.6,24.8,29.77,West,270,0.0,0.0,44,0.00,,,0.00,WUHU216HW,2013-03-02 09:17:00,
2013-03-02 04:18:00,31.1,25.7,29.60,West,270,0.0,0.0,80,0.00,,,0.00,WUHU216HW,2013-03-02 09:18:00,
2013-03-02 04:19:00,45.5,24.7,29.77,West,270,0.0,0.0,44,0.00,,,0.00,WUHU216HW,2013-03-02 09:19:00,
2013-03-02 04:20:00,45.5,24.7,29.77,West,270,0.0,0.0,45,0.00,,,0.00,WUHU216HW,2013-03-02 09:20:00,
2013-03-02 04:21:00,45.5,24.7,29.77,West,270,0.0,0.0,45,0.00,,,0.00,WUHU216HW,2013-03-02 09:21:00,
2013-03-02 04:22:00,45.3,25.0,29.77,West,270,0.0,0.0,45,0.00,,,0.00,WUHU216HW,2013-03-02 09:22:00,
2013-03-02 04:23:00,31.1,25.7,29.60,West,270,0.0,0.0,80,0.00,,,0.00,WUHU216HW,2013-03-02 09:23:00,
2013-03-02 04:24:00,45.3,25.0,29.77,West,270,0.0,0.0,44,0.00,,,0.00,WUHU216HW,2013-03-02 09:24:00,
2013-03-02 04:25:00,45.3,25.0,29.77,West,270,0.0,0.0,44,0.00,,,0.00,WUHU216HW,2013-03-02 09:25:00,
2013-03-02 04:26:00,45.3,25.0,29.78,West,270,0.0,0.0,45,0.00,,,0.00,WUHU216HW,2013-03-02 09:26:00,
2013-03-02 04:27:00,45.3,25.0,29.78,West,270,0.0,0.0,45,0.00,,,0.00,WUHU216HW,2013-03-02 09:27:00,
2013-03-02 04:28:00,31.1,25.7,29.60,West,270,0.0,0.0,80,0.00,,,0.00,WUHU216HW,2013-03-02 09:28:00,
2013-03-02 04:29:00,45.1,24.9,29.78,West,270,0.0,0.0,45,0.00,,,0.00,WUHU216HW,2013-03-02 09:29:00,
2013-03-02 04:30:00,45.1,24.9,29.78,West,270,0.0,0.0,45,0.00,,,0.00,WUHU216HW,2013-03-02 09:30:00,
2013-03-02 04:31:00,44.9,24.7,29.78,West,270,0.0,0.0,45,0.00,,,0.00,WUHU216HW,2013-03-02 09:31:00,
2013-03-02 04:32:00,44.9,24.7,29.78,West,270,0.0,0.0,45,0.00,,,0.00,WUHU216HW,2013-03-02 09:32:00,
2013-03-02 04:33:00,30.9,25.5,29.60,West,270,0.0,0.0,80,0.00,,,0.00,WUHU216HW,2013-03-02 09:33:00,
2013-03-02 04:34:00,44.9,24.7,29.78,WNW,293,0.0,0.0,46,0.00,,,0.00,WUHU216HW,2013-03-02 09:34:00,
2013-03-02 04:35:00,44.7,24.0,29.78,NW,315,0.0,0.0,44,0.00,,,0.00,WUHU216HW,2013-03-02 09:35:00,
2013-03-02 04:36:00,44.7,24.0,29.78,NW,315,0.0,0.0,44,0.00,,,0.00,WUHU216HW,2013-03-02 09:36:00,
2013-03-02 04:37:00,44.7,24.0,29.78,WNW,293,0.0,0.0,45,0.00,,,0.00,WUHU216HW,2013-03-02 09:37:00,
2013-03-02 04:38:00,44.7,24.0,29.78,WNW,293,0.0,0.0,45,0.00,,,0.00,WUHU216HW,2013-03-02 09:38:00,
2013-03-02 04:39:00,30.9,25.5,29.60,West,270,0.0,0.0,80,0.00,,,0.00,WUHU216HW,2013-03-02 09:39:00,
2013-03-02 04:40:00,44.7,24.0,29.78,West,270,0.0,0.0,45,0.00,,,0.00,WUHU216HW,2013-03-02 09:40:00,
2013-03-02 04:41:00,44.7,24.0,29.78,West,270,0.0,0.0,45,0.00,,,0.00,WUHU216HW,2013-03-02 09:41:00,
2013-03-02 04:42:00,44.7,24.0,29.78,West,270,0.0,0.0,45,0.00,,,0.00,WUHU216HW,2013-03-02 09:42:00,
2013-03-02 04:43:00,44.7,24.0,29.78,West,270,0.0,0.0,45,0.00,,,0.00,WUHU216HW,2013-03-02 09:43:00,
2013-03-02 04:44:00,30.9,25.5,29.60,West,270,0.0,0.0,81,0.00,,,0.00,WUHU216HW,2013-03-02 09:44:00,
2013-03-02 04:45:00,44.4,24.2,29.78,WNW,293,0.0,0.0,45,0.00,,,0.00,WUHU216HW,2013-03-02 09:45:00,
2013-03-02 04:46:00,44.4,24.2,29.78,WNW,293,3.3,3.3,45,0.00,,,0.00,WUHU216HW,2013-03-02 09:46:00,
2013-03-02 04:47:00,44.4,24.2,29.78,WNW,293,3.3,3.3,45,0.00,,,0.00,WUHU216HW,2013-03-02 09:47:00,
2013-03-02 04:48:00,44.4,24.2,29.78,WNW,293,0.0,3.3,45,0.00,,,0.00,WUHU216HW,2013-03-02 09:48:00,
2013-03-02 04:49:00,30.7,25.6,29.60,West,270,0.0,0.0,81,0.00,,,0.00,WUHU216HW,2013-03-02 09:49:00,
2013-03-02 04:50:00,44.4,24.2,29.78,WNW,293,0.0,3.3,45,0.00,,,0.00,WUHU216HW,2013-03-02 09:50:00,
2013-03-02 04:51:00,44.4,24.2,29.78,WNW,293,0.0,3.3,45,0.00,,,0.00,WUHU216HW,2013-03-02 09:51:00,
2013-03-02 04:52:00,44.2,24.1,29.79,ESE,113,0.0,3.3,45,0.00,,,0.00,WUHU216HW,2013-03-02 09:52:00,
2013-03-02 04:53:00,44.2,24.1,29.79,ESE,113,0.0,3.3,45,0.00,,,0.00,WUHU216HW,2013-03-02 09:53:00,
2013-03-02 04:54:00,30.7,25.6,29.59,West,270,0.0,0.0,81,0.00,,,0.00,WUHU216HW,2013-03-02 09:54:00,
2013-03-02 04:55:00,44.2,24.1,29.79,NNW,338,0.0,3.3,46,0.00,,,0.00,WUHU216HW,2013-03-02 09:55:00,
2013-03-02 04:56:00,44.2,24.1,29.79,NNW,338,0.0,3.3,46,0.00,,,0.00,WUHU216HW,2013-03-02 09:56:00,
2013-03-02 04:57:00,44.2,24.1,29.79,NNW,338,0.0,3.3,45,0.00,,,0.00,WUHU216HW,2013-03-02 09:57:00,
2013-03-02 04:59:00,30.5,25.4,29.60,West,270,0.0,0.0,81,0.00,,,0.00,WUHU216HW,2013-03-02 09:59:00,
2013-03-02 05:04:00,30.3,25.2,29.59,West,270,0.0,0.0,81,0.00,,,0.00,WUHU216HW,2013-03-02 10:04:00,
2013-03-02 05:06:00,43.8,24.3,29.79,WNW,293,0.0,0.0,46,0.00,,,0.00,WUHU216HW,2013-03-02 10:06:00,
2013-03-02 05:09:00,43.8,24.3,29.79,WNW,293,2.6,2.6,47,0.00,,,0.00,WUHU216HW,2013-03-02 10:09:00,
2013-03-02 05:10:00,43.8,24.3,29.79,WNW,293,2.6,2.6,47,0.00,,,0.00,WUHU216HW,2013-03-02 10:10:00,
2013-03-02 05:11:00,43.8,24.3,29.79,WNW,293,2.6,2.6,47,0.00,,,0.00,WUHU216HW,2013-03-02 10:11:00,
2013-03-02 05:12:00,43.7,24.7,29.79,WNW,293,0.0,2.6,47,0.00,,,0.00,WUHU216HW,2013-03-02 10:12:00,
2013-03-02 05:13:00,43.7,24.7,29.79,WNW,293,0.0,2.6,47,0.00,,,0.00,WUHU216HW,2013-03-02 10:13:00,
2013-03-02 05:14:00,43.5,24.5,29.79,WNW,293,0.0,2.6,47,0.00,,,0.00,WUHU216HW,2013-03-02 10:14:00,
2013-03-02 05:15:00,43.5,24.5,29.79,WNW,293,0.0,2.6,47,0.00,,,0.00,WUHU216HW,2013-03-02 10:15:00,
2013-03-02 05:16:00,43.3,24.3,29.80,West,270,0.0,2.6,47,0.00,,,0.00,WUHU216HW,2013-03-02 10:16:00,
2013-03-02 05:17:00,30.0,24.9,29.59,West,270,0.0,0.0,81,0.00,,,0.00,WUHU216HW,2013-03-02 10:17:00,
2013-03-02 05:18:00,43.3,24.3,29.80,West,270,0.0,2.6,48,0.00,,,0.00,WUHU216HW,2013-03-02 10:18:00,
2013-03-02 05:19:00,43.3,24.3,29.80,West,270,0.0,2.6,48,0.00,,,0.00,WUHU216HW,2013-03-02 10:19:00,
2013-03-02 05:20:00,43.3,24.3,29.80,WNW,293,0.0,2.6,48,0.00,,,0.00,WUHU216HW,2013-03-02 10:20:00,
2013-03-02 05:21:00,43.3,24.3,29.80,WNW,293,0.0,2.6,48,0.00,,,0.00,WUHU216HW,2013-03-02 10:21:00,
2013-03-02 05:22:00,43.3,24.3,29.80,WNW,293,0.0,0.0,48,0.00,,,0.00,WUHU216HW,2013-03-02 10:22:00,
2013-03-02 05:23:00,30.0,24.9,29.59,West,270,0.0,0.0,82,0.00,,,0.00,WUHU216HW,2013-03-02 10:23:00,
2013-03-02 05:24:00,43.1,24.7,29.80,WNW,293,0.0,0.0,48,0.00,,,0.00,WUHU216HW,2013-03-02 10:24:00,
2013-03-02 05:25:00,43.1,24.7,29.80,WNW,293,0.0,0.0,48,0.00,,,0.00,WUHU216HW,2013-03-02 10:25:00,
2013-03-02 05:26:00,43.1,24.7,29.80,WNW,293,0.0,0.0,48,0.00,,,0.00,WUHU216HW,2013-03-02 10:26:00,
2013-03-02 05:27:00,42.9,24.0,29.80,WNW,293,0.0,0.0,47,0.00,,,0.00,WUHU216HW,2013-03-02 10:27:00,
2013-03-02 05:28:00,30.0,24.9,29.59,West,270,0.0,0.0,81,0.00,,,0.00,WUHU216HW,2013-03-02 10:28:00,
2013-03-02 05:29:00,42.9,24.0,29.80,WNW,293,0.0,0.0,47,0.00,,,0.00,WUHU216HW,2013-03-02 10:29:00,
2013-03-02 05:30:00,42.9,24.0,29.80,WNW,293,0.0,0.0,47,0.00,,,0.00,WUHU216HW,2013-03-02 10:30:00,
2013-03-02 05:31:00,42.9,24.0,29.80,WSW,248,0.0,0.0,47,0.00,,,0.00,WUHU216HW,2013-03-02 10:31:00,
2013-03-02 05:32:00,42.9,24.0,29.80,WSW,248,0.0,0.0,47,0.00,,,0.00,WUHU216HW,2013-03-02 10:32:00,
2013-03-02 05:33:00,30.0,24.9,29.59,West,270,0.0,0.0,82,0.00,,,0.00,WUHU216HW,2013-03-02 10:33:00,
2013-03-02 05:34:00,42.9,24.0,29.80,WSW,248,0.0,0.0,48,0.00,,,0.00,WUHU216HW,2013-03-02 10:34:00,
2013-03-02 05:35:00,42.8,24.4,29.80,WSW,248,0.0,0.0,48,0.00,,,0.00,WUHU216HW,2013-03-02 10:35:00,
2013-03-02 05:36:00,42.8,24.4,29.80,WSW,248,0.0,0.0,48,0.00,,,0.00,WUHU216HW,2013-03-02 10:36:00,
2013-03-02 05:37:00,42.8,24.4,29.80,WSW,248,0.0,0.0,48,0.00,,,0.00,WUHU216HW,2013-03-02 10:37:00,
2013-03-02 05:38:00,30.0,24.9,29.59,West,270,0.0,0.0,82,0.00,,,0.00,WUHU216HW,2013-03-02 10:38:00,
2013-03-02 05:39:00,42.8,24.4,29.81,WSW,248,0.0,0.0,48,0.00,,,0.00,WUHU216HW,2013-03-02 10:39:00,
2013-03-02 05:40:00,42.6,24.2,29.81,WSW,248,0.0,0.0,48,0.00,,,0.00,WUHU216HW,2013-03-02 10:40:00,
2013-03-02 05:41:00,42.6,24.2,29.81,WSW,248,0.0,0.0,48,0.00,,,0.00,WUHU216HW,2013-03-02 10:41:00,
2013-03-02 05:43:00,42.6,24.2,29.81,WNW,293,0.0,0.0,49,0.00,,,0.00,WUHU216HW,2013-03-02 10:43:00,
2013-03-02 05:44:00,42.4,24.6,29.81,WNW,293,0.0,0.0,49,0.00,,,0.00,WUHU216HW,2013-03-02 10:44:00,
2013-03-02 05:45:00,42.4,24.6,29.81,WNW,293,0.0,0.0,49,0.00,,,0.00,WUHU216HW,2013-03-02 10:45:00,
2013-03-02 05:46:00,42.4,24.6,29.81,SW,225,0.0,0.0,49,0.00,,,0.00,WUHU216HW,2013-03-02 10:46:00,
2013-03-02 05:47:00,42.4,24.6,29.81,SW,225,0.0,0.0,49,0.00,,,0.00,WUHU216HW,2013-03-02 10:47:00,
2013-03-02 05:48:00,42.2,24.4,29.81,NW,315,0.0,0.0,49,0.00,,,0.00,WUHU216HW,2013-03-02 10:48:00,
2013-03-02 05:49:00,42.2,24.4,29.81,NW,315,0.0,0.0,49,0.00,,,0.00,WUHU216HW,2013-03-02 10:49:00,
2013-03-02 05:50:00,42.0,23.7,29.81,WNW,293,0.0,0.0,48,0.00,,,0.00,WUHU216HW,2013-03-02 10:50:00,
2013-03-02 05:51:00,29.8,25.0,29.60,West,270,0.0,0.0,82,0.00,,,0.00,WUHU216HW,2013-03-02 10:51:00,
2013-03-02 05:52:00,42.0,23.7,29.81,WNW,293,0.0,0.0,48,0.00,,,0.00,WUHU216HW,2013-03-02 10:52:00,
2013-03-02 05:53:00,42.0,23.7,29.82,WNW,293,0.0,0.0,48,0.00,,,0.00,WUHU216HW,2013-03-02 10:53:00,
2013-03-02 05:54:00,42.0,23.7,29.82,WNW,293,0.0,0.0,48,0.00,,,0.00,WUHU216HW,2013-03-02 10:54:00,
2013-03-02 05:55:00,42.0,23.7,29.82,WNW,293,0.0,0.0,48,0.00,,,0.00,WUHU216HW,2013-03-02 10:55:00,
2013-03-02 05:56:00,42.0,23.7,29.82,WNW,293,0.0,0.0,48,0.00,,,0.00,WUHU216HW,2013-03-02 10:56:00,
2013-03-02 05:57:00,41.9,23.5,29.82,WNW,293,0.0,0.0,48,0.00,,,0.00,WUHU216HW,2013-03-02 10:57:00,
2013-03-02 05:58:00,41.9,23.5,29.82,WNW,293,0.0,0.0,48,0.00,,,0.00,WUHU216HW,2013-03-02 10:58:00,
2013-03-02 05:59:00,29.8,25.0,29.60,West,270,0.0,0.0,82,0.00,,,0.00,WUHU216HW,2013-03-02 10:59:00,
2013-03-02 06:00:00,41.9,23.5,29.82,WSW,248,0.0,0.0,48,0.00,,,0.00,WUHU216HW,2013-03-02 11:00:00,
2013-03-02 06:01:00,41.7,23.3,29.82,WSW,248,0.0,0.0,48,0.00,,,0.00,WUHU216HW,2013-03-02 11:01:00,
2013-03-02 06:02:00,41.7,23.3,29.82,WSW,248,0.0,0.0,48,0.00,,,0.00,WUHU216HW,2013-03-02 11:02:00,
2013-03-02 06:03:00,41.7,23.3,29.82,WSW,248,0.0,0.0,49,0.00,,,0.00,WUHU216HW,2013-03-02 11:03:00,
2013-03-02 06:04:00,29.8,25.0,29.60,West,270,0.0,0.0,82,0.00,,,0.00,WUHU216HW,2013-03-02 11:04:00,
2013-03-02 06:05:00,41.7,23.3,29.82,WSW,248,0.0,0.0,49,0.00,,,0.00,WUHU216HW,2013-03-02 11:05:00,
2013-03-02 06:06:00,41.7,23.3,29.82,WSW,248,0.0,0.0,49,0.00,,,0.00,WUHU216HW,2013-03-02 11:06:00,
2013-03-02 06:07:00,41.7,23.3,29.82,WSW,248,0.0,0.0,49,0.00,,,0.00,WUHU216HW,2013-03-02 11:07:00,
2013-03-02 06:09:00,29.8,25.0,29.60,West,270,0.0,0.0,82,0.00,,,0.00,WUHU216HW,2013-03-02 11:09:00,
2013-03-02 06:10:00,41.5,23.7,29.83,NW,315,1.3,1.3,49,0.00,,,0.00,WUHU216HW,2013-03-02 11:10:00,
2013-03-02 06:11:00,41.5,23.7,29.82,NW,315,1.3,1.3,49,0.00,,,0.00,WUHU216HW,2013-03-02 11:11:00,
2013-03-02 06:12:00,41.5,23.2,29.83,WNW,293,4.9,4.9,48,0.00,,,0.00,WUHU216HW,2013-03-02 11:12:00,
2013-03-02 06:14:00,29.8,25.0,29.60,West,270,0.0,0.0,82,0.00,,,0.00,WUHU216HW,2013-03-02 11:14:00,
2013-03-02 06:15:00,41.3,23.5,29.82,WNW,293,0.0,4.9,48,0.00,,,0.00,WUHU216HW,2013-03-02 11:15:00,
2013-03-02 06:16:00,41.3,23.5,29.82,WNW,293,0.0,4.9,48,0.00,,,0.00,WUHU216HW,2013-03-02 11:16:00,
2013-03-02 06:17:00,41.1,22.8,29.82,WNW,293,0.0,4.9,48,0.00,,,0.00,WUHU216HW,2013-03-02 11:17:00,
2013-03-02 06:18:00,41.1,22.8,29.83,WNW,293,0.0,4.9,48,0.00,,,0.00,WUHU216HW,2013-03-02 11:18:00,
2013-03-02 06:19:00,29.8,25.0,29.60,West,270,0.0,0.0,82,0.00,,,0.00,WUHU216HW,2013-03-02 11:19:00,
2013-03-02 06:20:00,41.1,22.8,29.82,WNW,293,0.0,4.9,48,0.00,,,0.00,WUHU216HW,2013-03-02 11:20:00,
2013-03-02 06:21:00,41.1,22.8,29.83,WNW,293,0.0,4.9,48,0.00,,,0.00,WUHU216HW,2013-03-02 11:21:00,
2013-03-02 06:22:00,41.0,22.6,29.83,WNW,293,0.0,1.3,48,0.00,,,0.00,WUHU216HW,2013-03-02 11:22:00,
2013-03-02 06:23:00,41.0,22.6,29.83,WNW,293,0.0,0.0,48,0.00,,,0.00,WUHU216HW,2013-03-02 11:23:00,
2013-03-02 06:24:00,29.8,25.0,29.60,West,270,0.0,0.0,82,0.00,,,0.00,WUHU216HW,2013-03-02 11:24:00,
2013-03-02 06:25:00,40.8,23.0,29.83,WNW,293,0.0,0.0,49,0.00,,,0.00,WUHU216HW,2013-03-02 11:25:00,
2013-03-02 06:26:00,40.8,23.0,29.83,WNW,293,0.0,0.0,49,0.00,,,0.00,WUHU216HW,2013-03-02 11:26:00,
2013-03-02 06:27:00,40.8,23.0,29.83,WNW,293,0.0,0.0,49,0.00,,,0.00,WUHU216HW,2013-03-02 11:27:00,
2013-03-02 06:28:00,40.8,23.0,29.83,West,270,0.0,0.0,49,0.00,,,0.00,WUHU216HW,2013-03-02 11:28:00,
2013-03-02 06:29:00,40.8,23.0,29.82,West,270,0.0,0.0,49,0.00,,,0.00,WUHU216HW,2013-03-02 11:29:00,
2013-03-02 06:30:00,29.8,25.0,29.60,West,270,0.0,0.0,83,0.00,,,0.00,WUHU216HW,2013-03-02 11:30:00,
2013-03-02 06:31:00,40.6,22.8,29.83,East,90,0.0,0.0,49,0.00,,,0.00,WUHU216HW,2013-03-02 11:31:00,
2013-03-02 06:32:00,40.6,22.8,29.83,East,90,0.0,0.0,49,0.00,,,0.00,WUHU216HW,2013-03-02 11:32:00,
2013-03-02 06:33:00,40.6,22.8,29.83,East,90,0.0,0.0,49,0.00,,,0.00,WUHU216HW,2013-03-02 11:33:00,
2013-03-02 06:34:00,40.6,22.8,29.82,WNW,293,0.0,0.0,50,0.00,,,0.00,WUHU216HW,2013-03-02 11:34:00,
2013-03-02 06:35:00,29.8,25.3,29.60,West,270,0.0,0.0,83,0.00,,,0.00,WUHU216HW,2013-03-02 11:35:00,
2013-03-02 06:36:00,40.2,22.5,29.82,WNW,293,0.0,0.0,49,0.00,,,0.00,WUHU216HW,2013-03-02 11:36:00,
2013-03-02 06:37:00,40.2,22.5,29.83,WNW,293,0.0,0.0,49,0.00,,,0.00,WUHU216HW,2013-03-02 11:37:00,
2013-03-02 06:38:00,40.2,22.5,29.83,WNW,293,0.0,0.0,49,0.00,,,0.00,WUHU216HW,2013-03-02 11:38:00,
2013-03-02 06:39:00,40.2,22.5,29.83,WNW,293,0.0,0.0,48,0.00,,,0.00,WUHU216HW,2013-03-02 11:39:00,
2013-03-02 06:40:00,29.8,25.3,29.60,West,270,0.0,0.0,83,0.00,,,0.00,WUHU216HW,2013-03-02 11:40:00,
2013-03-02 06:41:00,40.2,22.5,29.83,West,270,0.0,0.0,49,0.00,,,0.00,WUHU216HW,2013-03-02 11:41:00,
2013-03-02 06:42:00,40.2,22.5,29.83,West,270,0.0,0.0,49,0.00,,,0.00,WUHU216HW,2013-03-02 11:42:00,
2013-03-02 06:44:00,40.1,22.3,29.83,WNW,293,0.0,0.0,49,0.00,,,0.00,WUHU216HW,2013-03-02 11:44:00,
2013-03-02 06:45:00,29.8,25.3,29.60,West,270,0.0,0.0,83,0.00,,,0.00,WUHU216HW,2013-03-02 11:45:00,
2013-03-02 06:46:00,39.9,22.2,29.83,WNW,293,0.8,0.8,49,0.00,,,0.00,WUHU216HW,2013-03-02 11:46:00,
2013-03-02 06:47:00,39.9,22.2,29.83,WNW,293,0.8,0.8,49,0.00,,,0.00,WUHU216HW,2013-03-02 11:47:00,
2013-03-02 06:48:00,39.9,22.2,29.83,West,270,0.0,0.8,50,0.00,,,0.00,WUHU216HW,2013-03-02 11:48:00,
2013-03-02 06:50:00,29.8,25.3,29.60,West,270,0.0,0.0,83,0.00,,,0.00,WUHU216HW,2013-03-02 11:50:00,
2013-03-02 06:51:00,39.7,22.5,29.83,NW,315,0.0,3.5,50,0.00,,,0.00,WUHU216HW,2013-03-02 11:51:00,
2013-03-02 06:53:00,39.7,22.5,29.84,NW,315,0.0,3.5,50,0.00,,,0.00,WUHU216HW,2013-03-02 11:53:00,
2013-03-02 06:54:00,39.7,22.5,29.84,WNW,293,0.0,3.5,50,0.00,,,0.00,WUHU216HW,2013-03-02 11:54:00,
2013-03-02 06:55:00,29.8,25.3,29.61,West,270,0.0,0.0,83,0.00,,,0.00,WUHU216HW,2013-03-02 11:55:00,
2013-03-02 06:56:00,39.7,22.5,29.84,WNW,293,0.0,3.5,50,0.00,,,0.00,WUHU216HW,2013-03-02 11:56:00,
2013-03-02 06:57:00,39.7,22.5,29.84,WNW,293,0.0,3.5,50,0.00,,,0.00,WUHU216HW,2013-03-02 11:57:00,
2013-03-02 06:58:00,39.5,22.4,29.84,WNW,293,0.0,3.5,50,0.00,,,0.00,WUHU216HW,2013-03-02 11:58:00,
2013-03-02 06:59:00,39.5,22.4,29.84,WNW,293,0.0,3.5,50,0.00,,,0.00,WUHU216HW,2013-03-02 11:59:00,
2013-03-02 07:00:00,30.0,25.4,29.61,West,270,0.0,0.0,83,0.00,,,0.00,WUHU216HW,2013-03-02 12:00:00,
2013-03-02 07:01:00,39.5,22.4,29.84,WNW,293,0.0,3.5,50,0.00,,,0.00,WUHU216HW,2013-03-02 12:01:00,
2013-03-02 07:02:00,39.5,22.4,29.84,WNW,293,0.0,0.0,50,0.00,,,0.00,WUHU216HW,2013-03-02 12:02:00,
2013-03-02 07:03:00,39.3,22.2,29.84,WNW,293,0.0,0.0,50,0.00,,,0.00,WUHU216HW,2013-03-02 12:03:00,
2013-03-02 07:04:00,39.3,22.2,29.84,WNW,293,0.0,0.0,50,0.00,,,0.00,WUHU216HW,2013-03-02 12:04:00,
2013-03-02 07:05:00,39.3,22.2,29.84,ESE,113,0.0,0.0,51,0.00,,,0.00,WUHU216HW,2013-03-02 12:05:00,
2013-03-02 07:06:00,30.0,25.4,29.61,West,270,0.0,0.0,83,0.00,,,0.00,WUHU216HW,2013-03-02 12:06:00,
2013-03-02 07:07:00,39.3,22.2,29.84,West,270,0.0,0.0,51,0.00,,,0.00,WUHU216HW,2013-03-02 12:07:00,
2013-03-02 07:08:00,39.3,22.2,29.84,West,270,0.0,0.0,51,0.00,,,0.00,WUHU216HW,2013-03-02 12:08:00,
2013-03-02 07:09:00,39.3,22.2,29.84,West,270,0.0,0.0,51,0.00,,,0.00,WUHU216HW,2013-03-02 12:09:00,
2013-03-02 07:10:00,39.3,22.2,29.84,West,270,0.0,0.0,51,0.00,,,0.00,WUHU216HW,2013-03-02 12:10:00,
2013-03-02 07:11:00,30.3,25.8,29.61,West,270,0.0,0.0,83,0.00,,,0.00,WUHU216HW,2013-03-02 12:11:00,
2013-03-02 07:12:00,39.0,22.3,29.84,West,270,0.0,0.0,51,0.00,,,0.00,WUHU216HW,2013-03-02 12:12:00,
2013-03-02 07:13:00,39.0,22.3,29.84,WNW,293,0.0,0.0,50,0.00,,,0.00,WUHU216HW,2013-03-02 12:13:00,
2013-03-02 07:14:00,39.0,22.3,29.84,WNW,293,0.0,0.0,50,0.00,,,0.00,WUHU216HW,2013-03-02 12:14:00,
2013-03-02 07:15:00,39.0,22.3,29.84,WNW,293,0.0,0.0,50,0.00,,,0.00,WUHU216HW,2013-03-02 12:15:00,
2013-03-02 07:16:00,38.8,21.7,29.84,WNW,293,0.0,0.0,50,0.00,,,0.00,WUHU216HW,2013-03-02 12:16:00,
2013-03-02 07:17:00,30.3,25.8,29.60,West,270,0.0,0.0,84,0.00,,,0.00,WUHU216HW,2013-03-02 12:17:00,
2013-03-02 07:18:00,38.8,21.7,29.84,WSW,248,0.0,0.0,51,0.00,,,0.00,WUHU216HW,2013-03-02 12:18:00,
2013-03-02 07:19:00,38.8,21.7,29.84,WSW,248,0.0,0.0,51,0.00,,,0.00,WUHU216HW,2013-03-02 12:19:00,
2013-03-02 07:20:00,38.8,21.7,29.84,NW,315,4.2,4.2,50,0.00,,,0.00,WUHU216HW,2013-03-02 12:20:00,
2013-03-02 07:21:00,38.8,21.7,29.85,NW,315,4.2,4.2,50,0.00,,,0.00,WUHU216HW,2013-03-02 12:21:00,
2013-03-02 07:22:00,30.7,26.4,29.60,West,270,0.0,0.0,84,0.00,,,0.00,WUHU216HW,2013-03-02 12:22:00,
2013-03-02 07:23:00,38.6,21.6,29.84,WNW,293,0.0,4.2,50,0.00,,,0.00,WUHU216HW,2013-03-02 12:23:00,
2013-03-02 07:24:00,38.4,21.4,29.85,WNW,293,0.0,4.2,50,0.00,,,0.00,WUHU216HW,2013-03-02 12:24:00,
2013-03-02 07:25:00,38.4,21.4,29.85,WNW,293,0.0,4.2,50,0.00,,,0.00,WUHU216HW,2013-03-02 12:25:00,
2013-03-02 07:26:00,38.4,21.4,29.85,West,270,0.0,4.2,49,0.00,,,0.00,WUHU216HW,2013-03-02 12:26:00,
2013-03-02 07:27:00,30.7,26.4,29.60,West,270,0.0,0.0,84,0.00,,,0.00,WUHU216HW,2013-03-02 12:27:00,
2013-03-02 07:28:00,38.3,21.2,29.85,WNW,293,0.0,4.2,50,0.00,,,0.00,WUHU216HW,2013-03-02 12:28:00,
2013-03-02 07:29:00,38.3,21.2,29.85,WNW,293,0.0,4.2,50,0.00,,,0.00,WUHU216HW,2013-03-02 12:29:00,
2013-03-02 07:30:00,38.3,21.2,29.85,WNW,293,3.1,4.2,50,0.00,,,0.00,WUHU216HW,2013-03-02 12:30:00,
2013-03-02 07:31:00,38.3,21.2,29.85,WNW,293,3.1,4.2,50,0.00,,,0.00,WUHU216HW,2013-03-02 12:31:00,
2013-03-02 07:32:00,30.9,26.6,29.60,West,270,0.0,0.0,84,0.00,,,0.00,WUHU216HW,2013-03-02 12:32:00,
2013-03-02 07:33:00,38.1,21.1,29.85,WSW,248,0.0,3.1,50,0.00,,,0.00,WUHU216HW,2013-03-02 12:33:00,
2013-03-02 07:34:00,38.1,21.1,29.85,WSW,248,0.0,3.1,50,0.00,,,0.00,WUHU216HW,2013-03-02 12:34:00,
2013-03-02 07:35:00,38.1,21.1,29.85,WSW,248,0.0,3.1,50,0.00,,,0.00,WUHU216HW,2013-03-02 12:35:00,
2013-03-02 07:36:00,38.1,21.1,29.85,WSW,248,0.0,3.1,50,0.00,,,0.00,WUHU216HW,2013-03-02 12:36:00,
2013-03-02 07:37:00,31.1,26.8,29.60,West,270,0.0,0.0,84,0.00,,,0.00,WUHU216HW,2013-03-02 12:37:00,
2013-03-02 07:38:00,38.1,21.1,29.85,West,270,0.0,3.1,50,0.00,,,0.00,WUHU216HW,2013-03-02 12:38:00,
2013-03-02 07:39:00,37.9,20.9,29.85,West,270,0.0,3.1,50,0.00,,,0.00,WUHU216HW,2013-03-02 12:39:00,
2013-03-02 07:40:00,37.9,20.9,29.85,West,270,0.0,3.1,50,0.00,,,0.00,WUHU216HW,2013-03-02 12:40:00,
2013-03-02 07:41:00,37.9,20.9,29.85,NW,315,0.0,3.1,49,0.00,,,0.00,WUHU216HW,2013-03-02 12:41:00,
2013-03-02 07:42:00,37.9,20.9,29.85,NW,315,0.0,0.0,49,0.00,,,0.00,WUHU216HW,2013-03-02 12:42:00,
2013-03-02 07:43:00,37.7,20.2,29.85,WSW,248,0.0,0.0,49,0.00,,,0.00,WUHU216HW,2013-03-02 12:43:00,
2013-03-02 07:44:00,31.4,27.2,29.60,West,270,0.0,0.0,84,0.00,,,0.00,WUHU216HW,2013-03-02 12:44:00,
2013-03-02 07:45:00,37.7,20.2,29.85,WSW,248,0.0,0.0,49,0.00,,,0.00,WUHU216HW,2013-03-02 12:45:00,
2013-03-02 07:46:00,37.7,20.2,29.85,NNW,338,0.0,0.0,49,0.00,,,0.00,WUHU216HW,2013-03-02 12:46:00,
2013-03-02 07:48:00,37.5,20.6,29.85,NW,315,0.0,0.0,50,0.00,,,0.00,WUHU216HW,2013-03-02 12:48:00,
2013-03-02 07:49:00,31.8,27.5,29.61,West,270,0.0,0.0,84,0.00,,,0.00,WUHU216HW,2013-03-02 12:49:00,
2013-03-02 07:50:00,37.5,20.6,29.85,WNW,293,0.0,0.0,49,0.00,,,0.00,WUHU216HW,2013-03-02 12:50:00,
2013-03-02 07:51:00,37.5,20.6,29.85,WNW,293,0.0,0.0,49,0.00,,,0.00,WUHU216HW,2013-03-02 12:51:00,
2013-03-02 07:52:00,37.5,20.6,29.85,NNW,338,0.0,0.0,49,0.00,,,0.00,WUHU216HW,2013-03-02 12:52:00,
2013-03-02 07:53:00,37.5,20.6,29.86,NNW,338,0.0,0.0,49,0.00,,,0.00,WUHU216HW,2013-03-02 12:53:00,
2013-03-02 07:54:00,32.3,28.0,29.61,West,270,0.0,0.0,84,0.00,,,0.00,WUHU216HW,2013-03-02 12:54:00,
2013-03-02 07:55:00,37.5,20.6,29.86,NW,315,0.0,0.0,49,0.00,,,0.00,WUHU216HW,2013-03-02 12:55:00,
2013-03-02 07:56:00,37.2,20.3,29.86,NW,315,0.0,0.0,50,0.00,,,0.00,WUHU216HW,2013-03-02 12:56:00,
2013-03-02 07:57:00,37.2,20.3,29.86,NW,315,0.0,0.0,50,0.00,,,0.00,WUHU216HW,2013-03-02 12:57:00,
2013-03-02 07:58:00,37.2,20.3,29.86,NW,315,0.0,0.0,49,0.00,,,0.00,WUHU216HW,2013-03-02 12:58:00,
2013-03-02 07:59:00,32.5,28.2,29.61,West,270,0.0,0.0,84,0.00,,,0.00,WUHU216HW,2013-03-02 12:59:00,
2013-03-02 08:00:00,37.2,20.3,29.86,NW,315,0.0,0.0,49,0.00,,,0.00,WUHU216HW,2013-03-02 13:00:00,
2013-03-02 08:01:00,37.2,20.3,29.86,WNW,293,0.0,0.0,49,0.00,,,0.00,WUHU216HW,2013-03-02 13:01:00,
2013-03-02 08:02:00,37.2,20.3,29.86,WNW,293,0.0,0.0,49,0.00,,,0.00,WUHU216HW,2013-03-02 13:02:00,
2013-03-02 08:03:00,37.2,20.3,29.86,WNW,293,0.0,0.0,50,0.00,,,0.00,WUHU216HW,2013-03-02 13:03:00,
2013-03-02 08:04:00,33.0,28.7,29.61,West,270,0.0,0.0,84,0.00,,,0.00,WUHU216HW,2013-03-02 13:04:00,
2013-03-02 08:05:00,37.2,20.3,29.85,NNW,338,0.0,0.0,51,0.00,,,0.00,WUHU216HW,2013-03-02 13:05:00,
2013-03-02 08:06:00,37.2,20.3,29.85,NNW,338,0.0,0.0,51,0.00,,,0.00,WUHU216HW,2013-03-02 13:06:00,
2013-03-02 08:07:00,37.2,20.3,29.86,NW,315,0.0,0.0,50,0.00,,,0.00,WUHU216HW,2013-03-02 13:07:00,
2013-03-02 08:08:00,37.2,20.3,29.86,NW,315,0.0,0.0,50,0.00,,,0.00,WUHU216HW,2013-03-02 13:08:00,
2013-03-02 08:09:00,37.2,20.3,29.86,NW,315,0.0,0.0,51,0.00,,,0.00,WUHU216HW,2013-03-02 13:09:00,
2013-03-02 08:10:00,33.4,29.0,29.61,West,270,0.0,0.0,84,0.00,,,0.00,WUHU216HW,2013-03-02 13:10:00,
2013-03-02 08:11:00,37.2,20.3,29.86,NW,315,0.0,0.0,51,0.00,,,0.00,WUHU216HW,2013-03-02 13:11:00,
2013-03-02 08:12:00,37.2,20.3,29.86,NW,315,0.0,0.0,51,0.00,,,0.00,WUHU216HW,2013-03-02 13:12:00,
2013-03-02 08:13:00,37.2,20.3,29.85,NW,315,0.0,0.0,51,0.00,,,0.00,WUHU216HW,2013-03-02 13:13:00,
2013-03-02 08:14:00,37.2,20.3,29.85,NW,315,0.0,0.0,51,0.00,,,0.00,WUHU216HW,2013-03-02 13:14:00,
2013-03-02 08:15:00,33.9,29.5,29.61,West,270,0.0,0.0,84,0.00,,,0.00,WUHU216HW,2013-03-02 13:15:00,
2013-03-02 08:16:00,37.2,20.3,29.86,East,90,0.0,0.0,50,0.00,,,0.00,WUHU216HW,2013-03-02 13:16:00,
2013-03-02 08:17:00,37.2,20.3,29.86,East,90,0.0,0.0,50,0.00,,,0.00,WUHU216HW,2013-03-02 13:17:00,
2013-03-02 08:18:00,37.0,20.5,29.86,East,90,0.0,0.0,51,0.00,,,0.00,WUHU216HW,2013-03-02 13:18:00,
2013-03-02 08:19:00,37.0,20.5,29.86,East,90,0.0,0.0,51,0.00,,,0.00,WUHU216HW,2013-03-02 13:19:00,
2013-03-02 08:20:00,34.3,29.9,29.61,West,270,0.0,0.0,84,0.00,,,0.00,WUHU216HW,2013-03-02 13:20:00,
2013-03-02 08:21:00,37.0,20.5,29.87,NW,315,0.0,0.0,50,0.00,,,0.00,WUHU216HW,2013-03-02 13:21:00,
2013-03-02 08:22:00,37.0,20.5,29.87,NW,315,0.0,0.0,50,0.00,,,0.00,WUHU216HW,2013-03-02 13:22:00,
2013-03-02 08:23:00,37.0,20.5,29.87,NW,315,0.0,0.0,50,0.00,,,0.00,WUHU216HW,2013-03-02 13:23:00,
2013-03-02 08:24:00,37.0,20.5,29.87,NW,315,0.0,0.0,51,0.00,,,0.00,WUHU216HW,2013-03-02 13:24:00,
2013-03-02 08:25:00,34.5,29.8,29.61,West,270,0.0,0.0,83,0.00,,,0.00,WUHU216HW,2013-03-02 13:25:00,
2013-03-02 08:26:00,37.0,20.5,29.86,NW,315,0.0,0.0,51,0.00,,,0.00,WUHU216HW,2013-03-02 13:26:00,
2013-03-02 08:27:00,37.0,20.5,29.86,NW,315,0.0,0.0,51,0.00,,,0.00,WUHU216HW,2013-03-02 13:27:00,
2013-03-02 08:28:00,37.0,20.5,29.86,NW,315,0.0,0.0,51,0.00,,,0.00,WUHU216HW,2013-03-02 13:28:00,
2013-03-02 08:29:00,36.6,20.2,29.86,NW,315,0.0,0.0,51,0.00,,,0.00,WUHU216HW,2013-03-02 13:29:00,
2013-03-02 08:30:00,34.8,29.8,29.61,West,270,0.0,0.0,82,0.00,,,0.00,WUHU216HW,2013-03-02 13:30:00,
2013-03-02 08:31:00,36.6,20.2,29.86,NW,315,0.0,0.0,51,0.00,,,0.00,WUHU216HW,2013-03-02 13:31:00,
2013-03-02 08:32:00,36.6,20.2,29.86,NW,315,0.0,0.0,51,0.00,,,0.00,WUHU216HW,2013-03-02 13:32:00,
2013-03-02 08:33:00,36.6,20.2,29.86,NW,315,0.0,0.0,51,0.00,,,0.00,WUHU216HW,2013-03-02 13:33:00,
2013-03-02 08:34:00,36.6,20.2,29.86,NW,315,0.0,0.0,51,0.00,,,0.00,WUHU216HW,2013-03-02 13:34:00,
2013-03-02 08:35:00,35.2,29.9,29.61,West,270,0.0,0.0,81,0.00,,,0.00,WUHU216HW,2013-03-02 13:35:00,
2013-03-02 08:36:00,36.6,20.2,29.86,NW,315,0.0,0.0,51,0.00,,,0.00,WUHU216HW,2013-03-02 13:36:00,
2013-03-02 08:37:00,36.6,20.2,29.87,WNW,293,0.0,0.0,51,0.00,,,0.00,WUHU216HW,2013-03-02 13:37:00,
2013-03-02 08:38:00,36.6,20.2,29.86,WNW,293,0.0,0.0,51,0.00,,,0.00,WUHU216HW,2013-03-02 13:38:00,
2013-03-02 08:39:00,36.5,19.6,29.87,WNW,293,0.0,0.0,50,0.00,,,0.00,WUHU216HW,2013-03-02 13:39:00,
2013-03-02 08:40:00,35.7,30.4,29.61,West,270,0.0,0.0,81,0.00,,,0.00,WUHU216HW,2013-03-02 13:40:00,
2013-03-02 08:41:00,36.5,19.6,29.86,WNW,293,0.0,0.0,50,0.00,,,0.00,WUHU216HW,2013-03-02 13:41:00,
2013-03-02 08:42:00,36.5,19.6,29.87,WNW,293,0.0,0.0,50,0.00,,,0.00,WUHU216HW,2013-03-02 13:42:00,
2013-03-02 08:43:00,36.5,19.6,29.87,WNW,293,0.0,0.0,50,0.00,,,0.00,WUHU216HW,2013-03-02 13:43:00,
2013-03-02 08:44:00,36.5,19.6,29.87,WNW,293,2.2,2.2,50,0.00,,,0.00,WUHU216HW,2013-03-02 13:44:00,
2013-03-02 08:45:00,36.3,30.7,29.61,West,270,0.0,0.0,80,0.00,,,0.00,WUHU216HW,2013-03-02 13:45:00,
2013-03-02 08:46:00,36.3,19.5,29.87,NW,315,0.0,2.2,50,0.00,,,0.00,WUHU216HW,2013-03-02 13:46:00,
2013-03-02 08:47:00,36.3,19.5,29.87,WNW,293,3.8,3.8,50,0.00,,,0.00,WUHU216HW,2013-03-02 13:47:00,
2013-03-02 08:48:00,36.3,19.5,29.87,WNW,293,0.0,3.8,50,0.00,,,0.00,WUHU216HW,2013-03-02 13:48:00,
2013-03-02 08:49:00,36.3,19.5,29.87,WNW,293,0.0,3.8,50,0.00,,,0.00,WUHU216HW,2013-03-02 13:49:00,
2013-03-02 08:50:00,36.6,30.7,29.61,West,270,0.0,0.0,79,0.00,,,0.00,WUHU216HW,2013-03-02 13:50:00,
2013-03-02 08:51:00,36.3,19.5,29.87,WNW,293,0.0,3.8,50,0.00,,,0.00,WUHU216HW,2013-03-02 13:51:00,
2013-03-02 08:52:00,36.3,19.5,29.87,WNW,293,0.0,3.8,50,0.00,,,0.00,WUHU216HW,2013-03-02 13:52:00,
2013-03-02 08:53:00,36.3,19.5,29.87,WNW,293,0.0,3.8,50,0.00,,,0.00,WUHU216HW,2013-03-02 13:53:00,
2013-03-02 08:54:00,36.3,19.5,29.87,WNW,293,0.0,3.8,50,0.00,,,0.00,WUHU216HW,2013-03-02 13:54:00,
2013-03-02 08:55:00,37.0,30.4,29.61,West,270,0.0,0.0,77,0.00,,,0.00,WUHU216HW,2013-03-02 13:55:00,
2013-03-02 08:56:00,36.3,19.5,29.87,WNW,293,0.0,3.8,50,0.00,,,0.00,WUHU216HW,2013-03-02 13:56:00,
2013-03-02 08:57:00,36.1,19.7,29.87,WNW,293,0.0,3.8,51,0.00,,,0.00,WUHU216HW,2013-03-02 13:57:00,
2013-03-02 08:58:00,36.1,19.7,29.87,WNW,293,0.0,0.8,51,0.00,,,0.00,WUHU216HW,2013-03-02 13:58:00,
2013-03-02 08:59:00,36.1,19.7,29.87,WNW,293,0.0,0.0,51,0.00,,,0.00,WUHU216HW,2013-03-02 13:59:00,
2013-03-02 09:00:00,37.5,30.3,29.61,West,270,0.0,0.0,75,0.00,,,0.00,WUHU216HW,2013-03-02 14:00:00,
2013-03-02 09:05:00,37.9,30.7,29.61,West,270,0.0,0.0,75,0.00,,,0.00,WUHU216HW,2013-03-02 14:05:00,
2013-03-02 09:07:00,36.1,19.7,29.87,WNW,293,0.0,0.0,51,0.00,,,0.00,WUHU216HW,2013-03-02 14:07:00,
2013-03-02 09:08:00,36.1,19.7,29.87,WNW,293,0.0,0.0,51,0.00,,,0.00,WUHU216HW,2013-03-02 14:08:00,
2013-03-02 09:09:00,36.1,19.7,29.87,WNW,293,0.0,0.0,51,0.00,,,0.00,WUHU216HW,2013-03-02 14:09:00,
2013-03-02 09:10:00,36.1,19.7,29.87,WNW,293,0.0,0.0,51,0.00,,,0.00,WUHU216HW,2013-03-02 14:10:00,
2013-03-02 09:11:00,38.1,30.2,29.61,West,270,0.0,0.0,73,0.00,,,0.00,WUHU216HW,2013-03-02 14:11:00,
2013-03-02 09:12:00,35.9,19.6,29.87,West,270,0.0,0.0,51,0.00,,,0.00,WUHU216HW,2013-03-02 14:12:00,
2013-03-02 09:13:00,35.9,19.6,29.87,West,270,0.0,0.0,51,0.00,,,0.00,WUHU216HW,2013-03-02 14:13:00,
2013-03-02 09:14:00,35.9,19.6,29.87,West,270,0.0,0.0,51,0.00,,,0.00,WUHU216HW,2013-03-02 14:14:00,
2013-03-02 09:15:00,35.9,19.6,29.87,West,270,0.0,0.0,51,0.00,,,0.00,WUHU216HW,2013-03-02 14:15:00,
2013-03-02 09:16:00,38.6,30.7,29.61,West,270,0.0,0.0,73,0.00,,,0.00,WUHU216HW,2013-03-02 14:16:00,
2013-03-02 09:17:00,35.9,19.6,29.87,NNW,338,0.0,0.0,52,0.00,,,0.00,WUHU216HW,2013-03-02 14:17:00,
2013-03-02 09:18:00,35.9,19.6,29.87,NNW,338,0.0,0.0,52,0.00,,,0.00,WUHU216HW,2013-03-02 14:18:00,
2013-03-02 09:19:00,35.9,19.6,29.87,WNW,293,0.0,0.0,51,0.00,,,0.00,WUHU216HW,2013-03-02 14:19:00,
2013-03-02 09:20:00,35.9,19.6,29.87,WNW,293,0.0,0.0,51,0.00,,,0.00,WUHU216HW,2013-03-02 14:20:00,
2013-03-02 09:21:00,39.2,30.8,29.60,West,270,0.0,0.0,72,0.00,,,0.00,WUHU216HW,2013-03-02 14:21:00,
2013-03-02 09:22:00,35.9,19.6,29.87,WNW,293,0.0,0.0,50,0.00,,,0.00,WUHU216HW,2013-03-02 14:22:00,
2013-03-02 09:23:00,35.7,19.4,29.87,WNW,293,0.0,0.0,51,0.00,,,0.00,WUHU216HW,2013-03-02 14:23:00,
2013-03-02 09:24:00,35.7,19.4,29.87,WNW,293,0.0,0.0,51,0.00,,,0.00,WUHU216HW,2013-03-02 14:24:00,
2013-03-02 09:25:00,35.7,19.4,29.87,WNW,293,0.0,0.0,51,0.00,,,0.00,WUHU216HW,2013-03-02 14:25:00,
2013-03-02 09:26:00,39.7,31.0,29.60,West,270,0.0,0.0,71,0.00,,,0.00,WUHU216HW,2013-03-02 14:26:00,
2013-03-02 09:27:00,35.7,19.4,29.87,WNW,293,0.0,0.0,51,0.00,,,0.00,WUHU216HW,2013-03-02 14:27:00,
2013-03-02 09:28:00,35.7,19.4,29.87,WNW,293,0.0,0.0,51,0.00,,,0.00,WUHU216HW,2013-03-02 14:28:00,
2013-03-02 09:29:00,35.7,19.4,29.87,WNW,293,0.0,0.0,51,0.00,,,0.00,WUHU216HW,2013-03-02 14:29:00,
2013-03-02 09:30:00,35.7,19.4,29.87,WNW,293,0.0,0.0,51,0.00,,,0.00,WUHU216HW,2013-03-02 14:30:00,
2013-03-02 09:31:00,40.1,30.7,29.60,West,270,0.0,0.0,69,0.00,,,0.00,WUHU216HW,2013-03-02 14:31:00,
2013-03-02 09:32:00,35.7,19.4,29.87,WNW,293,0.0,0.0,51,0.00,,,0.00,WUHU216HW,2013-03-02 14:32:00,
2013-03-02 09:33:00,35.7,19.4,29.87,WNW,293,0.0,0.0,51,0.00,,,0.00,WUHU216HW,2013-03-02 14:33:00,
2013-03-02 09:34:00,35.7,19.4,29.87,WNW,293,0.0,0.0,51,0.00,,,0.00,WUHU216HW,2013-03-02 14:34:00,
2013-03-02 09:35:00,35.7,19.4,29.87,WNW,293,0.0,0.0,51,0.00,,,0.00,WUHU216HW,2013-03-02 14:35:00,
2013-03-02 09:36:00,40.6,30.5,29.60,West,270,0.0,0.0,67,0.00,,,0.00,WUHU216HW,2013-03-02 14:36:00,
2013-03-02 09:37:00,35.6,19.2,29.87,WNW,293,0.0,0.0,51,0.00,,,0.00,WUHU216HW,2013-03-02 14:37:00,
2013-03-02 09:38:00,35.6,19.2,29.87,WNW,293,0.0,0.0,51,0.00,,,0.00,WUHU216HW,2013-03-02 14:38:00,
2013-03-02 09:39:00,35.6,19.2,29.87,WNW,293,0.0,0.0,51,0.00,,,0.00,WUHU216HW,2013-03-02 14:39:00,
2013-03-02 09:40:00,35.4,19.1,29.87,WNW,293,0.0,0.0,51,0.00,,,0.00,WUHU216HW,2013-03-02 14:40:00,
2013-03-02 09:41:00,40.8,29.9,29.59,NNE,23,0.0,0.0,65,0.00,,,0.00,WUHU216HW,2013-03-02 14:41:00,
2013-03-02 09:42:00,35.4,19.1,29.87,WNW,293,0.0,0.0,51,0.00,,,0.00,WUHU216HW,2013-03-02 14:42:00,
2013-03-02 09:43:00,35.4,19.1,29.87,WNW,293,2.9,2.9,51,0.00,,,0.00,WUHU216HW,2013-03-02 14:43:00,
2013-03-02 09:44:00,35.4,19.1,29.87,WNW,293,2.9,2.9,51,0.00,,,0.00,WUHU216HW,2013-03-02 14:44:00,
2013-03-02 09:45:00,35.4,19.1,29.87,WNW,293,0.0,2.9,51,0.00,,,0.00,WUHU216HW,2013-03-02 14:45:00,
2013-03-02 09:46:00,41.3,30.0,29.59,North,0,0.0,0.0,64,0.00,,,0.00,WUHU216HW,2013-03-02 14:46:00,
2013-03-02 09:47:00,35.2,19.3,29.87,WNW,293,0.0,2.9,52,0.00,,,0.00,WUHU216HW,2013-03-02 14:47:00,
2013-03-02 09:48:00,35.2,19.3,29.87,WNW,293,0.0,2.9,52,0.00,,,0.00,WUHU216HW,2013-03-02 14:48:00,
2013-03-02 09:49:00,35.2,19.3,29.87,WNW,293,0.0,2.9,52,0.00,,,0.00,WUHU216HW,2013-03-02 14:49:00,
2013-03-02 09:50:00,35.2,19.3,29.87,WNW,293,0.0,2.9,52,0.00,,,0.00,WUHU216HW,2013-03-02 14:50:00,
2013-03-02 09:51:00,41.7,30.0,29.59,NE,45,0.0,0.0,63,0.00,,,0.00,WUHU216HW,2013-03-02 14:51:00,
2013-03-02 09:52:00,35.2,19.3,29.87,NW,315,0.0,2.9,52,0.00,,,0.00,WUHU216HW,2013-03-02 14:52:00,
2013-03-02 09:53:00,35.2,19.3,29.87,NW,315,0.0,2.9,52,0.00,,,0.00,WUHU216HW,2013-03-02 14:53:00,
2013-03-02 09:54:00,35.2,19.3,29.87,NW,315,0.0,2.9,52,0.00,,,0.00,WUHU216HW,2013-03-02 14:54:00,
2013-03-02 09:55:00,35.2,19.3,29.87,NW,315,0.0,0.0,52,0.00,,,0.00,WUHU216HW,2013-03-02 14:55:00,
2013-03-02 09:56:00,42.0,29.9,29.59,NNW,338,0.0,0.0,62,0.00,,,0.00,WUHU216HW,2013-03-02 14:56:00,
2013-03-02 09:57:00,35.2,19.3,29.87,NW,315,0.0,0.0,52,0.00,,,0.00,WUHU216HW,2013-03-02 14:57:00,
2013-03-02 09:58:00,35.2,19.3,29.87,NW,315,0.0,0.0,52,0.00,,,0.00,WUHU216HW,2013-03-02 14:58:00,
2013-03-02 09:59:00,35.2,19.3,29.87,NW,315,0.0,0.0,52,0.00,,,0.00,WUHU216HW,2013-03-02 14:59:00,
2013-03-02 10:00:00,35.2,19.3,29.87,NW,315,0.0,0.0,52,0.00,,,0.00,WUHU216HW,2013-03-02 15:00:00,
2013-03-02 10:01:00,42.4,30.3,29.59,NW,315,0.0,0.0,61,0.00,,,0.00,WUHU216HW,2013-03-02 15:01:00,
2013-03-02 10:02:00,35.2,19.3,29.87,NW,315,0.0,0.0,53,0.00,,,0.00,WUHU216HW,2013-03-02 15:02:00,
2013-03-02 10:03:00,35.2,19.3,29.87,NW,315,0.0,0.0,53,0.00,,,0.00,WUHU216HW,2013-03-02 15:03:00,
2013-03-02 10:06:00,42.9,29.1,29.59,North,0,0.0,0.0,58,0.00,,,0.00,WUHU216HW,2013-03-02 15:06:00,
2013-03-02 10:07:00,34.8,19.4,29.87,NW,315,0.0,0.0,53,0.00,,,0.00,WUHU216HW,2013-03-02 15:07:00,
2013-03-02 10:08:00,34.8,19.4,29.87,NW,315,0.0,0.0,53,0.00,,,0.00,WUHU216HW,2013-03-02 15:08:00,
2013-03-02 10:09:00,34.8,19.4,29.87,NW,315,0.0,0.0,53,0.00,,,0.00,WUHU216HW,2013-03-02 15:09:00,
2013-03-02 10:10:00,34.8,19.4,29.87,NW,315,0.0,0.0,53,0.00,,,0.00,WUHU216HW,2013-03-02 15:10:00,
2013-03-02 10:11:00,44.2,29.9,29.59,NNW,338,0.0,0.0,57,0.00,,,0.00,WUHU216HW,2013-03-02 15:11:00,
2013-03-02 10:16:00,44.2,29.9,29.59,NE,45,0.0,0.0,56,0.00,,,0.00,WUHU216HW,2013-03-02 15:16:00,
2013-03-02 10:21:00,34.8,19.4,29.87,NW,315,0.0,0.0,54,0.00,,,0.00,WUHU216HW,2013-03-02 15:21:00,
2013-03-02 10:22:00,44.7,29.5,29.59,NNW,338,0.0,0.0,55,0.00,,,0.00,WUHU216HW,2013-03-02 15:22:00,
2013-03-02 10:23:00,34.8,19.4,29.87,NW,315,0.0,0.0,54,0.00,,,0.00,WUHU216HW,2013-03-02 15:23:00,
2013-03-02 10:24:00,34.7,19.6,29.87,NW,315,0.0,0.0,54,0.00,,,0.00,WUHU216HW,2013-03-02 15:24:00,
2013-03-02 10:26:00,34.7,19.6,29.87,NW,315,0.0,0.0,54,0.00,,,0.00,WUHU216HW,2013-03-02 15:26:00,
2013-03-02 10:27:00,44.4,28.7,29.59,NNW,338,0.0,0.0,54,0.00,,,0.00,WUHU216HW,2013-03-02 15:27:00,
2013-03-02 10:28:00,34.7,19.6,29.87,NW,315,0.0,0.0,54,0.00,,,0.00,WUHU216HW,2013-03-02 15:28:00,
2013-03-02 10:29:00,34.7,19.6,29.87,NW,315,0.0,0.0,54,0.00,,,0.00,WUHU216HW,2013-03-02 15:29:00,
2013-03-02 10:30:00,34.5,19.9,29.87,NW,315,0.0,0.0,55,0.00,,,0.00,WUHU216HW,2013-03-02 15:30:00,
2013-03-02 10:31:00,34.5,19.9,29.87,NW,315,0.0,0.0,55,0.00,,,0.00,WUHU216HW,2013-03-02 15:31:00,
2013-03-02 10:32:00,44.7,29.1,29.58,North,0,0.0,0.0,53,0.00,,,0.00,WUHU216HW,2013-03-02 15:32:00,
2013-03-02 10:33:00,34.5,19.9,29.87,NW,315,0.0,0.0,55,0.00,,,0.00,WUHU216HW,2013-03-02 15:33:00,
2013-03-02 10:34:00,34.5,19.9,29.87,NW,315,0.0,0.0,55,0.00,,,0.00,WUHU216HW,2013-03-02 15:34:00,
2013-03-02 10:35:00,34.5,19.9,29.87,NW,315,0.0,0.0,55,0.00,,,0.00,WUHU216HW,2013-03-02 15:35:00,
2013-03-02 10:36:00,34.5,19.9,29.88,NW,315,0.0,0.0,54,0.00,,,0.00,WUHU216HW,2013-03-02 15:36:00,
2013-03-02 10:37:00,44.9,27.9,29.58,West,270,0.0,0.0,52,0.00,,,0.00,WUHU216HW,2013-03-02 15:37:00,
2013-03-02 10:38:00,34.5,19.9,29.88,NW,315,0.0,0.0,54,0.00,,,0.00,WUHU216HW,2013-03-02 15:38:00,
2013-03-02 10:39:00,34.5,19.9,29.88,NW,315,0.0,0.0,55,0.00,,,0.00,WUHU216HW,2013-03-02 15:39:00,
2013-03-02 10:40:00,34.5,19.9,29.88,NW,315,0.0,0.0,55,0.00,,,0.00,WUHU216HW,2013-03-02 15:40:00,
2013-03-02 10:41:00,34.5,19.9,29.87,NW,315,0.0,0.0,55,0.00,,,0.00,WUHU216HW,2013-03-02 15:41:00,
2013-03-02 10:42:00,45.3,29.1,29.59,WNW,293,0.0,0.0,53,0.00,,,0.00,WUHU216HW,2013-03-02 15:42:00,
2013-03-02 10:43:00,34.5,19.9,29.87,NW,315,0.0,0.0,54,0.00,,,0.00,WUHU216HW,2013-03-02 15:43:00,
2013-03-02 10:44:00,34.5,19.9,29.87,NW,315,0.0,0.0,54,0.00,,,0.00,WUHU216HW,2013-03-02 15:44:00,
2013-03-02 10:45:00,34.5,19.9,29.87,NW,315,0.0,0.0,54,0.00,,,0.00,WUHU216HW,2013-03-02 15:45:00,
2013-03-02 10:46:00,34.5,19.9,29.87,NW,315,0.0,0.0,54,0.00,,,0.00,WUHU216HW,2013-03-02 15:46:00,
2013-03-02 10:47:00,45.3,29.1,29.59,WNW,293,0.0,0.0,51,0.00,,,0.00,WUHU216HW,2013-03-02 15:47:00,
2013-03-02 10:48:00,34.5,19.9,29.87,NW,315,0.0,0.0,55,0.00,,,0.00,WUHU216HW,2013-03-02 15:48:00,
2013-03-02 10:49:00,34.5,19.9,29.87,NW,315,0.0,0.0,55,0.00,,,0.00,WUHU216HW,2013-03-02 15:49:00,
2013-03-02 10:50:00,34.5,19.9,29.87,NW,315,0.0,0.0,55,0.00,,,0.00,WUHU216HW,2013-03-02 15:50:00,
2013-03-02 10:52:00,34.5,19.9,29.88,NW,315,0.0,0.0,56,0.00,,,0.00,WUHU216HW,2013-03-02 15:52:00,
2013-03-02 10:53:00,46.0,30.2,29.58,WNW,293,0.0,0.0,54,0.00,,,0.00,WUHU216HW,2013-03-02 15:53:00,
2013-03-02 10:54:00,34.5,19.9,29.88,NW,315,0.0,0.0,56,0.00,,,0.00,WUHU216HW,2013-03-02 15:54:00,
2013-03-02 10:55:00,34.5,19.9,29.88,NW,315,0.0,0.0,56,0.00,,,0.00,WUHU216HW,2013-03-02 15:55:00,
2013-03-02 10:56:00,34.3,20.1,29.88,NW,315,0.0,0.0,56,0.00,,,0.00,WUHU216HW,2013-03-02 15:56:00,
2013-03-02 10:57:00,34.3,20.1,29.88,NW,315,0.0,0.0,56,0.00,,,0.00,WUHU216HW,2013-03-02 15:57:00,
2013-03-02 10:58:00,34.1,19.5,29.87,NW,315,0.0,0.0,55,0.00,,,0.00,WUHU216HW,2013-03-02 15:58:00,
2013-03-02 10:59:00,46.2,29.5,29.59,NNE,23,0.0,0.0,52,0.00,,,0.00,WUHU216HW,2013-03-02 15:59:00,
2013-03-02 11:00:00,34.1,19.5,29.87,NW,315,0.0,0.0,56,0.00,,,0.00,WUHU216HW,2013-03-02 16:00:00,
2013-03-02 11:01:00,34.1,19.5,29.87,NW,315,0.0,0.0,56,0.00,,,0.00,WUHU216HW,2013-03-02 16:01:00,
2013-03-02 11:02:00,33.9,19.8,29.87,NW,315,0.0,0.0,56,0.00,,,0.00,WUHU216HW,2013-03-02 16:02:00,
2013-03-02 11:03:00,33.9,19.8,29.87,NW,315,0.0,0.0,56,0.00,,,0.00,WUHU216HW,2013-03-02 16:03:00,
2013-03-02 11:04:00,46.9,28.7,29.58,WNW,293,0.0,0.0,49,0.00,,,0.00,WUHU216HW,2013-03-02 16:04:00,
2013-03-02 11:05:00,33.9,19.8,29.87,NW,315,0.0,0.0,56,0.00,,,0.00,WUHU216HW,2013-03-02 16:05:00,
2013-03-02 11:06:00,33.9,19.8,29.87,NW,315,0.0,0.0,56,0.00,,,0.00,WUHU216HW,2013-03-02 16:06:00,
2013-03-02 11:07:00,33.9,19.8,29.87,NW,315,0.0,0.0,56,0.00,,,0.00,WUHU216HW,2013-03-02 16:07:00,
2013-03-02 11:08:00,33.9,19.8,29.87,NW,315,0.0,0.0,56,0.00,,,0.00,WUHU216HW,2013-03-02 16:08:00,
2013-03-02 11:09:00,47.4,29.7,29.58,NW,315,0.0,0.0,50,0.00,,,0.00,WUHU216HW,2013-03-02 16:09:00,
2013-03-02 11:10:00,33.9,19.8,29.87,NW,315,0.0,0.0,55,0.00,,,0.00,WUHU216HW,2013-03-02 16:10:00,
2013-03-02 11:11:00,33.9,19.8,29.87,NW,315,0.0,0.0,55,0.00,,,0.00,WUHU216HW,2013-03-02 16:11:00,
2013-03-02 11:12:00,33.9,19.8,29.87,NW,315,0.0,0.0,55,0.00,,,0.00,WUHU216HW,2013-03-02 16:12:00,
2013-03-02 11:13:00,33.9,19.8,29.87,NW,315,0.0,0.0,55,0.00,,,0.00,WUHU216HW,2013-03-02 16:13:00,
2013-03-02 11:14:00,48.5,31.6,29.58,WNW,293,0.0,0.0,52,0.00,,,0.00,WUHU216HW,2013-03-02 16:14:00,
2013-03-02 11:15:00,33.9,19.8,29.87,NW,315,0.0,0.0,55,0.00,,,0.00,WUHU216HW,2013-03-02 16:15:00,
2013-03-02 11:16:00,33.9,19.8,29.87,NW,315,0.0,0.0,55,0.00,,,0.00,WUHU216HW,2013-03-02 16:16:00,
2013-03-02 11:17:00,33.9,19.8,29.87,NW,315,0.0,0.0,56,0.00,,,0.00,WUHU216HW,2013-03-02 16:17:00,
2013-03-02 11:18:00,33.9,19.8,29.87,NW,315,0.0,0.0,56,0.00,,,0.00,WUHU216HW,2013-03-02 16:18:00,
2013-03-02 11:19:00,48.7,30.3,29.58,West,270,0.0,1.3,48,0.00,,,0.00,WUHU216HW,2013-03-02 16:19:00,
2013-03-02 11:20:00,33.6,19.4,29.87,NW,315,0.0,0.0,56,0.00,,,0.00,WUHU216HW,2013-03-02 16:20:00,
2013-03-02 11:21:00,33.6,19.4,29.87,NW,315,0.0,0.0,56,0.00,,,0.00,WUHU216HW,2013-03-02 16:21:00,
2013-03-02 11:22:00,33.8,19.6,29.87,NW,315,0.0,0.0,56,0.00,,,0.00,WUHU216HW,2013-03-02 16:22:00,
2013-03-02 11:23:00,33.8,19.6,29.87,NW,315,0.0,0.0,56,0.00,,,0.00,WUHU216HW,2013-03-02 16:23:00,
2013-03-02 11:24:00,48.5,30.1,29.58,West,270,0.0,1.3,48,0.00,,,0.00,WUHU216HW,2013-03-02 16:24:00,
2013-03-02 11:25:00,33.6,19.0,29.87,NW,315,0.0,0.0,55,0.00,,,0.00,WUHU216HW,2013-03-02 16:25:00,
2013-03-02 11:26:00,33.6,19.0,29.87,NW,315,0.0,0.0,55,0.00,,,0.00,WUHU216HW,2013-03-02 16:26:00,
2013-03-02 11:27:00,33.6,19.0,29.87,NW,315,0.0,0.0,55,0.00,,,0.00,WUHU216HW,2013-03-02 16:27:00,
2013-03-02 11:28:00,33.6,19.0,29.87,NW,315,0.0,0.0,55,0.00,,,0.00,WUHU216HW,2013-03-02 16:28:00,
2013-03-02 11:29:00,48.3,30.0,29.57,East,90,0.0,0.0,49,0.00,,,0.00,WUHU216HW,2013-03-02 16:29:00,
2013-03-02 11:30:00,33.6,19.0,29.87,NW,315,0.0,0.0,55,0.00,,,0.00,WUHU216HW,2013-03-02 16:30:00,
2013-03-02 11:31:00,33.6,19.0,29.87,NW,315,0.0,0.0,55,0.00,,,0.00,WUHU216HW,2013-03-02 16:31:00,
2013-03-02 11:32:00,33.6,19.0,29.87,NW,315,0.0,0.0,55,0.00,,,0.00,WUHU216HW,2013-03-02 16:32:00,
2013-03-02 11:33:00,33.6,19.0,29.87,NW,315,0.0,0.0,55,0.00,,,0.00,WUHU216HW,2013-03-02 16:33:00,
2013-03-02 11:34:00,48.3,30.0,29.57,WNW,293,0.0,0.0,50,0.00,,,0.00,WUHU216HW,2013-03-02 16:34:00,
2013-03-02 11:35:00,33.6,19.0,29.87,NW,315,0.0,0.0,56,0.00,,,0.00,WUHU216HW,2013-03-02 16:35:00,
2013-03-02 11:36:00,33.6,19.0,29.87,NW,315,0.0,0.0,55,0.00,,,0.00,WUHU216HW,2013-03-02 16:36:00,
2013-03-02 11:37:00,33.6,19.0,29.87,NW,315,0.0,0.0,55,0.00,,,0.00,WUHU216HW,2013-03-02 16:37:00,
2013-03-02 11:38:00,33.6,19.0,29.86,NW,315,0.0,0.0,55,0.00,,,0.00,WUHU216HW,2013-03-02 16:38:00,
2013-03-02 11:39:00,50.0,30.5,29.57,WNW,293,0.0,0.0,47,0.00,,,0.00,WUHU216HW,2013-03-02 16:39:00,
2013-03-02 11:40:00,33.6,19.0,29.87,NW,315,0.0,0.0,55,0.00,,,0.00,WUHU216HW,2013-03-02 16:40:00,
2013-03-02 11:41:00,33.6,19.0,29.87,NW,315,0.0,0.0,55,0.00,,,0.00,WUHU216HW,2013-03-02 16:41:00,
2013-03-02 11:42:00,33.6,19.0,29.87,NW,315,0.0,0.0,55,0.00,,,0.00,WUHU216HW,2013-03-02 16:42:00,
2013-03-02 11:43:00,33.6,19.0,29.87,NW,315,0.0,0.0,56,0.00,,,0.00,WUHU216HW,2013-03-02 16:43:00,
2013-03-02 11:44:00,50.1,29.5,29.56,NE,45,0.0,0.0,45,0.00,,,0.00,WUHU216HW,2013-03-02 16:44:00,
2013-03-02 11:45:00,33.4,18.8,29.87,NW,315,0.0,0.0,55,0.00,,,0.00,WUHU216HW,2013-03-02 16:45:00,
2013-03-02 11:46:00,33.4,18.8,29.87,NW,315,0.0,0.0,55,0.00,,,0.00,WUHU216HW,2013-03-02 16:46:00,
2013-03-02 11:47:00,33.4,18.8,29.86,NW,315,0.0,0.0,55,0.00,,,0.00,WUHU216HW,2013-03-02 16:47:00,
2013-03-02 11:48:00,33.4,18.8,29.87,NW,315,0.0,0.0,56,0.00,,,0.00,WUHU216HW,2013-03-02 16:48:00,
2013-03-02 11:49:00,48.9,29.4,29.56,NNE,23,0.0,0.0,47,0.00,,,0.00,WUHU216HW,2013-03-02 16:49:00,
2013-03-02 11:50:00,33.4,18.8,29.87,NW,315,0.0,0.0,56,0.00,,,0.00,WUHU216HW,2013-03-02 16:50:00,
2013-03-02 11:52:00,33.4,18.8,29.87,NW,315,0.0,0.0,57,0.00,,,0.00,WUHU216HW,2013-03-02 16:52:00,
2013-03-02 11:53:00,33.4,18.8,29.87,NW,315,0.0,0.0,57,0.00,,,0.00,WUHU216HW,2013-03-02 16:53:00,
2013-03-02 11:54:00,49.6,31.2,29.56,WSW,248,0.0,0.0,49,0.00,,,0.00,WUHU216HW,2013-03-02 16:54:00,
2013-03-02 11:55:00,33.4,18.8,29.87,NW,315,0.0,0.0,56,0.00,,,0.00,WUHU216HW,2013-03-02 16:55:00,
2013-03-02 11:56:00,33.4,18.8,29.87,NW,315,0.0,0.0,56,0.00,,,0.00,WUHU216HW,2013-03-02 16:56:00,
2013-03-02 11:57:00,33.4,18.8,29.87,NW,315,0.0,0.0,56,0.00,,,0.00,WUHU216HW,2013-03-02 16:57:00,
2013-03-02 11:58:00,33.4,18.8,29.87,NW,315,0.0,0.0,57,0.00,,,0.00,WUHU216HW,2013-03-02 16:58:00,
2013-03-02 11:59:00,49.6,31.2,29.56,WSW,248,0.0,0.0,48,0.00,,,0.00,WUHU216HW,2013-03-02 16:59:00,
2013-03-02 12:00:00,33.2,19.6,29.87,NW,315,0.0,0.0,57,0.00,,,0.00,WUHU216HW,2013-03-02 17:00:00,
2013-03-02 12:01:00,33.2,19.6,29.87,NW,315,0.0,0.0,57,0.00,,,0.00,WUHU216HW,2013-03-02 17:01:00,
2013-03-02 12:02:00,33.2,19.6,29.87,NW,315,0.0,0.0,57,0.00,,,0.00,WUHU216HW,2013-03-02 17:02:00,
2013-03-02 12:03:00,33.0,19.4,29.87,NW,315,0.0,0.0,57,0.00,,,0.00,WUHU216HW,2013-03-02 17:03:00,
2013-03-02 12:04:00,33.0,19.4,29.87,NW,315,0.0,0.0,57,0.00,,,0.00,WUHU216HW,2013-03-02 17:04:00,
2013-03-02 12:05:00,49.6,31.2,29.56,WSW,248,0.0,0.0,49,0.00,,,0.00,WUHU216HW,2013-03-02 17:05:00,
2013-03-02 12:06:00,33.0,19.4,29.87,NW,315,0.0,0.0,57,0.00,,,0.00,WUHU216HW,2013-03-02 17:06:00,
2013-03-02 12:07:00,33.0,19.4,29.87,NW,315,0.0,0.0,57,0.00,,,0.00,WUHU216HW,2013-03-02 17:07:00,
2013-03-02 12:08:00,33.0,19.4,29.87,NW,315,0.0,0.0,57,0.00,,,0.00,WUHU216HW,2013-03-02 17:08:00,
2013-03-02 12:09:00,33.0,19.4,29.87,NW,315,0.0,0.0,56,0.00,,,0.00,WUHU216HW,2013-03-02 17:09:00,
2013-03-02 12:10:00,50.1,31.7,29.56,NNE,23,0.0,2.6,49,0.00,,,0.00,WUHU216HW,2013-03-02 17:10:00,
2013-03-02 12:11:00,33.0,19.4,29.87,NW,315,0.0,0.0,56,0.00,,,0.00,WUHU216HW,2013-03-02 17:11:00,
2013-03-02 12:12:00,33.0,19.4,29.87,NW,315,0.0,0.0,56,0.00,,,0.00,WUHU216HW,2013-03-02 17:12:00,
2013-03-02 12:13:00,32.9,19.2,29.87,North,0,0.0,0.0,57,0.00,,,0.00,WUHU216HW,2013-03-02 17:13:00,
2013-03-02 12:14:00,32.9,19.2,29.87,North,0,0.0,0.0,57,0.00,,,0.00,WUHU216HW,2013-03-02 17:14:00,
2013-03-02 12:15:00,51.0,31.4,29.56,NE,45,0.0,2.6,47,0.00,,,0.00,WUHU216HW,2013-03-02 17:15:00,
2013-03-02 12:16:00,32.9,19.2,29.87,North,0,0.0,0.0,56,0.00,,,0.00,WUHU216HW,2013-03-02 17:16:00,
2013-03-02 12:17:00,32.9,19.2,29.87,North,0,0.0,0.0,57,0.00,,,0.00,WUHU216HW,2013-03-02 17:17:00,
2013-03-02 12:18:00,32.9,19.2,29.87,North,0,0.0,0.0,57,0.00,,,0.00,WUHU216HW,2013-03-02 17:18:00,
2013-03-02 12:19:00,32.9,19.2,29.87,North,0,0.0,0.0,57,0.00,,,0.00,WUHU216HW,2013-03-02 17:19:00,
2013-03-02 12:20:00,51.6,30.2,29.56,WNW,293,4.0,4.0,44,0.00,,,0.00,WUHU216HW,2013-03-02 17:20:00,
2013-03-02 12:21:00,32.9,19.2,29.87,North,0,0.0,0.0,57,0.00,,,0.00,WUHU216HW,2013-03-02 17:21:00,
2013-03-02 12:23:00,32.9,19.2,29.87,North,0,0.0,0.0,58,0.00,,,0.00,WUHU216HW,2013-03-02 17:23:00,
2013-03-02 12:24:00,32.9,19.2,29.87,North,0,0.0,0.0,57,0.00,,,0.00,WUHU216HW,2013-03-02 17:24:00,
2013-03-02 12:25:00,51.0,29.8,29.56,West,270,0.0,4.0,43,0.00,,,0.00,WUHU216HW,2013-03-02 17:25:00,
2013-03-02 12:26:00,32.7,19.1,29.87,North,0,0.0,0.0,57,0.00,,,0.00,WUHU216HW,2013-03-02 17:26:00,
2013-03-02 12:27:00,32.7,19.1,29.87,North,0,0.0,0.0,57,0.00,,,0.00,WUHU216HW,2013-03-02 17:27:00,
2013-03-02 12:28:00,32.9,19.7,29.87,North,0,0.0,0.0,58,0.00,,,0.00,WUHU216HW,2013-03-02 17:28:00,
2013-03-02 12:29:00,32.9,19.7,29.87,North,0,0.0,0.0,58,0.00,,,0.00,WUHU216HW,2013-03-02 17:29:00,
2013-03-02 12:30:00,51.4,30.6,29.55,West,270,0.0,3.3,45,0.00,,,0.00,WUHU216HW,2013-03-02 17:30:00,
2013-03-02 12:31:00,32.7,19.5,29.87,North,0,0.0,0.0,58,0.00,,,0.00,WUHU216HW,2013-03-02 17:31:00,
2013-03-02 12:32:00,32.7,19.5,29.87,North,0,0.0,0.0,58,0.00,,,0.00,WUHU216HW,2013-03-02 17:32:00,
2013-03-02 12:33:00,32.7,19.5,29.88,North,0,0.0,0.0,58,0.00,,,0.00,WUHU216HW,2013-03-02 17:33:00,
2013-03-02 12:34:00,32.7,19.5,29.87,North,0,0.0,0.0,58,0.00,,,0.00,WUHU216HW,2013-03-02 17:34:00,
2013-03-02 12:35:00,51.0,29.8,29.55,WNW,293,0.0,0.0,44,0.00,,,0.00,WUHU216HW,2013-03-02 17:35:00,
2013-03-02 12:36:00,32.7,19.5,29.88,North,0,0.0,0.0,58,0.00,,,0.00,WUHU216HW,2013-03-02 17:36:00,
2013-03-02 12:37:00,32.7,19.5,29.87,North,0,0.0,0.0,58,0.00,,,0.00,WUHU216HW,2013-03-02 17:37:00,
2013-03-02 12:38:00,32.7,19.5,29.88,North,0,0.0,0.0,58,0.00,,,0.00,WUHU216HW,2013-03-02 17:38:00,
2013-03-02 12:39:00,32.7,19.5,29.88,North,0,0.0,0.0,58,0.00,,,0.00,WUHU216HW,2013-03-02 17:39:00,
2013-03-02 12:40:00,32.7,19.5,29.88,North,0,0.0,0.0,58,0.00,,,0.00,WUHU216HW,2013-03-02 17:40:00,
2013-03-02 12:41:00,50.1,29.5,29.55,West,270,0.0,0.0,46,0.00,,,0.00,WUHU216HW,2013-03-02 17:41:00,
2013-03-02 12:42:00,32.7,19.5,29.88,North,0,0.0,0.0,58,0.00,,,0.00,WUHU216HW,2013-03-02 17:42:00,
2013-03-02 12:43:00,32.7,19.5,29.88,North,0,0.0,0.0,58,0.00,,,0.00,WUHU216HW,2013-03-02 17:43:00,
2013-03-02 12:44:00,32.7,19.5,29.88,North,0,0.0,0.0,58,0.00,,,0.00,WUHU216HW,2013-03-02 17:44:00,
2013-03-02 12:45:00,32.5,19.3,29.88,North,0,0.0,0.0,58,0.00,,,0.00,WUHU216HW,2013-03-02 17:45:00,
2013-03-02 12:46:00,50.5,30.9,29.54,West,270,0.0,0.0,47,0.00,,,0.00,WUHU216HW,2013-03-02 17:46:00,
2013-03-02 12:47:00,32.5,19.3,29.88,North,0,0.0,0.0,58,0.00,,,0.00,WUHU216HW,2013-03-02 17:47:00,
2013-03-02 12:48:00,32.5,19.3,29.88,North,0,0.0,0.0,58,0.00,,,0.00,WUHU216HW,2013-03-02 17:48:00,
2013-03-02 12:49:00,32.5,19.3,29.88,North,0,0.0,0.0,58,0.00,,,0.00,WUHU216HW,2013-03-02 17:49:00,
2013-03-02 12:50:00,32.5,19.3,29.88,North,0,0.0,0.0,59,0.00,,,0.00,WUHU216HW,2013-03-02 17:50:00,
2013-03-02 12:51:00,49.6,29.6,29.54,West,270,0.0,0.0,46,0.00,,,0.00,WUHU216HW,2013-03-02 17:51:00,
2013-03-02 12:52:00,32.5,19.3,29.88,North,0,0.0,0.0,58,0.00,,,0.00,WUHU216HW,2013-03-02 17:52:00,
2013-03-02 12:53:00,32.5,19.3,29.88,North,0,0.0,0.0,58,0.00,,,0.00,WUHU216HW,2013-03-02 17:53:00,
2013-03-02 12:54:00,32.5,19.3,29.88,North,0,0.0,0.0,58,0.00,,,0.00,WUHU216HW,2013-03-02 17:54:00,
2013-03-02 12:55:00,32.5,19.3,29.88,North,0,0.0,0.0,58,0.00,,,0.00,WUHU216HW,2013-03-02 17:55:00,
2013-03-02 12:56:00,50.0,29.3,29.54,WNW,293,0.0,0.0,45,0.00,,,0.00,WUHU216HW,2013-03-02 17:56:00,
2013-03-02 12:58:00,32.5,19.3,29.88,NE,45,0.0,0.0,58,0.00,,,0.00,WUHU216HW,2013-03-02 17:58:00,
2013-03-02 12:59:00,32.5,19.3,29.88,NE,45,0.0,0.0,58,0.00,,,0.00,WUHU216HW,2013-03-02 17:59:00,
2013-03-02 13:00:00,32.5,19.3,29.88,NE,45,0.0,0.0,58,0.00,,,0.00,WUHU216HW,2013-03-02 18:00:00,
2013-03-02 13:01:00,50.3,29.7,29.54,West,270,0.0,0.0,45,0.00,,,0.00,WUHU216HW,2013-03-02 18:01:00,
2013-03-02 13:02:00,32.5,19.3,29.89,NE,45,0.0,0.0,58,0.00,,,0.00,WUHU216HW,2013-03-02 18:02:00,
2013-03-02 13:03:00,32.5,19.3,29.88,NNW,338,0.0,0.0,58,0.00,,,0.00,WUHU216HW,2013-03-02 18:03:00,
2013-03-02 13:04:00,32.5,19.3,29.88,NNW,338,0.0,0.0,58,0.00,,,0.00,WUHU216HW,2013-03-02 18:04:00,
2013-03-02 13:05:00,32.5,19.3,29.89,NNW,338,0.0,0.0,58,0.00,,,0.00,WUHU216HW,2013-03-02 18:05:00,
2013-03-02 13:06:00,51.0,30.3,29.54,West,270,0.0,0.0,45,0.00,,,0.00,WUHU216HW,2013-03-02 18:06:00,
2013-03-02 13:07:00,32.5,19.3,29.89,NNW,338,0.0,0.0,58,0.00,,,0.00,WUHU216HW,2013-03-02 18:07:00,
2013-03-02 13:08:00,32.5,19.3,29.89,NNW,338,0.0,0.0,58,0.00,,,0.00,WUHU216HW,2013-03-02 18:08:00,
2013-03-02 13:09:00,32.5,19.3,29.89,NNW,338,0.0,0.0,58,0.00,,,0.00,WUHU216HW,2013-03-02 18:09:00,
2013-03-02 13:10:00,32.5,19.3,29.89,NNW,338,0.0,0.0,58,0.00,,,0.00,WUHU216HW,2013-03-02 18:10:00,
2013-03-02 13:11:00,51.0,30.3,29.53,West,270,0.0,0.0,45,0.00,,,0.00,WUHU216HW,2013-03-02 18:11:00,
2013-03-02 13:12:00,32.5,19.3,29.89,NNW,338,0.0,0.0,58,0.00,,,0.00,WUHU216HW,2013-03-02 18:12:00,
2013-03-02 13:13:00,32.3,19.2,29.89,NNW,338,0.0,0.0,58,0.00,,,0.00,WUHU216HW,2013-03-02 18:13:00,
2013-03-02 13:14:00,32.3,19.2,29.89,NNW,338,0.0,0.0,58,0.00,,,0.00,WUHU216HW,2013-03-02 18:14:00,
2013-03-02 13:15:00,32.3,19.2,29.89,NNW,338,0.0,0.0,58,0.00,,,0.00,WUHU216HW,2013-03-02 18:15:00,
2013-03-02 13:16:00,51.0,30.3,29.54,West,270,0.0,0.0,45,0.00,,,0.00,WUHU216HW,2013-03-02 18:16:00,
2013-03-02 13:17:00,32.3,19.2,29.89,NNW,338,0.0,0.0,58,0.00,,,0.00,WUHU216HW,2013-03-02 18:17:00,
2013-03-02 13:18:00,32.5,19.3,29.89,NNW,338,0.0,0.0,58,0.00,,,0.00,WUHU216HW,2013-03-02 18:18:00,
2013-03-02 13:19:00,32.5,19.3,29.89,NNW,338,0.0,0.0,58,0.00,,,0.00,WUHU216HW,2013-03-02 18:19:00,
2013-03-02 13:20:00,32.3,19.2,29.89,NNW,338,0.0,0.0,58,0.00,,,0.00,WUHU216HW,2013-03-02 18:20:00,
2013-03-02 13:21:00,52.1,30.2,29.53,NNE,23,0.0,1.7,43,0.00,,,0.00,WUHU216HW,2013-03-02 18:21:00,
2013-03-02 13:23:00,32.5,19.3,29.89,NNW,338,0.0,0.0,58,0.00,,,0.00,WUHU216HW,2013-03-02 18:23:00,
2013-03-02 13:24:00,32.5,19.3,29.89,NNW,338,0.0,0.0,58,0.00,,,0.00,WUHU216HW,2013-03-02 18:24:00,
2013-03-02 13:25:00,32.5,19.3,29.89,NNW,338,0.0,0.0,58,0.00,,,0.00,WUHU216HW,2013-03-02 18:25:00,
2013-03-02 13:26:00,52.1,29.6,29.53,West,270,2.4,2.4,42,0.00,,,0.00,WUHU216HW,2013-03-02 18:26:00,
2013-03-02 13:27:00,32.5,19.3,29.89,NNW,338,0.0,0.0,58,0.00,,,0.00,WUHU216HW,2013-03-02 18:27:00,
2013-03-02 13:28:00,32.5,19.3,29.89,NNW,338,0.0,0.0,58,0.00,,,0.00,WUHU216HW,2013-03-02 18:28:00,
2013-03-02 13:29:00,32.5,19.3,29.89,NNW,338,0.0,0.0,59,0.00,,,0.00,WUHU216HW,2013-03-02 18:29:00,
2013-03-02 13:30:00,32.5,19.3,29.89,NNW,338,0.0,0.0,59,0.00,,,0.00,WUHU216HW,2013-03-02 18:30:00,
2013-03-02 13:31:00,51.9,30.0,29.53,NNE,23,0.0,2.4,43,0.00,,,0.00,WUHU216HW,2013-03-02 18:31:00,
2013-03-02 13:32:00,32.5,19.3,29.89,NNW,338,0.0,0.0,59,0.00,,,0.00,WUHU216HW,2013-03-02 18:32:00,
2013-03-02 13:33:00,32.5,19.3,29.89,NNW,338,0.0,0.0,58,0.00,,,0.00,WUHU216HW,2013-03-02 18:33:00,
2013-03-02 13:34:00,32.5,19.3,29.89,NNW,338,0.0,0.0,58,0.00,,,0.00,WUHU216HW,2013-03-02 18:34:00,
2013-03-02 13:36:00,32.3,19.6,29.89,NNW,338,0.0,0.0,59,0.00,,,0.00,WUHU216HW,2013-03-02 18:36:00,
2013-03-02 13:37:00,51.9,30.0,29.53,ENE,68,0.0,0.0,44,0.00,,,0.00,WUHU216HW,2013-03-02 18:37:00,
2013-03-02 13:38:00,32.3,19.6,29.90,NNW,338,0.0,0.0,59,0.00,,,0.00,WUHU216HW,2013-03-02 18:38:00,
2013-03-02 13:39:00,32.1,19.4,29.90,NNW,338,0.0,0.0,59,0.00,,,0.00,WUHU216HW,2013-03-02 18:39:00,
2013-03-02 13:40:00,32.1,19.4,29.90,NNW,338,0.0,0.0,59,0.00,,,0.00,WUHU216HW,2013-03-02 18:40:00,
2013-03-02 13:41:00,32.1,19.4,29.89,NNW,338,0.0,0.0,58,0.00,,,0.00,WUHU216HW,2013-03-02 18:41:00,
2013-03-02 13:42:00,32.1,19.4,29.90,NNW,338,0.0,0.0,58,0.00,,,0.00,WUHU216HW,2013-03-02 18:42:00,
2013-03-02 13:43:00,50.7,28.9,29.52,West,270,0.0,0.0,43,0.00,,,0.00,WUHU216HW,2013-03-02 18:43:00,
2013-03-02 13:44:00,32.1,19.4,29.90,NNW,338,0.0,0.0,59,0.00,,,0.00,WUHU216HW,2013-03-02 18:44:00,
2013-03-02 13:45:00,32.1,19.4,29.90,NNW,338,0.0,0.0,59,0.00,,,0.00,WUHU216HW,2013-03-02 18:45:00,
2013-03-02 13:46:00,32.1,19.4,29.90,NNW,338,0.0,0.0,60,0.00,,,0.00,WUHU216HW,2013-03-02 18:46:00,
2013-03-02 13:47:00,32.1,19.4,29.90,NNW,338,0.0,0.0,60,0.00,,,0.00,WUHU216HW,2013-03-02 18:47:00,
2013-03-02 13:48:00,51.0,29.2,29.52,West,270,0.0,5.1,43,0.00,,,0.00,WUHU216HW,2013-03-02 18:48:00,
2013-03-02 13:49:00,32.0,19.7,29.90,NNW,338,0.0,0.0,60,0.00,,,0.00,WUHU216HW,2013-03-02 18:49:00,
2013-03-02 13:50:00,32.0,19.7,29.90,NNW,338,0.0,0.0,60,0.00,,,0.00,WUHU216HW,2013-03-02 18:50:00,
2013-03-02 13:51:00,32.0,19.7,29.90,NNW,338,0.0,0.0,60,0.00,,,0.00,WUHU216HW,2013-03-02 18:51:00,
2013-03-02 13:52:00,31.8,19.5,29.90,NNW,338,0.0,0.0,60,0.00,,,0.00,WUHU216HW,2013-03-02 18:52:00,
2013-03-02 13:53:00,51.0,29.2,29.52,WNW,293,2.0,5.1,42,0.00,,,0.00,WUHU216HW,2013-03-02 18:53:00,
2013-03-02 13:54:00,31.8,19.5,29.90,NNW,338,0.0,0.0,60,0.00,,,0.00,WUHU216HW,2013-03-02 18:54:00,
2013-03-02 13:55:00,31.8,19.5,29.90,NNW,338,0.0,0.0,60,0.00,,,0.00,WUHU216HW,2013-03-02 18:55:00,
2013-03-02 13:56:00,31.8,19.5,29.90,NNW,338,0.0,0.0,60,0.00,,,0.00,WUHU216HW,2013-03-02 18:56:00,
2013-03-02 13:57:00,31.8,19.5,29.90,NNW,338,0.0,0.0,60,0.00,,,0.00,WUHU216HW,2013-03-02 18:57:00,
2013-03-02 13:58:00,51.8,30.4,29.51,WNW,293,0.0,2.0,44,0.00,,,0.00,WUHU216HW,2013-03-02 18:58:00,
2013-03-02 13:59:00,31.8,19.5,29.90,NNW,338,0.0,0.0,60,0.00,,,0.00,WUHU216HW,2013-03-02 18:59:00,
2013-03-02 14:00:00,31.8,19.5,29.90,NNW,338,0.0,0.0,60,0.00,,,0.00,WUHU216HW,2013-03-02 19:00:00,
2013-03-02 14:01:00,31.6,18.9,29.90,NNW,338,0.0,0.0,59,0.00,,,0.00,WUHU216HW,2013-03-02 19:01:00,
2013-03-02 14:02:00,31.6,18.9,29.90,NNW,338,0.0,0.0,59,0.00,,,0.00,WUHU216HW,2013-03-02 19:02:00,
2013-03-02 14:03:00,31.6,18.9,29.90,NNW,338,0.0,0.0,59,0.00,,,0.00,WUHU216HW,2013-03-02 19:03:00,
2013-03-02 14:04:00,51.4,30.1,29.52,NNW,338,0.0,0.0,44,0.00,,,0.00,WUHU216HW,2013-03-02 19:04:00,
2013-03-02 14:05:00,31.6,18.9,29.90,NNW,338,0.0,0.0,60,0.00,,,0.00,WUHU216HW,2013-03-02 19:05:00,
2013-03-02 14:06:00,31.6,18.9,29.90,NNW,338,0.0,0.0,60,0.00,,,0.00,WUHU216HW,2013-03-02 19:06:00,
2013-03-02 14:07:00,31.6,18.9,29.90,NNW,338,0.0,0.0,60,0.00,,,0.00,WUHU216HW,2013-03-02 19:07:00,
2013-03-02 14:08:00,31.6,18.9,29.90,NNW,338,0.0,0.0,60,0.00,,,0.00,WUHU216HW,2013-03-02 19:08:00,
2013-03-02 14:09:00,50.7,29.4,29.52,West,270,0.0,0.0,44,0.00,,,0.00,WUHU216HW,2013-03-02 19:09:00,
2013-03-02 14:10:00,31.6,18.9,29.90,NNW,338,0.0,0.0,60,0.00,,,0.00,WUHU216HW,2013-03-02 19:10:00,
2013-03-02 14:11:00,31.6,18.9,29.90,NNW,338,0.0,0.0,60,0.00,,,0.00,WUHU216HW,2013-03-02 19:11:00,
2013-03-02 14:12:00,31.6,18.9,29.90,NNW,338,0.0,0.0,60,0.00,,,0.00,WUHU216HW,2013-03-02 19:12:00,
2013-03-02 14:13:00,31.6,18.9,29.90,NNW,338,0.0,0.0,61,0.00,,,0.00,WUHU216HW,2013-03-02 19:13:00,
2013-03-02 14:14:00,49.8,28.1,29.52,West,270,0.0,2.4,43,0.00,,,0.00,WUHU216HW,2013-03-02 19:14:00,
2013-03-02 14:15:00,31.6,18.9,29.90,NNW,338,0.0,0.0,61,0.00,,,0.00,WUHU216HW,2013-03-02 19:15:00,
2013-03-02 14:16:00,31.6,18.9,29.90,NNW,338,0.0,0.0,60,0.00,,,0.00,WUHU216HW,2013-03-02 19:16:00,
2013-03-02 14:17:00,31.6,18.9,29.90,NNW,338,0.0,0.0,60,0.00,,,0.00,WUHU216HW,2013-03-02 19:17:00,
2013-03-02 14:18:00,31.6,18.9,29.90,NNW,338,0.0,0.0,60,0.00,,,0.00,WUHU216HW,2013-03-02 19:18:00,
2013-03-02 14:19:00,50.1,29.5,29.52,West,270,0.0,2.4,45,0.00,,,0.00,WUHU216HW,2013-03-02 19:19:00,
2013-03-02 14:20:00,31.6,18.9,29.90,NNW,338,0.0,0.0,61,0.00,,,0.00,WUHU216HW,2013-03-02 19:20:00,
2013-03-02 14:21:00,31.6,18.9,29.90,NNW,338,0.0,0.0,61,0.00,,,0.00,WUHU216HW,2013-03-02 19:21:00,
2013-03-02 14:22:00,31.4,19.5,29.91,NNW,338,0.0,0.0,61,0.00,,,0.00,WUHU216HW,2013-03-02 19:22:00,
2013-03-02 14:23:00,31.4,19.5,29.91,NNW,338,0.0,0.0,61,0.00,,,0.00,WUHU216HW,2013-03-02 19:23:00,
2013-03-02 14:24:00,50.5,30.4,29.52,West,270,0.0,0.0,45,0.00,,,0.00,WUHU216HW,2013-03-02 19:24:00,
2013-03-02 14:25:00,31.4,19.5,29.90,NNW,338,0.0,0.0,61,0.00,,,0.00,WUHU216HW,2013-03-02 19:25:00,
2013-03-02 14:26:00,31.4,19.5,29.90,NNW,338,0.0,0.0,61,0.00,,,0.00,WUHU216HW,2013-03-02 19:26:00,
2013-03-02 14:27:00,31.2,19.4,29.90,NNW,338,0.0,0.0,61,0.00,,,0.00,WUHU216HW,2013-03-02 19:27:00,
2013-03-02 14:28:00,31.2,19.4,29.90,NNW,338,0.0,0.0,61,0.00,,,0.00,WUHU216HW,2013-03-02 19:28:00,
2013-03-02 14:29:00,50.0,28.8,29.52,West,270,0.0,0.0,44,0.00,,,0.00,WUHU216HW,2013-03-02 19:29:00,
2013-03-02 14:31:00,31.2,19.4,29.91,NNW,338,0.0,0.0,61,0.00,,,0.00,WUHU216HW,2013-03-02 19:31:00,
2013-03-02 14:33:00,31.2,19.4,29.91,NNW,338,0.0,0.0,61,0.00,,,0.00,WUHU216HW,2013-03-02 19:33:00,
2013-03-02 14:34:00,49.6,27.9,29.52,West,270,0.0,0.0,46,0.00,,,0.00,WUHU216HW,2013-03-02 19:34:00,
2013-03-02 14:35:00,31.2,19.4,29.90,NNW,338,0.0,0.0,61,0.00,,,0.00,WUHU216HW,2013-03-02 19:35:00,
2013-03-02 14:36:00,31.2,19.4,29.90,NNW,338,0.0,0.0,61,0.00,,,0.00,WUHU216HW,2013-03-02 19:36:00,
2013-03-02 14:37:00,31.2,19.4,29.90,NNW,338,0.0,0.0,61,0.00,,,0.00,WUHU216HW,2013-03-02 19:37:00,
2013-03-02 14:38:00,31.2,19.4,29.91,NNW,338,0.0,0.0,61,0.00,,,0.00,WUHU216HW,2013-03-02 19:38:00,
2013-03-02 14:39:00,50.5,30.9,29.52,WSW,248,0.0,0.0,47,0.00,,,0.00,WUHU216HW,2013-03-02 19:39:00,
2013-03-02 14:40:00,31.2,19.4,29.91,NNW,338,0.0,0.0,62,0.00,,,0.00,WUHU216HW,2013-03-02 19:40:00,
2013-03-02 14:41:00,31.2,19.4,29.91,NNW,338,0.0,0.0,62,0.00,,,0.00,WUHU216HW,2013-03-02 19:41:00,
2013-03-02 14:42:00,31.2,19.4,29.91,NNW,338,0.0,0.0,61,0.00,,,0.00,WUHU216HW,2013-03-02 19:42:00,
2013-03-02 14:43:00,31.2,19.4,29.91,NNW,338,0.0,0.0,61,0.00,,,0.00,WUHU216HW,2013-03-02 19:43:00,
2013-03-02 14:44:00,50.5,30.9,29.52,WSW,248,0.0,0.0,46,0.00,,,0.00,WUHU216HW,2013-03-02 19:44:00,
2013-03-02 14:46:00,31.2,19.4,29.91,NNW,338,0.0,0.0,61,0.00,,,0.00,WUHU216HW,2013-03-02 19:46:00,
2013-03-02 14:47:00,31.2,19.4,29.91,NNW,338,0.0,0.0,61,0.00,,,0.00,WUHU216HW,2013-03-02 19:47:00,
2013-03-02 14:48:00,31.2,19.4,29.91,NNW,338,0.0,0.0,62,0.00,,,0.00,WUHU216HW,2013-03-02 19:48:00,
2013-03-02 14:49:00,50.3,30.8,29.52,WNW,293,0.0,0.0,47,0.00,,,0.00,WUHU216HW,2013-03-02 19:49:00,
2013-03-02 14:50:00,31.2,19.4,29.91,NNW,338,0.0,0.0,62,0.00,,,0.00,WUHU216HW,2013-03-02 19:50:00,
2013-03-02 14:51:00,31.2,19.4,29.91,NNW,338,0.0,0.0,62,0.00,,,0.00,WUHU216HW,2013-03-02 19:51:00,
2013-03-02 14:52:00,31.2,19.4,29.91,NNW,338,0.0,0.0,62,0.00,,,0.00,WUHU216HW,2013-03-02 19:52:00,
2013-03-02 14:53:00,31.2,19.4,29.91,NNW,338,0.0,0.0,61,0.00,,,0.00,WUHU216HW,2013-03-02 19:53:00,
2013-03-02 14:54:00,31.2,19.4,29.91,NNW,338,0.0,0.0,61,0.00,,,0.00,WUHU216HW,2013-03-02 19:54:00,
2013-03-02 14:55:00,50.1,30.6,29.52,West,270,0.0,0.0,47,0.00,,,0.00,WUHU216HW,2013-03-02 19:55:00,
2013-03-02 14:56:00,31.2,19.4,29.91,NNW,338,0.0,0.0,61,0.00,,,0.00,WUHU216HW,2013-03-02 19:56:00,
2013-03-02 14:57:00,31.2,19.4,29.91,NNW,338,0.0,0.0,61,0.00,,,0.00,WUHU216HW,2013-03-02 19:57:00,
2013-03-02 14:58:00,31.2,19.4,29.91,NNW,338,0.0,0.0,61,0.00,,,0.00,WUHU216HW,2013-03-02 19:58:00,
2013-03-02 14:59:00,31.1,19.2,29.91,NNW,338,0.0,0.0,61,0.00,,,0.00,WUHU216HW,2013-03-02 19:59:00,
2013-03-02 15:00:00,50.1,30.6,29.51,West,270,3.1,3.1,44,0.00,,,0.00,WUHU216HW,2013-03-02 20:00:00,
2013-03-02 15:01:00,31.2,19.4,29.92,NNW,338,0.0,0.0,61,0.00,,,0.00,WUHU216HW,2013-03-02 20:01:00,
2013-03-02 15:02:00,31.2,19.4,29.92,NNW,338,0.0,0.0,61,0.00,,,0.00,WUHU216HW,2013-03-02 20:02:00,
2013-03-02 15:03:00,31.4,19.5,29.91,NNW,338,0.0,0.0,61,0.00,,,0.00,WUHU216HW,2013-03-02 20:03:00,
2013-03-02 15:04:00,31.4,19.5,29.91,NNW,338,0.0,0.0,61,0.00,,,0.00,WUHU216HW,2013-03-02 20:04:00,
2013-03-02 15:05:00,49.4,28.3,29.51,NNW,338,0.0,6.9,44,0.00,,,0.00,WUHU216HW,2013-03-02 20:05:00,
2013-03-02 15:06:00,31.2,19.4,29.91,NNW,338,0.0,0.0,61,0.00,,,0.00,WUHU216HW,2013-03-02 20:06:00,
2013-03-02 15:07:00,31.2,19.4,29.92,NNW,338,0.0,0.0,61,0.00,,,0.00,WUHU216HW,2013-03-02 20:07:00,
2013-03-02 15:08:00,31.2,19.4,29.92,West,270,4.4,4.4,61,0.00,,,0.00,WUHU216HW,2013-03-02 20:08:00,
2013-03-02 15:09:00,31.2,19.4,29.92,West,270,4.4,4.4,61,0.00,,,0.00,WUHU216HW,2013-03-02 20:09:00,
2013-03-02 15:10:00,48.9,28.3,29.52,West,270,0.0,6.9,45,0.00,,,0.00,WUHU216HW,2013-03-02 20:10:00,
2013-03-02 15:11:00,31.2,19.0,29.92,West,270,0.0,4.4,60,0.00,,,0.00,WUHU216HW,2013-03-02 20:11:00,
2013-03-02 15:12:00,31.2,19.0,29.92,NNW,338,0.0,4.4,61,0.00,,,0.00,WUHU216HW,2013-03-02 20:12:00,
2013-03-02 15:13:00,31.2,19.0,29.92,NNW,338,0.0,4.4,61,0.00,,,0.00,WUHU216HW,2013-03-02 20:13:00,
2013-03-02 15:14:00,31.4,19.9,29.92,NNW,338,0.0,4.4,62,0.00,,,0.00,WUHU216HW,2013-03-02 20:14:00,
2013-03-02 15:15:00,48.7,28.1,29.52,West,270,0.0,0.0,45,0.00,,,0.00,WUHU216HW,2013-03-02 20:15:00,
2013-03-02 15:16:00,31.4,19.9,29.91,NNW,338,0.0,4.4,61,0.00,,,0.00,WUHU216HW,2013-03-02 20:16:00,
2013-03-02 15:17:00,31.4,19.9,29.92,NNW,338,0.0,4.4,61,0.00,,,0.00,WUHU216HW,2013-03-02 20:17:00,
2013-03-02 15:19:00,31.6,19.7,29.92,NNW,338,0.0,4.4,61,0.00,,,0.00,WUHU216HW,2013-03-02 20:19:00,
2013-03-02 15:20:00,48.7,29.2,29.52,WNW,293,0.0,0.0,47,0.00,,,0.00,WUHU216HW,2013-03-02 20:20:00,
2013-03-02 15:21:00,31.6,19.7,29.92,NNW,338,0.0,0.0,62,0.00,,,0.00,WUHU216HW,2013-03-02 20:21:00,
2013-03-02 15:22:00,31.6,19.7,29.92,NNW,338,0.0,0.0,62,0.00,,,0.00,WUHU216HW,2013-03-02 20:22:00,
2013-03-02 15:24:00,31.6,19.7,29.92,NNW,338,0.0,0.0,62,0.00,,,0.00,WUHU216HW,2013-03-02 20:24:00,
2013-03-02 15:25:00,48.9,29.4,29.51,WNW,293,2.2,2.2,46,0.00,,,0.00,WUHU216HW,2013-03-02 20:25:00,
2013-03-02 15:26:00,31.6,19.7,29.93,NNW,338,0.0,0.0,61,0.00,,,0.00,WUHU216HW,2013-03-02 20:26:00,
2013-03-02 15:28:00,31.8,19.9,29.92,NNW,338,0.0,0.0,61,0.00,,,0.00,WUHU216HW,2013-03-02 20:28:00,
2013-03-02 15:29:00,31.8,19.9,29.93,NNW,338,0.0,0.0,60,0.00,,,0.00,WUHU216HW,2013-03-02 20:29:00,
2013-03-02 15:30:00,48.9,29.4,29.52,WNW,293,2.2,2.2,46,0.00,,,0.00,WUHU216HW,2013-03-02 20:30:00,
2013-03-02 15:31:00,32.0,20.1,29.93,NNW,338,0.0,0.0,61,0.00,,,0.00,WUHU216HW,2013-03-02 20:31:00,
2013-03-02 15:32:00,32.0,20.1,29.93,NNW,338,0.0,0.0,61,0.00,,,0.00,WUHU216HW,2013-03-02 20:32:00,
2013-03-02 15:33:00,32.0,20.1,29.93,NNW,338,0.0,0.0,61,0.00,,,0.00,WUHU216HW,2013-03-02 20:33:00,
2013-03-02 15:34:00,32.1,20.2,29.93,NNW,338,0.0,0.0,61,0.00,,,0.00,WUHU216HW,2013-03-02 20:34:00,
2013-03-02 15:35:00,48.9,29.4,29.51,WSW,248,0.0,2.2,46,0.00,,,0.00,WUHU216HW,2013-03-02 20:35:00,
2013-03-02 15:36:00,32.3,20.4,29.93,NNW,338,0.0,0.0,61,0.00,,,0.00,WUHU216HW,2013-03-02 20:36:00,
2013-03-02 15:37:00,32.3,20.4,29.93,NNW,338,0.0,0.0,61,0.00,,,0.00,WUHU216HW,2013-03-02 20:37:00,
2013-03-02 15:38:00,32.5,20.2,29.93,NNW,338,0.0,0.0,60,0.00,,,0.00,WUHU216HW,2013-03-02 20:38:00,
2013-03-02 15:39:00,32.5,20.2,29.94,NNW,338,0.0,0.0,60,0.00,,,0.00,WUHU216HW,2013-03-02 20:39:00,
2013-03-02 15:40:00,49.8,29.7,29.51,SW,225,0.0,2.2,46,0.00,,,0.00,WUHU216HW,2013-03-02 20:40:00,
2013-03-02 15:41:00,32.5,20.2,29.93,NNW,338,0.0,0.0,59,0.00,,,0.00,WUHU216HW,2013-03-02 20:41:00,
2013-03-02 15:42:00,32.5,20.2,29.93,NNW,338,0.0,0.0,59,0.00,,,0.00,WUHU216HW,2013-03-02 20:42:00,
2013-03-02 15:43:00,32.5,20.2,29.93,NNW,338,0.0,0.0,59,0.00,,,0.00,WUHU216HW,2013-03-02 20:43:00,
2013-03-02 15:44:00,32.7,19.5,29.93,WNW,293,0.0,0.0,58,0.00,,,0.00,WUHU216HW,2013-03-02 20:44:00,
2013-03-02 15:45:00,32.7,19.5,29.93,WNW,293,0.0,0.0,58,0.00,,,0.00,WUHU216HW,2013-03-02 20:45:00,
2013-03-02 15:46:00,50.1,28.9,29.51,WSW,248,0.0,0.0,44,0.00,,,0.00,WUHU216HW,2013-03-02 20:46:00,
2013-03-02 15:47:00,32.9,19.7,29.94,West,270,0.0,0.0,58,0.00,,,0.00,WUHU216HW,2013-03-02 20:47:00,
2013-03-02 15:48:00,32.9,19.7,29.94,West,270,0.0,0.0,58,0.00,,,0.00,WUHU216HW,2013-03-02 20:48:00,
2013-03-02 15:49:00,33.0,20.3,29.94,West,270,0.0,0.0,59,0.00,,,0.00,WUHU216HW,2013-03-02 20:49:00,
2013-03-02 15:50:00,33.0,20.3,29.94,West,270,0.0,0.0,59,0.00,,,0.00,WUHU216HW,2013-03-02 20:50:00,
2013-03-02 15:51:00,50.5,29.3,29.51,West,270,0.0,0.0,45,0.00,,,0.00,WUHU216HW,2013-03-02 20:51:00,
2013-03-02 15:52:00,33.0,20.3,29.94,West,270,0.0,0.0,59,0.00,,,0.00,WUHU216HW,2013-03-02 20:52:00,
2013-03-02 15:53:00,33.4,20.1,29.94,West,270,0.0,0.0,58,0.00,,,0.00,WUHU216HW,2013-03-02 20:53:00,
2013-03-02 15:54:00,33.4,20.1,29.94,West,270,0.0,0.0,58,0.00,,,0.00,WUHU216HW,2013-03-02 20:54:00,
2013-03-02 15:55:00,33.4,20.1,29.94,West,270,0.0,0.0,58,0.00,,,0.00,WUHU216HW,2013-03-02 20:55:00,
2013-03-02 15:56:00,51.0,30.3,29.51,West,270,0.0,0.0,45,0.00,,,0.00,WUHU216HW,2013-03-02 20:56:00,
2013-03-02 15:57:00,33.4,20.1,29.94,West,270,0.0,0.0,57,0.00,,,0.00,WUHU216HW,2013-03-02 20:57:00,
2013-03-02 15:59:00,33.6,19.9,29.94,West,270,0.0,0.0,57,0.00,,,0.00,WUHU216HW,2013-03-02 20:59:00,
2013-03-02 16:00:00,33.6,19.9,29.94,West,270,0.0,0.0,57,0.00,,,0.00,WUHU216HW,2013-03-02 21:00:00,
2013-03-02 16:01:00,33.6,19.9,29.94,West,270,0.0,0.0,57,0.00,,,0.00,WUHU216HW,2013-03-02 21:01:00,
2013-03-02 16:02:00,50.9,29.0,29.51,NW,315,0.0,0.0,43,0.00,,,0.00,WUHU216HW,2013-03-02 21:02:00,
2013-03-02 16:03:00,33.6,19.9,29.94,West,270,0.0,0.0,57,0.00,,,0.00,WUHU216HW,2013-03-02 21:03:00,
2013-03-02 16:04:00,33.9,19.8,29.94,West,270,0.0,0.0,56,0.00,,,0.00,WUHU216HW,2013-03-02 21:04:00,
2013-03-02 16:05:00,33.9,19.8,29.93,West,270,0.0,0.0,56,0.00,,,0.00,WUHU216HW,2013-03-02 21:05:00,
2013-03-02 16:06:00,33.9,19.8,29.94,WSW,248,0.0,0.0,57,0.00,,,0.00,WUHU216HW,2013-03-02 21:06:00,
2013-03-02 16:07:00,33.9,19.8,29.94,WSW,248,0.0,0.0,57,0.00,,,0.00,WUHU216HW,2013-03-02 21:07:00,
2013-03-02 16:08:00,50.5,28.7,29.51,West,270,0.0,0.0,44,0.00,,,0.00,WUHU216HW,2013-03-02 21:08:00,
2013-03-02 16:09:00,34.1,20.0,29.94,NW,315,0.0,0.0,56,0.00,,,0.00,WUHU216HW,2013-03-02 21:09:00,
2013-03-02 16:10:00,34.3,20.1,29.94,NW,315,0.0,0.0,56,0.00,,,0.00,WUHU216HW,2013-03-02 21:10:00,
2013-03-02 16:11:00,34.3,20.1,29.94,NW,315,0.0,0.0,56,0.00,,,0.00,WUHU216HW,2013-03-02 21:11:00,
2013-03-02 16:12:00,34.5,20.3,29.93,NW,315,0.0,0.0,56,0.00,,,0.00,WUHU216HW,2013-03-02 21:12:00,
2013-03-02 16:13:00,49.6,27.9,29.51,WNW,293,1.1,5.8,43,0.00,,,0.00,WUHU216HW,2013-03-02 21:13:00,
2013-03-02 16:14:00,34.5,20.3,29.93,NW,315,0.0,0.0,56,0.00,,,0.00,WUHU216HW,2013-03-02 21:14:00,
2013-03-02 16:15:00,34.5,20.3,29.93,WNW,293,0.0,0.0,56,0.00,,,0.00,WUHU216HW,2013-03-02 21:15:00,
2013-03-02 16:16:00,34.5,20.3,29.93,WNW,293,0.0,0.0,56,0.00,,,0.00,WUHU216HW,2013-03-02 21:16:00,
2013-03-02 16:17:00,34.7,20.1,29.93,WSW,248,0.0,0.0,55,0.00,,,0.00,WUHU216HW,2013-03-02 21:17:00,
2013-03-02 16:18:00,49.1,27.9,29.51,West,270,0.0,5.8,44,0.00,,,0.00,WUHU216HW,2013-03-02 21:18:00,
2013-03-02 16:19:00,34.8,20.7,29.94,WSW,248,0.0,0.0,56,0.00,,,0.00,WUHU216HW,2013-03-02 21:19:00,
2013-03-02 16:20:00,34.8,20.7,29.94,WSW,248,0.0,0.0,56,0.00,,,0.00,WUHU216HW,2013-03-02 21:20:00,
2013-03-02 16:21:00,35.2,21.0,29.94,West,270,0.0,0.0,56,0.00,,,0.00,WUHU216HW,2013-03-02 21:21:00,
2013-03-02 16:22:00,35.2,21.0,29.94,West,270,0.0,0.0,56,0.00,,,0.00,WUHU216HW,2013-03-02 21:22:00,
2013-03-02 16:23:00,48.7,28.7,29.51,West,270,0.0,1.1,46,0.00,,,0.00,WUHU216HW,2013-03-02 21:23:00,
2013-03-02 16:24:00,35.2,21.0,29.94,NNW,338,0.0,0.0,55,0.00,,,0.00,WUHU216HW,2013-03-02 21:24:00,
2013-03-02 16:25:00,35.2,21.0,29.94,WSW,248,0.0,0.0,54,0.00,,,0.00,WUHU216HW,2013-03-02 21:25:00,
2013-03-02 16:26:00,35.2,21.0,29.93,WSW,248,0.0,0.0,54,0.00,,,0.00,WUHU216HW,2013-03-02 21:26:00,
2013-03-02 16:27:00,35.4,20.4,29.93,WSW,248,0.0,0.0,54,0.00,,,0.00,WUHU216HW,2013-03-02 21:27:00,
2013-03-02 16:28:00,48.7,29.8,29.52,NW,315,0.0,0.0,48,0.00,,,0.00,WUHU216HW,2013-03-02 21:28:00,
2013-03-02 16:29:00,35.6,21.0,29.93,SSW,203,0.0,0.0,55,0.00,,,0.00,WUHU216HW,2013-03-02 21:29:00,
2013-03-02 16:30:00,35.6,21.0,29.93,SSW,203,0.0,0.0,55,0.00,,,0.00,WUHU216HW,2013-03-02 21:30:00,
2013-03-02 16:31:00,35.6,21.0,29.94,SSW,203,0.0,0.0,55,0.00,,,0.00,WUHU216HW,2013-03-02 21:31:00,
2013-03-02 16:32:00,35.7,20.7,29.94,West,270,0.0,0.0,54,0.00,,,0.00,WUHU216HW,2013-03-02 21:32:00,
2013-03-02 16:33:00,48.7,29.8,29.52,NW,315,0.0,0.0,48,0.00,,,0.00,WUHU216HW,2013-03-02 21:33:00,
2013-03-02 16:34:00,35.9,20.4,29.93,WSW,248,0.0,0.0,53,0.00,,,0.00,WUHU216HW,2013-03-02 21:34:00,
2013-03-02 16:35:00,35.9,20.4,29.93,WSW,248,0.0,0.0,53,0.00,,,0.00,WUHU216HW,2013-03-02 21:35:00,
2013-03-02 16:36:00,35.9,20.4,29.93,WSW,248,0.0,0.0,54,0.00,,,0.00,WUHU216HW,2013-03-02 21:36:00,
2013-03-02 16:37:00,35.9,20.4,29.93,WSW,248,0.0,0.0,54,0.00,,,0.00,WUHU216HW,2013-03-02 21:37:00,
2013-03-02 16:38:00,48.5,29.6,29.52,WNW,293,0.0,0.0,47,0.00,,,0.00,WUHU216HW,2013-03-02 21:38:00,
2013-03-02 16:39:00,36.1,21.0,29.94,West,270,0.0,0.0,54,0.00,,,0.00,WUHU216HW,2013-03-02 21:39:00,
2013-03-02 16:40:00,36.1,21.0,29.93,WNW,293,0.0,0.0,53,0.00,,,0.00,WUHU216HW,2013-03-02 21:40:00,
2013-03-02 16:41:00,36.1,21.0,29.93,WNW,293,0.0,0.0,53,0.00,,,0.00,WUHU216HW,2013-03-02 21:41:00,
2013-03-02 16:42:00,36.3,21.2,29.94,WNW,293,0.0,0.0,54,0.00,,,0.00,WUHU216HW,2013-03-02 21:42:00,
2013-03-02 16:43:00,47.8,29.5,29.52,WNW,293,0.0,0.0,49,0.00,,,0.00,WUHU216HW,2013-03-02 21:43:00,
2013-03-02 16:44:00,36.3,21.2,29.93,WNW,293,0.0,0.0,54,0.00,,,0.00,WUHU216HW,2013-03-02 21:44:00,
2013-03-02 16:45:00,36.5,20.9,29.94,West,270,0.6,0.6,53,0.00,,,0.00,WUHU216HW,2013-03-02 21:45:00,
2013-03-02 16:47:00,36.6,21.1,29.93,West,270,0.0,0.6,53,0.00,,,0.00,WUHU216HW,2013-03-02 21:47:00,
2013-03-02 16:48:00,47.4,28.1,29.52,ESE,113,0.0,0.0,47,0.00,,,0.00,WUHU216HW,2013-03-02 21:48:00,
2013-03-02 16:49:00,36.6,21.1,29.94,West,270,0.0,0.6,53,0.00,,,0.00,WUHU216HW,2013-03-02 21:49:00,
2013-03-02 16:50:00,36.6,21.1,29.94,West,270,0.0,0.6,53,0.00,,,0.00,WUHU216HW,2013-03-02 21:50:00,
2013-03-02 16:51:00,37.0,21.4,29.94,WSW,248,0.0,0.6,53,0.00,,,0.00,WUHU216HW,2013-03-02 21:51:00,
2013-03-02 16:53:00,47.1,28.3,29.52,WNW,293,0.0,0.0,48,0.00,,,0.00,WUHU216HW,2013-03-02 21:53:00,
2013-03-02 16:54:00,37.2,21.1,29.94,West,270,0.0,0.6,52,0.00,,,0.00,WUHU216HW,2013-03-02 21:54:00,
2013-03-02 16:55:00,37.2,21.1,29.94,West,270,0.0,0.6,52,0.00,,,0.00,WUHU216HW,2013-03-02 21:55:00,
2013-03-02 16:56:00,37.2,21.1,29.94,West,270,0.0,0.0,52,0.00,,,0.00,WUHU216HW,2013-03-02 21:56:00,
2013-03-02 16:57:00,37.5,21.5,29.94,West,270,0.0,0.0,52,0.00,,,0.00,WUHU216HW,2013-03-02 21:57:00,
2013-03-02 16:58:00,46.7,28.5,29.52,West,270,0.0,0.0,49,0.00,,,0.00,WUHU216HW,2013-03-02 21:58:00,
2013-03-02 16:59:00,37.5,21.5,29.94,West,270,0.0,0.0,52,0.00,,,0.00,WUHU216HW,2013-03-02 21:59:00,
2013-03-02 17:00:00,37.7,21.6,29.94,West,270,0.0,0.0,52,0.00,,,0.00,WUHU216HW,2013-03-02 22:00:00,
2013-03-02 17:01:00,37.7,21.6,29.94,West,270,0.0,0.0,52,0.00,,,0.00,WUHU216HW,2013-03-02 22:01:00,
2013-03-02 17:02:00,37.9,21.4,29.94,West,270,0.0,0.0,51,0.00,,,0.00,WUHU216HW,2013-03-02 22:02:00,
2013-03-02 17:03:00,37.9,21.4,29.94,West,270,0.0,0.0,51,0.00,,,0.00,WUHU216HW,2013-03-02 22:03:00,
2013-03-02 17:04:00,46.5,28.3,29.52,West,270,0.0,0.0,49,0.00,,,0.00,WUHU216HW,2013-03-02 22:04:00,
2013-03-02 17:05:00,38.1,21.9,29.94,West,270,0.0,0.0,52,0.00,,,0.00,WUHU216HW,2013-03-02 22:05:00,
2013-03-02 17:06:00,38.3,21.2,29.94,WNW,293,0.0,0.0,50,0.00,,,0.00,WUHU216HW,2013-03-02 22:06:00,
2013-03-02 17:07:00,38.3,21.2,29.95,WNW,293,0.0,0.0,50,0.00,,,0.00,WUHU216HW,2013-03-02 22:07:00,
2013-03-02 17:08:00,38.6,22.0,29.95,WNW,293,0.0,0.0,51,0.00,,,0.00,WUHU216HW,2013-03-02 22:08:00,
2013-03-02 17:09:00,46.4,28.7,29.52,West,270,0.0,0.0,50,0.00,,,0.00,WUHU216HW,2013-03-02 22:09:00,
2013-03-02 17:10:00,38.8,21.7,29.94,West,270,0.0,0.0,50,0.00,,,0.00,WUHU216HW,2013-03-02 22:10:00,
2013-03-02 17:11:00,38.8,21.7,29.94,West,270,0.0,0.0,50,0.00,,,0.00,WUHU216HW,2013-03-02 22:11:00,
2013-03-02 17:12:00,38.8,21.7,29.94,West,270,0.0,0.0,50,0.00,,,0.00,WUHU216HW,2013-03-02 22:12:00,
2013-03-02 17:13:00,38.8,21.7,29.94,WSW,248,0.0,0.0,49,0.00,,,0.00,WUHU216HW,2013-03-02 22:13:00,
2013-03-02 17:14:00,46.2,28.6,29.53,West,270,0.0,0.0,50,0.00,,,0.00,WUHU216HW,2013-03-02 22:14:00,
2013-03-02 17:15:00,39.0,21.9,29.94,WNW,293,0.0,0.0,50,0.00,,,0.00,WUHU216HW,2013-03-02 22:15:00,
2013-03-02 17:16:00,39.0,21.9,29.94,WNW,293,0.0,0.0,50,0.00,,,0.00,WUHU216HW,2013-03-02 22:16:00,
2013-03-02 17:17:00,39.0,21.9,29.94,WNW,293,0.8,0.8,49,0.00,,,0.00,WUHU216HW,2013-03-02 22:17:00,
2013-03-02 17:19:00,46.0,28.8,29.53,West,270,0.0,0.0,51,0.00,,,0.00,WUHU216HW,2013-03-02 22:19:00,
2013-03-02 17:20:00,39.2,22.1,29.95,WNW,293,3.8,3.8,50,0.00,,,0.00,WUHU216HW,2013-03-02 22:20:00,
2013-03-02 17:21:00,39.3,21.2,29.95,WNW,293,4.9,4.9,48,0.00,,,0.00,WUHU216HW,2013-03-02 22:21:00,
2013-03-02 17:24:00,45.6,28.1,29.53,West,270,0.0,0.0,50,0.00,,,0.00,WUHU216HW,2013-03-02 22:24:00,
2013-03-02 17:26:00,39.3,22.2,29.95,West,270,0.0,4.9,49,0.00,,,0.00,WUHU216HW,2013-03-02 22:26:00,
2013-03-02 17:27:00,39.7,22.5,29.95,West,270,0.0,4.9,50,0.00,,,0.00,WUHU216HW,2013-03-02 22:27:00,
2013-03-02 17:28:00,39.7,22.5,29.94,West,270,0.0,4.9,50,0.00,,,0.00,WUHU216HW,2013-03-02 22:28:00,
2013-03-02 17:29:00,45.6,28.1,29.53,WNW,293,0.0,0.0,50,0.00,,,0.00,WUHU216HW,2013-03-02 22:29:00,
2013-03-02 17:30:00,39.7,22.5,29.95,NW,315,1.5,4.9,49,0.00,,,0.00,WUHU216HW,2013-03-02 22:30:00,
2013-03-02 17:31:00,39.7,22.5,29.94,NW,315,1.5,4.9,49,0.00,,,0.00,WUHU216HW,2013-03-02 22:31:00,
2013-03-02 17:34:00,45.6,28.1,29.53,WNW,293,0.0,0.0,51,0.00,,,0.00,WUHU216HW,2013-03-02 22:34:00,
2013-03-02 17:37:00,39.9,22.2,29.95,NNW,338,0.0,1.5,49,0.00,,,0.00,WUHU216HW,2013-03-02 22:37:00,
2013-03-02 17:38:00,40.1,22.3,29.95,West,270,0.0,1.5,49,0.00,,,0.00,WUHU216HW,2013-03-02 22:38:00,
2013-03-02 17:39:00,45.5,28.4,29.54,WNW,293,0.0,0.0,51,0.00,,,0.00,WUHU216HW,2013-03-02 22:39:00,
2013-03-02 17:40:00,40.2,22.5,29.94,West,270,0.0,1.5,49,0.00,,,0.00,WUHU216HW,2013-03-02 22:40:00,
2013-03-02 17:41:00,40.2,22.5,29.94,West,270,0.0,1.5,49,0.00,,,0.00,WUHU216HW,2013-03-02 22:41:00,
2013-03-02 17:42:00,40.2,22.5,29.94,West,270,0.0,0.8,49,0.00,,,0.00,WUHU216HW,2013-03-02 22:42:00,
2013-03-02 17:43:00,40.6,22.3,29.95,NW,315,0.0,0.8,48,0.00,,,0.00,WUHU216HW,2013-03-02 22:43:00,
2013-03-02 17:44:00,45.3,28.2,29.54,WNW,293,0.0,0.0,51,0.00,,,0.00,WUHU216HW,2013-03-02 22:44:00,
2013-03-02 17:45:00,40.6,22.3,29.95,West,270,0.0,0.0,48,0.00,,,0.00,WUHU216HW,2013-03-02 22:45:00,
2013-03-02 17:46:00,40.6,22.3,29.95,West,270,0.0,0.0,48,0.00,,,0.00,WUHU216HW,2013-03-02 22:46:00,
2013-03-02 17:47:00,40.2,21.5,29.95,West,270,0.0,0.0,47,0.00,,,0.00,WUHU216HW,2013-03-02 22:47:00,
2013-03-02 17:48:00,40.2,21.5,29.95,West,270,0.0,0.0,47,0.00,,,0.00,WUHU216HW,2013-03-02 22:48:00,
2013-03-02 17:49:00,40.6,21.8,29.95,WNW,293,0.0,0.0,47,0.00,,,0.00,WUHU216HW,2013-03-02 22:49:00,
2013-03-02 17:50:00,45.3,28.2,29.54,NW,315,0.0,0.0,52,0.00,,,0.00,WUHU216HW,2013-03-02 22:50:00,
2013-03-02 17:51:00,40.6,21.8,29.95,West,270,0.0,0.0,48,0.00,,,0.00,WUHU216HW,2013-03-02 22:51:00,
2013-03-02 17:52:00,40.6,21.8,29.95,West,270,0.0,0.0,48,0.00,,,0.00,WUHU216HW,2013-03-02 22:52:00,
2013-03-02 17:53:00,40.6,21.8,29.95,West,270,0.0,0.0,46,0.00,,,0.00,WUHU216HW,2013-03-02 22:53:00,
2013-03-02 17:54:00,40.6,21.8,29.95,West,270,0.0,0.0,46,0.00,,,0.00,WUHU216HW,2013-03-02 22:54:00,
2013-03-02 17:55:00,45.3,28.2,29.54,SE,135,0.0,0.0,51,0.00,,,0.00,WUHU216HW,2013-03-02 22:55:00,
2013-03-02 17:56:00,40.6,21.8,29.95,WNW,293,0.0,0.0,48,0.00,,,0.00,WUHU216HW,2013-03-02 22:56:00,
2013-03-02 17:57:00,40.6,21.8,29.95,WNW,293,0.0,0.0,48,0.00,,,0.00,WUHU216HW,2013-03-02 22:57:00,
2013-03-02 17:58:00,40.6,21.8,29.95,WSW,248,0.0,0.0,47,0.00,,,0.00,WUHU216HW,2013-03-02 22:58:00,
2013-03-02 17:59:00,40.6,21.8,29.95,WSW,248,0.0,0.0,47,0.00,,,0.00,WUHU216HW,2013-03-02 22:59:00,
2013-03-02 18:00:00,45.1,28.5,29.54,SE,135,0.0,0.0,52,0.00,,,0.00,WUHU216HW,2013-03-02 23:00:00,
2013-03-02 18:01:00,40.8,22.5,29.95,WSW,248,0.0,0.0,48,0.00,,,0.00,WUHU216HW,2013-03-02 23:01:00,
2013-03-02 18:02:00,41.1,22.3,29.95,WNW,293,1.7,1.7,47,0.00,,,0.00,WUHU216HW,2013-03-02 23:02:00,
2013-03-02 18:03:00,41.1,22.3,29.96,WNW,293,1.7,1.7,47,0.00,,,0.00,WUHU216HW,2013-03-02 23:03:00,
2013-03-02 18:04:00,41.3,22.5,29.96,West,270,0.0,1.7,47,0.00,,,0.00,WUHU216HW,2013-03-02 23:04:00,
2013-03-02 18:05:00,41.3,22.5,29.96,West,270,0.0,1.7,47,0.00,,,0.00,WUHU216HW,2013-03-02 23:05:00,
2013-03-02 18:06:00,44.9,28.3,29.54,SE,135,0.0,0.0,52,0.00,,,0.00,WUHU216HW,2013-03-02 23:06:00,
2013-03-02 18:07:00,41.5,22.6,29.96,WNW,293,0.0,1.7,47,0.00,,,0.00,WUHU216HW,2013-03-02 23:07:00,
2013-03-02 18:08:00,41.7,23.3,29.96,West,270,0.0,1.7,48,0.00,,,0.00,WUHU216HW,2013-03-02 23:08:00,
2013-03-02 18:09:00,41.7,23.3,29.95,West,270,0.0,1.7,48,0.00,,,0.00,WUHU216HW,2013-03-02 23:09:00,
2013-03-02 18:10:00,42.0,23.2,29.95,WSW,248,0.0,1.7,47,0.00,,,0.00,WUHU216HW,2013-03-02 23:10:00,
2013-03-02 18:11:00,44.9,28.3,29.54,SE,135,0.0,0.0,52,0.00,,,0.00,WUHU216HW,2013-03-02 23:11:00,
2013-03-02 18:12:00,42.0,23.2,29.95,WSW,248,0.0,1.7,47,0.00,,,0.00,WUHU216HW,2013-03-02 23:12:00,
2013-03-02 18:13:00,42.0,23.2,29.94,ESE,113,0.0,1.7,44,0.00,,,0.00,WUHU216HW,2013-03-02 23:13:00,
2013-03-02 18:14:00,42.0,23.2,29.95,ESE,113,0.0,0.0,44,0.00,,,0.00,WUHU216HW,2013-03-02 23:14:00,
2013-03-02 18:15:00,42.0,23.2,29.95,ESE,113,0.0,0.0,46,0.00,,,0.00,WUHU216HW,2013-03-02 23:15:00,
2013-03-02 18:16:00,44.7,28.2,29.55,WSW,248,0.0,0.0,52,0.00,,,0.00,WUHU216HW,2013-03-02 23:16:00,
2013-03-02 18:17:00,42.4,22.4,29.95,ENE,68,0.0,0.0,45,0.00,,,0.00,WUHU216HW,2013-03-02 23:17:00,
2013-03-02 18:18:00,42.4,22.4,29.95,ENE,68,0.0,0.0,45,0.00,,,0.00,WUHU216HW,2013-03-02 23:18:00,
2013-03-02 18:19:00,42.6,22.6,29.95,NW,315,0.0,0.0,45,0.00,,,0.00,WUHU216HW,2013-03-02 23:19:00,
2013-03-02 18:20:00,42.6,22.6,29.95,NW,315,0.0,0.0,45,0.00,,,0.00,WUHU216HW,2013-03-02 23:20:00,
2013-03-02 18:21:00,44.7,28.2,29.55,WSW,248,0.0,0.0,53,0.00,,,0.00,WUHU216HW,2013-03-02 23:21:00,
2013-03-02 18:22:00,42.8,22.8,29.95,West,270,0.0,0.0,45,0.00,,,0.00,WUHU216HW,2013-03-02 23:22:00,
2013-03-02 18:23:00,43.1,23.6,29.95,West,270,0.0,0.0,46,0.00,,,0.00,WUHU216HW,2013-03-02 23:23:00,
2013-03-02 18:24:00,43.1,23.6,29.95,West,270,0.0,0.0,46,0.00,,,0.00,WUHU216HW,2013-03-02 23:24:00,
2013-03-02 18:25:00,43.1,23.6,29.95,West,270,0.0,0.0,46,0.00,,,0.00,WUHU216HW,2013-03-02 23:25:00,
2013-03-02 18:26:00,44.7,28.2,29.55,WSW,248,0.0,0.0,54,0.00,,,0.00,WUHU216HW,2013-03-02 23:26:00,
2013-03-02 18:27:00,43.3,23.3,29.95,West,270,0.0,0.0,45,0.00,,,0.00,WUHU216HW,2013-03-02 23:27:00,
2013-03-02 18:28:00,43.5,22.3,29.95,West,270,0.0,0.0,43,0.00,,,0.00,WUHU216HW,2013-03-02 23:28:00,
2013-03-02 18:29:00,43.5,22.3,29.95,West,270,0.0,0.0,43,0.00,,,0.00,WUHU216HW,2013-03-02 23:29:00,
2013-03-02 18:30:00,43.8,22.7,29.95,WNW,293,3.3,3.3,43,0.00,,,0.00,WUHU216HW,2013-03-02 23:30:00,
2013-03-02 18:31:00,44.6,28.9,29.55,West,270,0.0,0.0,53,0.00,,,0.00,WUHU216HW,2013-03-02 23:31:00,
2013-03-02 18:32:00,43.7,23.6,29.95,West,270,0.0,3.3,45,0.00,,,0.00,WUHU216HW,2013-03-02 23:32:00,
2013-03-02 18:33:00,43.7,23.6,29.95,West,270,0.0,3.3,45,0.00,,,0.00,WUHU216HW,2013-03-02 23:33:00,
2013-03-02 18:34:00,44.2,23.5,29.94,WNW,293,5.3,5.3,44,0.00,,,0.00,WUHU216HW,2013-03-02 23:34:00,
2013-03-02 18:35:00,44.2,23.5,29.94,WNW,293,5.3,5.3,44,0.00,,,0.00,WUHU216HW,2013-03-02 23:35:00,
2013-03-02 18:36:00,44.4,28.3,29.55,West,270,0.0,0.0,54,0.00,,,0.00,WUHU216HW,2013-03-02 23:36:00,
2013-03-02 18:37:00,44.2,23.0,29.94,WNW,293,0.0,5.3,43,0.00,,,0.00,WUHU216HW,2013-03-02 23:37:00,
2013-03-02 18:38:00,44.2,23.0,29.95,WNW,293,0.0,5.3,43,0.00,,,0.00,WUHU216HW,2013-03-02 23:38:00,
2013-03-02 18:39:00,44.2,23.0,29.95,WNW,293,4.2,5.3,43,0.00,,,0.00,WUHU216HW,2013-03-02 23:39:00,
2013-03-02 18:40:00,44.2,23.0,29.95,WNW,293,4.2,5.3,43,0.00,,,0.00,WUHU216HW,2013-03-02 23:40:00,
2013-03-02 18:41:00,44.2,28.1,29.56,WNW,293,0.0,0.0,54,0.00,,,0.00,WUHU216HW,2013-03-02 23:41:00,
2013-03-02 18:46:00,43.8,27.8,29.56,WNW,293,0.0,0.0,54,0.00,,,0.00,WUHU216HW,2013-03-02 23:46:00,
2013-03-02 18:51:00,46.2,24.2,29.95,West,270,0.0,2.9,42,0.00,,,0.00,WUHU216HW,2013-03-02 23:51:00,
2013-03-02 18:52:00,43.8,27.8,29.56,SW,225,0.0,0.0,54,0.00,,,0.00,WUHU216HW,2013-03-02 23:52:00,
2013-03-02 18:53:00,46.2,24.2,29.95,West,270,0.0,2.9,42,0.00,,,0.00,WUHU216HW,2013-03-02 23:53:00,
2013-03-02 18:54:00,46.2,24.2,29.95,WNW,293,0.0,2.9,41,0.00,,,0.00,WUHU216HW,2013-03-02 23:54:00,
2013-03-02 18:55:00,46.2,24.2,29.95,WNW,293,0.0,2.9,41,0.00,,,0.00,WUHU216HW,2013-03-02 23:55:00,
2013-03-02 18:56:00,46.2,24.2,29.95,West,270,0.0,2.9,42,0.00,,,0.00,WUHU216HW,2013-03-02 23:56:00,
2013-03-02 18:57:00,43.7,28.0,29.56,WSW,248,0.0,0.0,55,0.00,,,0.00,WUHU216HW,2013-03-02 23:57:00,
2013-03-02 18:58:00,46.2,24.2,29.95,NE,45,0.0,2.9,43,0.00,,,0.00,WUHU216HW,2013-03-02 23:58:00,
2013-03-02 18:59:00,46.2,24.2,29.95,NE,45,0.0,2.9,43,0.00,,,0.00,WUHU216HW,2013-03-02 23:59:00,
2013-03-02 19:00:00,46.5,24.0,29.95,West,270,0.0,2.9,41,0.00,,,0.00,WUHU216HW,2013-03-03 00:00:00,
2013-03-02 19:01:00,46.5,24.0,29.95,West,270,0.0,0.0,41,0.00,,,0.00,WUHU216HW,2013-03-03 00:01:00,
2013-03-02 19:02:00,43.7,28.0,29.56,WNW,293,2.2,2.2,55,0.00,,,0.00,WUHU216HW,2013-03-03 00:02:00,
2013-03-02 19:03:00,46.5,24.0,29.95,WSW,248,1.5,1.5,39,0.00,,,0.00,WUHU216HW,2013-03-03 00:03:00,
2013-03-02 19:04:00,46.7,23.6,29.95,WSW,248,0.0,1.5,40,0.00,,,0.00,WUHU216HW,2013-03-03 00:04:00,
2013-03-02 19:05:00,46.7,23.6,29.95,WSW,248,0.0,1.5,40,0.00,,,0.00,WUHU216HW,2013-03-03 00:05:00,
2013-03-02 19:06:00,46.7,23.6,29.95,WSW,248,0.0,1.5,40,0.00,,,0.00,WUHU216HW,2013-03-03 00:06:00,
2013-03-02 19:07:00,43.3,28.1,29.57,NNW,338,0.0,2.2,54,0.00,,,0.00,WUHU216HW,2013-03-03 00:07:00,
2013-03-02 19:08:00,47.1,25.0,29.94,NW,315,0.0,1.5,42,0.00,,,0.00,WUHU216HW,2013-03-03 00:08:00,
2013-03-02 19:09:00,47.1,25.0,29.94,NW,315,0.0,1.5,42,0.00,,,0.00,WUHU216HW,2013-03-03 00:09:00,
2013-03-02 19:10:00,47.1,25.0,29.94,NW,315,0.0,1.5,42,0.00,,,0.00,WUHU216HW,2013-03-03 00:10:00,
2013-03-02 19:11:00,47.3,23.5,29.94,NW,315,0.0,1.5,39,0.00,,,0.00,WUHU216HW,2013-03-03 00:11:00,
2013-03-02 19:12:00,43.3,28.1,29.56,NW,315,0.0,2.2,55,0.00,,,0.00,WUHU216HW,2013-03-03 00:12:00,
2013-03-02 19:13:00,47.3,23.5,29.94,NW,315,3.8,3.8,40,0.00,,,0.00,WUHU216HW,2013-03-03 00:13:00,
2013-03-02 19:14:00,47.3,23.5,29.94,NW,315,3.8,3.8,40,0.00,,,0.00,WUHU216HW,2013-03-03 00:14:00,
2013-03-02 19:15:00,47.6,23.8,29.94,WSW,248,5.5,5.5,39,0.00,,,0.00,WUHU216HW,2013-03-03 00:15:00,
2013-03-02 19:16:00,47.8,23.9,29.94,South,180,0.0,5.5,39,0.00,,,0.00,WUHU216HW,2013-03-03 00:16:00,
2013-03-02 19:17:00,42.9,27.8,29.56,NW,315,0.0,0.0,55,0.00,,,0.00,WUHU216HW,2013-03-03 00:17:00,
2013-03-02 19:18:00,48.0,24.1,29.94,WNW,293,0.0,5.5,39,0.00,,,0.00,WUHU216HW,2013-03-03 00:18:00,
2013-03-02 19:19:00,48.0,24.1,29.94,WNW,293,0.0,5.5,39,0.00,,,0.00,WUHU216HW,2013-03-03 00:19:00,
2013-03-02 19:20:00,48.0,24.1,29.94,WNW,293,0.0,5.5,39,0.00,,,0.00,WUHU216HW,2013-03-03 00:20:00,
2013-03-02 19:21:00,48.0,24.1,29.94,NW,315,0.0,5.5,40,0.00,,,0.00,WUHU216HW,2013-03-03 00:21:00,
2013-03-02 19:22:00,42.8,27.6,29.56,WNW,293,0.0,0.0,55,0.00,,,0.00,WUHU216HW,2013-03-03 00:22:00,
2013-03-02 19:23:00,48.3,25.1,29.94,ENE,68,0.0,5.5,40,0.00,,,0.00,WUHU216HW,2013-03-03 00:23:00,
2013-03-02 19:24:00,48.5,24.6,29.94,NNW,338,0.0,5.5,39,0.00,,,0.00,WUHU216HW,2013-03-03 00:24:00,
2013-03-02 19:25:00,48.5,24.6,29.94,NNW,338,0.0,5.5,39,0.00,,,0.00,WUHU216HW,2013-03-03 00:25:00,
2013-03-02 19:26:00,48.5,24.6,29.94,NNW,338,0.0,0.0,39,0.00,,,0.00,WUHU216HW,2013-03-03 00:26:00,
2013-03-02 19:27:00,42.8,27.6,29.56,WNW,293,0.0,0.0,56,0.00,,,0.00,WUHU216HW,2013-03-03 00:27:00,
2013-03-02 19:28:00,48.7,24.7,29.93,NW,315,0.0,0.0,39,0.00,,,0.00,WUHU216HW,2013-03-03 00:28:00,
2013-03-02 19:29:00,48.7,24.7,29.93,NW,315,0.0,0.0,39,0.00,,,0.00,WUHU216HW,2013-03-03 00:29:00,
2013-03-02 19:30:00,48.7,24.7,29.94,NW,315,0.0,0.0,39,0.00,,,0.00,WUHU216HW,2013-03-03 00:30:00,
2013-03-02 19:31:00,48.7,24.7,29.93,NW,315,0.0,0.0,40,0.00,,,0.00,WUHU216HW,2013-03-03 00:31:00,
2013-03-02 19:32:00,48.7,24.7,29.93,NW,315,0.0,0.0,40,0.00,,,0.00,WUHU216HW,2013-03-03 00:32:00,
2013-03-02 19:33:00,42.6,27.5,29.56,West,270,0.0,0.0,55,0.00,,,0.00,WUHU216HW,2013-03-03 00:33:00,
2013-03-02 19:34:00,48.9,24.2,29.93,WNW,293,0.0,0.0,38,0.00,,,0.00,WUHU216HW,2013-03-03 00:34:00,
2013-03-02 19:35:00,49.4,26.1,29.93,WNW,293,0.0,0.0,40,0.00,,,0.00,WUHU216HW,2013-03-03 00:35:00,
2013-03-02 19:36:00,49.4,26.1,29.93,WNW,293,0.0,0.0,40,0.00,,,0.00,WUHU216HW,2013-03-03 00:36:00,
2013-03-02 19:37:00,49.6,23.5,29.93,WSW,248,0.0,0.0,36,0.00,,,0.00,WUHU216HW,2013-03-03 00:37:00,
2013-03-02 19:38:00,42.4,27.3,29.57,WNW,293,0.0,0.0,56,0.00,,,0.00,WUHU216HW,2013-03-03 00:38:00,
2013-03-02 19:39:00,49.6,23.5,29.93,WSW,248,0.0,0.0,36,0.00,,,0.00,WUHU216HW,2013-03-03 00:39:00,
2013-03-02 19:40:00,49.6,23.5,29.93,WNW,293,1.7,1.7,38,0.00,,,0.00,WUHU216HW,2013-03-03 00:40:00,
2013-03-02 19:41:00,49.6,23.5,29.93,WNW,293,1.7,1.7,38,0.00,,,0.00,WUHU216HW,2013-03-03 00:41:00,
2013-03-02 19:42:00,49.8,24.3,29.93,WNW,293,0.0,1.7,37,0.00,,,0.00,WUHU216HW,2013-03-03 00:42:00,
2013-03-02 19:43:00,42.2,27.1,29.57,NNE,23,0.0,0.0,55,0.00,,,0.00,WUHU216HW,2013-03-03 00:43:00,
2013-03-02 19:44:00,50.1,25.3,29.93,WNW,293,0.0,1.7,38,0.00,,,0.00,WUHU216HW,2013-03-03 00:44:00,
2013-03-02 19:45:00,50.1,25.3,29.93,WNW,293,0.0,1.7,38,0.00,,,0.00,WUHU216HW,2013-03-03 00:45:00,
2013-03-02 19:46:00,50.5,25.7,29.93,NW,315,0.0,1.7,38,0.00,,,0.00,WUHU216HW,2013-03-03 00:46:00,
2013-03-02 19:47:00,50.5,25.7,29.93,NW,315,0.0,1.7,38,0.00,,,0.00,WUHU216HW,2013-03-03 00:47:00,
2013-03-02 19:48:00,41.9,27.2,29.57,NNW,338,0.0,0.0,56,0.00,,,0.00,WUHU216HW,2013-03-03 00:48:00,
2013-03-02 19:49:00,50.9,26.0,29.93,WNW,293,0.0,1.7,38,0.00,,,0.00,WUHU216HW,2013-03-03 00:49:00,
2013-03-02 19:50:00,50.9,26.0,29.92,WNW,293,0.0,1.7,38,0.00,,,0.00,WUHU216HW,2013-03-03 00:50:00,
2013-03-02 19:51:00,50.7,25.1,29.93,WNW,293,0.0,1.7,37,0.00,,,0.00,WUHU216HW,2013-03-03 00:51:00,
2013-03-02 19:52:00,50.7,25.1,29.93,WNW,293,0.0,0.0,37,0.00,,,0.00,WUHU216HW,2013-03-03 00:52:00,
2013-03-02 19:53:00,41.7,27.0,29.58,WNW,293,0.0,0.0,56,0.00,,,0.00,WUHU216HW,2013-03-03 00:53:00,
2013-03-02 19:54:00,50.7,25.1,29.93,WNW,293,0.0,0.0,37,0.00,,,0.00,WUHU216HW,2013-03-03 00:54:00,
2013-03-02 19:55:00,50.9,25.3,29.92,WNW,293,0.0,0.0,37,0.00,,,0.00,WUHU216HW,2013-03-03 00:55:00,
2013-03-02 19:56:00,50.9,25.3,29.92,WNW,293,0.0,0.0,37,0.00,,,0.00,WUHU216HW,2013-03-03 00:56:00,
2013-03-02 19:57:00,50.9,25.3,29.92,West,270,4.0,4.0,37,0.00,,,0.00,WUHU216HW,2013-03-03 00:57:00,
2013-03-02 19:58:00,41.5,27.3,29.58,WNW,293,0.0,0.0,57,0.00,,,0.00,WUHU216HW,2013-03-03 00:58:00,
2013-03-02 20:01:00,50.7,24.5,29.92,WNW,293,0.0,4.0,36,0.00,,,0.00,WUHU216HW,2013-03-03 01:01:00,
2013-03-02 20:03:00,41.3,27.2,29.58,ENE,68,0.0,0.0,57,0.00,,,0.00,WUHU216HW,2013-03-03 01:03:00,
2013-03-02 20:04:00,51.6,26.6,29.92,WNW,293,0.0,4.0,38,0.00,,,0.00,WUHU216HW,2013-03-03 01:04:00,
2013-03-02 20:05:00,51.6,26.6,29.92,WNW,293,0.0,4.0,38,0.00,,,0.00,WUHU216HW,2013-03-03 01:05:00,
2013-03-02 20:07:00,51.9,26.3,29.92,West,270,0.0,4.0,37,0.00,,,0.00,WUHU216HW,2013-03-03 01:07:00,
2013-03-02 20:08:00,41.3,27.2,29.58,ENE,68,0.0,0.0,57,0.00,,,0.00,WUHU216HW,2013-03-03 01:08:00,
2013-03-02 20:09:00,51.6,26.0,29.92,WNW,293,0.0,0.0,37,0.00,,,0.00,WUHU216HW,2013-03-03 01:09:00,
2013-03-02 20:10:00,51.9,27.7,29.91,WNW,293,0.0,0.0,39,0.00,,,0.00,WUHU216HW,2013-03-03 01:10:00,
2013-03-02 20:11:00,51.9,27.7,29.91,WNW,293,0.0,0.0,39,0.00,,,0.00,WUHU216HW,2013-03-03 01:11:00,
2013-03-02 20:12:00,52.5,27.5,29.91,West,270,0.0,0.0,38,0.00,,,0.00,WUHU216HW,2013-03-03 01:12:00,
2013-03-02 20:13:00,41.1,27.0,29.58,ENE,68,0.0,0.0,57,0.00,,,0.00,WUHU216HW,2013-03-03 01:13:00,
2013-03-02 20:15:00,52.8,28.5,29.91,WNW,293,0.0,0.0,39,0.00,,,0.00,WUHU216HW,2013-03-03 01:15:00,
2013-03-02 20:16:00,52.7,27.6,29.91,WNW,293,0.0,0.0,38,0.00,,,0.00,WUHU216HW,2013-03-03 01:16:00,
2013-03-02 20:17:00,52.7,27.6,29.91,WNW,293,0.0,0.0,38,0.00,,,0.00,WUHU216HW,2013-03-03 01:17:00,
2013-03-02 20:18:00,41.0,26.4,29.59,WNW,293,0.0,0.0,56,0.00,,,0.00,WUHU216HW,2013-03-03 01:18:00,
2013-03-02 20:19:00,53.0,27.9,29.91,NNW,338,0.0,0.0,38,0.00,,,0.00,WUHU216HW,2013-03-03 01:19:00,
2013-03-02 20:20:00,53.0,27.9,29.91,NNW,338,0.0,0.0,38,0.00,,,0.00,WUHU216HW,2013-03-03 01:20:00,
2013-03-02 20:21:00,53.2,25.4,29.91,WNW,293,0.0,0.0,34,0.00,,,0.00,WUHU216HW,2013-03-03 01:21:00,
2013-03-02 20:22:00,53.2,25.4,29.91,WNW,293,0.0,0.0,34,0.00,,,0.00,WUHU216HW,2013-03-03 01:22:00,
2013-03-02 20:23:00,40.6,26.0,29.59,NW,315,0.0,0.0,56,0.00,,,0.00,WUHU216HW,2013-03-03 01:23:00,
2013-03-02 20:24:00,52.8,26.4,29.91,WNW,293,0.0,0.0,36,0.00,,,0.00,WUHU216HW,2013-03-03 01:24:00,
2013-03-02 20:25:00,52.8,26.4,29.91,WNW,293,4.9,4.9,36,0.00,,,0.00,WUHU216HW,2013-03-03 01:25:00,
2013-03-02 20:26:00,52.8,26.4,29.91,WNW,293,4.9,4.9,36,0.00,,,0.00,WUHU216HW,2013-03-03 01:26:00,
2013-03-02 20:27:00,52.5,25.4,29.91,West,270,0.0,4.9,35,0.00,,,0.00,WUHU216HW,2013-03-03 01:27:00,
2013-03-02 20:28:00,40.2,25.2,29.59,NW,315,0.0,0.0,55,0.00,,,0.00,WUHU216HW,2013-03-03 01:28:00,
2013-03-02 20:30:00,52.1,25.8,29.91,NW,315,0.0,4.9,36,0.00,,,0.00,WUHU216HW,2013-03-03 01:30:00,
2013-03-02 20:31:00,52.5,27.5,29.91,WNW,293,0.0,4.9,38,0.00,,,0.00,WUHU216HW,2013-03-03 01:31:00,
2013-03-02 20:32:00,52.5,27.5,29.91,WNW,293,0.0,4.9,38,0.00,,,0.00,WUHU216HW,2013-03-03 01:32:00,
2013-03-02 20:33:00,40.2,25.2,29.59,NW,315,0.0,0.0,55,0.00,,,0.00,WUHU216HW,2013-03-03 01:33:00,
2013-03-02 20:34:00,52.8,25.7,29.91,West,270,0.0,4.9,35,0.00,,,0.00,WUHU216HW,2013-03-03 01:34:00,
2013-03-02 20:35:00,52.7,25.6,29.91,NW,315,3.3,4.9,35,0.00,,,0.00,WUHU216HW,2013-03-03 01:35:00,
2013-03-02 20:36:00,52.7,25.6,29.91,NW,315,3.3,4.9,35,0.00,,,0.00,WUHU216HW,2013-03-03 01:36:00,
2013-03-02 20:37:00,52.7,25.6,29.91,NW,315,3.3,3.3,35,0.00,,,0.00,WUHU216HW,2013-03-03 01:37:00,
2013-03-02 20:38:00,40.2,25.2,29.60,NW,315,0.0,0.0,56,0.00,,,0.00,WUHU216HW,2013-03-03 01:38:00,
2013-03-02 20:39:00,52.3,25.9,29.90,NW,315,1.7,3.3,36,0.00,,,0.00,WUHU216HW,2013-03-03 01:39:00,
2013-03-02 20:40:00,52.1,25.1,29.90,West,270,0.0,3.3,35,0.00,,,0.00,WUHU216HW,2013-03-03 01:40:00,
2013-03-02 20:41:00,52.1,25.1,29.90,West,270,0.0,3.3,35,0.00,,,0.00,WUHU216HW,2013-03-03 01:41:00,
2013-03-02 20:42:00,52.5,25.4,29.90,West,270,0.0,3.3,35,0.00,,,0.00,WUHU216HW,2013-03-03 01:42:00,
2013-03-02 20:43:00,40.1,24.6,29.60,WNW,293,0.6,5.1,54,0.00,,,0.00,WUHU216HW,2013-03-03 01:43:00,
2013-03-02 20:44:00,53.2,26.0,29.90,WNW,293,3.1,3.3,35,0.00,,,0.00,WUHU216HW,2013-03-03 01:44:00,
2013-03-02 20:45:00,53.2,26.0,29.90,WNW,293,3.1,3.3,35,0.00,,,0.00,WUHU216HW,2013-03-03 01:45:00,
2013-03-02 20:46:00,53.2,26.0,29.90,WNW,293,3.1,3.3,35,0.00,,,0.00,WUHU216HW,2013-03-03 01:46:00,
2013-03-02 20:47:00,53.4,25.5,29.90,WNW,293,0.0,3.3,34,0.00,,,0.00,WUHU216HW,2013-03-03 01:47:00,
2013-03-02 20:48:00,39.7,24.7,29.60,WNW,293,0.0,5.1,55,0.00,,,0.00,WUHU216HW,2013-03-03 01:48:00,
2013-03-02 20:49:00,53.6,25.7,29.90,NW,315,0.0,3.1,34,0.00,,,0.00,WUHU216HW,2013-03-03 01:49:00,
2013-03-02 20:50:00,53.6,25.7,29.90,NW,315,0.0,3.1,34,0.00,,,0.00,WUHU216HW,2013-03-03 01:50:00,
2013-03-02 20:51:00,53.4,27.6,29.90,WNW,293,0.0,3.1,37,0.00,,,0.00,WUHU216HW,2013-03-03 01:51:00,
2013-03-02 20:52:00,53.4,27.6,29.90,WNW,293,0.0,3.1,37,0.00,,,0.00,WUHU216HW,2013-03-03 01:52:00,
2013-03-02 20:53:00,39.5,24.1,29.60,WNW,293,0.0,0.6,54,0.00,,,0.00,WUHU216HW,2013-03-03 01:53:00,
2013-03-02 20:54:00,53.7,25.2,29.90,WNW,293,0.0,3.1,33,0.00,,,0.00,WUHU216HW,2013-03-03 01:54:00,
2013-03-02 20:55:00,53.7,25.2,29.90,West,270,0.0,3.1,34,0.00,,,0.00,WUHU216HW,2013-03-03 01:55:00,
2013-03-02 20:56:00,53.7,25.2,29.90,West,270,0.0,3.1,34,0.00,,,0.00,WUHU216HW,2013-03-03 01:56:00,
2013-03-02 20:57:00,53.7,25.2,29.90,West,270,0.0,0.0,34,0.00,,,0.00,WUHU216HW,2013-03-03 01:57:00,
2013-03-02 20:58:00,39.3,23.9,29.61,WNW,293,0.0,0.0,54,0.00,,,0.00,WUHU216HW,2013-03-03 01:58:00,
2013-03-02 20:59:00,53.7,25.2,29.90,West,270,0.0,0.0,34,0.00,,,0.00,WUHU216HW,2013-03-03 01:59:00,
2013-03-02 21:00:00,53.7,25.2,29.90,West,270,0.0,0.0,34,0.00,,,0.00,WUHU216HW,2013-03-03 02:00:00,
2013-03-02 21:01:00,53.7,25.2,29.90,West,270,0.0,0.0,34,0.00,,,0.00,WUHU216HW,2013-03-03 02:01:00,
2013-03-02 21:02:00,53.9,26.7,29.90,WNW,293,0.0,0.0,35,0.00,,,0.00,WUHU216HW,2013-03-03 02:02:00,
2013-03-02 21:03:00,39.2,23.8,29.61,West,270,0.0,0.0,54,0.00,,,0.00,WUHU216HW,2013-03-03 02:03:00,
2013-03-02 21:04:00,54.3,27.7,29.90,WNW,293,0.0,0.0,36,0.00,,,0.00,WUHU216HW,2013-03-03 02:04:00,
2013-03-02 21:05:00,54.3,27.7,29.90,WNW,293,0.0,0.0,36,0.00,,,0.00,WUHU216HW,2013-03-03 02:05:00,
2013-03-02 21:06:00,54.5,29.2,29.90,WNW,293,0.0,0.0,38,0.00,,,0.00,WUHU216HW,2013-03-03 02:06:00,
2013-03-02 21:07:00,54.5,29.2,29.90,WNW,293,0.0,0.0,38,0.00,,,0.00,WUHU216HW,2013-03-03 02:07:00,
2013-03-02 21:08:00,39.0,23.6,29.61,West,270,0.0,0.0,54,0.00,,,0.00,WUHU216HW,2013-03-03 02:08:00,
2013-03-02 21:09:00,54.3,28.4,29.90,West,270,0.0,0.0,37,0.00,,,0.00,WUHU216HW,2013-03-03 02:09:00,
2013-03-02 21:10:00,54.1,27.5,29.90,WSW,248,0.0,0.0,36,0.00,,,0.00,WUHU216HW,2013-03-03 02:10:00,
2013-03-02 21:11:00,54.1,27.5,29.90,WSW,248,0.0,0.0,36,0.00,,,0.00,WUHU216HW,2013-03-03 02:11:00,
2013-03-02 21:12:00,54.1,27.5,29.90,ENE,68,0.0,0.0,36,0.00,,,0.00,WUHU216HW,2013-03-03 02:12:00,
2013-03-02 21:13:00,38.8,23.5,29.61,WNW,293,0.0,0.0,54,0.00,,,0.00,WUHU216HW,2013-03-03 02:13:00,
2013-03-02 21:14:00,54.5,25.8,29.90,West,270,0.0,0.0,33,0.00,,,0.00,WUHU216HW,2013-03-03 02:14:00,
2013-03-02 21:15:00,54.5,25.8,29.90,West,270,0.0,0.0,33,0.00,,,0.00,WUHU216HW,2013-03-03 02:15:00,
2013-03-02 21:16:00,54.5,25.8,29.90,WNW,293,0.0,0.0,38,0.00,,,0.00,WUHU216HW,2013-03-03 02:16:00,
2013-03-02 21:17:00,54.5,25.8,29.90,WNW,293,0.0,0.0,38,0.00,,,0.00,WUHU216HW,2013-03-03 02:17:00,
2013-03-02 21:18:00,38.8,23.5,29.61,WNW,293,0.0,0.0,54,0.00,,,0.00,WUHU216HW,2013-03-03 02:18:00,
2013-03-02 21:21:00,55.0,26.2,29.89,WNW,293,0.0,0.0,33,0.00,,,0.00,WUHU216HW,2013-03-03 02:21:00,
2013-03-02 21:22:00,55.0,26.2,29.89,WNW,293,0.0,0.0,33,0.00,,,0.00,WUHU216HW,2013-03-03 02:22:00,
2013-03-02 21:23:00,38.4,23.1,29.61,WNW,293,0.0,0.0,55,0.00,,,0.00,WUHU216HW,2013-03-03 02:23:00,
2013-03-02 21:24:00,55.0,26.2,29.89,West,270,0.0,0.0,34,0.00,,,0.00,WUHU216HW,2013-03-03 02:24:00,
2013-03-02 21:25:00,54.5,27.1,29.89,SW,225,0.0,0.0,35,0.00,,,0.00,WUHU216HW,2013-03-03 02:25:00,
2013-03-02 21:26:00,54.5,27.1,29.89,SW,225,0.0,0.0,35,0.00,,,0.00,WUHU216HW,2013-03-03 02:26:00,
2013-03-02 21:27:00,54.3,27.0,29.88,WSW,248,0.0,0.0,35,0.00,,,0.00,WUHU216HW,2013-03-03 02:27:00,
2013-03-02 21:28:00,38.3,23.4,29.61,WNW,293,0.0,0.0,55,0.00,,,0.00,WUHU216HW,2013-03-03 02:28:00,
2013-03-02 21:29:00,54.6,28.0,29.88,WSW,248,3.1,3.1,36,0.00,,,0.00,WUHU216HW,2013-03-03 02:29:00,
2013-03-02 21:30:00,54.6,28.0,29.88,WSW,248,3.1,3.1,36,0.00,,,0.00,WUHU216HW,2013-03-03 02:30:00,
2013-03-02 21:31:00,54.3,26.3,29.89,West,270,6.7,6.7,34,0.00,,,0.00,WUHU216HW,2013-03-03 02:31:00,
2013-03-02 21:32:00,54.3,26.3,29.89,West,270,1.7,6.7,34,0.00,,,0.00,WUHU216HW,2013-03-03 02:32:00,
2013-03-02 21:33:00,38.1,23.2,29.61,WNW,293,0.0,0.0,54,0.00,,,0.00,WUHU216HW,2013-03-03 02:33:00,
2013-03-02 21:34:00,54.3,25.6,29.89,WSW,248,4.2,6.7,33,0.00,,,0.00,WUHU216HW,2013-03-03 02:34:00,
2013-03-02 21:35:00,54.3,25.6,29.89,WSW,248,4.2,6.7,33,0.00,,,0.00,WUHU216HW,2013-03-03 02:35:00,
2013-03-02 21:36:00,54.3,25.6,29.89,WSW,248,4.2,6.7,33,0.00,,,0.00,WUHU216HW,2013-03-03 02:36:00,
2013-03-02 21:37:00,53.7,25.8,29.89,West,270,0.0,6.7,34,0.00,,,0.00,WUHU216HW,2013-03-03 02:37:00,
2013-03-02 21:38:00,53.7,25.8,29.88,West,270,0.0,6.7,34,0.00,,,0.00,WUHU216HW,2013-03-03 02:38:00,
2013-03-02 21:39:00,37.9,23.1,29.61,WNW,293,0.0,0.0,55,0.00,,,0.00,WUHU216HW,2013-03-03 02:39:00,
2013-03-02 21:40:00,53.7,25.8,29.88,WSW,248,0.0,6.7,33,0.00,,,0.00,WUHU216HW,2013-03-03 02:40:00,
2013-03-02 21:41:00,53.4,24.8,29.88,West,270,0.0,6.7,33,0.00,,,0.00,WUHU216HW,2013-03-03 02:41:00,
2013-03-02 21:42:00,53.4,24.8,29.88,West,270,0.0,4.2,33,0.00,,,0.00,WUHU216HW,2013-03-03 02:42:00,
2013-03-02 21:43:00,53.2,25.4,29.88,West,270,0.0,4.2,34,0.00,,,0.00,WUHU216HW,2013-03-03 02:43:00,
2013-03-02 21:44:00,37.7,23.3,29.62,North,0,0.0,0.0,56,0.00,,,0.00,WUHU216HW,2013-03-03 02:44:00,
2013-03-02 21:45:00,53.4,28.3,29.88,West,270,0.0,4.2,38,0.00,,,0.00,WUHU216HW,2013-03-03 02:45:00,
2013-03-02 21:46:00,53.4,28.3,29.88,West,270,0.0,4.2,38,0.00,,,0.00,WUHU216HW,2013-03-03 02:46:00,
2013-03-02 21:47:00,53.9,28.7,29.88,West,270,0.0,0.0,38,0.00,,,0.00,WUHU216HW,2013-03-03 02:47:00,
2013-03-02 21:48:00,53.9,28.7,29.88,West,270,0.0,0.0,38,0.00,,,0.00,WUHU216HW,2013-03-03 02:48:00,
2013-03-02 21:49:00,37.5,23.2,29.62,NNW,338,0.0,0.0,56,0.00,,,0.00,WUHU216HW,2013-03-03 02:49:00,
2013-03-02 21:50:00,54.3,29.1,29.87,WNW,293,0.0,0.0,38,0.00,,,0.00,WUHU216HW,2013-03-03 02:50:00,
2013-03-02 21:51:00,54.3,29.1,29.87,WNW,293,0.0,0.0,38,0.00,,,0.00,WUHU216HW,2013-03-03 02:51:00,
2013-03-02 21:52:00,54.5,26.4,29.87,West,270,0.0,0.0,34,0.00,,,0.00,WUHU216HW,2013-03-03 02:52:00,
2013-03-02 21:53:00,54.5,26.4,29.87,West,270,0.0,0.0,34,0.00,,,0.00,WUHU216HW,2013-03-03 02:53:00,
2013-03-02 21:54:00,37.2,22.9,29.62,NW,315,0.0,0.0,56,0.00,,,0.00,WUHU216HW,2013-03-03 02:54:00,
2013-03-02 21:55:00,54.1,27.5,29.87,West,270,2.9,2.9,36,0.00,,,0.00,WUHU216HW,2013-03-03 02:55:00,
2013-03-02 21:56:00,53.9,26.7,29.87,WNW,293,4.0,4.0,35,0.00,,,0.00,WUHU216HW,2013-03-03 02:56:00,
2013-03-02 21:57:00,53.9,26.7,29.87,WNW,293,4.0,4.0,35,0.00,,,0.00,WUHU216HW,2013-03-03 02:57:00,
2013-03-02 21:58:00,53.6,26.4,29.87,WSW,248,0.0,4.0,35,0.00,,,0.00,WUHU216HW,2013-03-03 02:58:00,
2013-03-02 21:59:00,37.0,22.7,29.62,WNW,293,0.0,0.0,57,0.00,,,0.00,WUHU216HW,2013-03-03 02:59:00,
2013-03-02 22:00:00,53.4,26.2,29.87,NW,315,3.1,4.0,35,0.00,,,0.00,WUHU216HW,2013-03-03 03:00:00,
2013-03-02 22:01:00,53.4,26.2,29.87,NW,315,3.1,4.0,35,0.00,,,0.00,WUHU216HW,2013-03-03 03:01:00,
2013-03-02 22:02:00,53.4,26.2,29.87,WSW,248,0.0,4.0,34,0.00,,,0.00,WUHU216HW,2013-03-03 03:02:00,
2013-03-02 22:03:00,53.4,26.2,29.87,WSW,248,0.0,4.0,34,0.00,,,0.00,WUHU216HW,2013-03-03 03:03:00,
2013-03-02 22:04:00,36.6,21.9,29.62,NW,315,0.0,0.0,55,0.00,,,0.00,WUHU216HW,2013-03-03 03:04:00,
2013-03-02 22:05:00,53.6,29.1,29.86,WSW,248,0.0,4.0,39,0.00,,,0.00,WUHU216HW,2013-03-03 03:05:00,
2013-03-02 22:06:00,53.9,28.1,29.86,SSW,203,6.0,6.0,37,0.00,,,0.00,WUHU216HW,2013-03-03 03:06:00,
2013-03-02 22:08:00,54.1,26.1,29.86,SSW,203,0.8,6.0,34,0.00,,,0.00,WUHU216HW,2013-03-03 03:08:00,
2013-03-02 22:09:00,54.1,26.1,29.86,WSW,248,0.0,6.0,37,0.00,,,0.00,WUHU216HW,2013-03-03 03:09:00,
2013-03-02 22:10:00,36.6,21.9,29.62,West,270,0.0,0.0,56,0.00,,,0.00,WUHU216HW,2013-03-03 03:10:00,
2013-03-02 22:11:00,53.9,26.7,29.86,NE,45,0.0,6.0,35,0.00,,,0.00,WUHU216HW,2013-03-03 03:11:00,
2013-03-02 22:12:00,53.9,26.7,29.86,NE,45,0.0,6.0,35,0.00,,,0.00,WUHU216HW,2013-03-03 03:12:00,
2013-03-02 22:13:00,53.9,26.7,29.87,NE,45,0.0,6.0,35,0.00,,,0.00,WUHU216HW,2013-03-03 03:13:00,
2013-03-02 22:14:00,53.9,26.7,29.86,NW,315,0.0,6.0,34,0.00,,,0.00,WUHU216HW,2013-03-03 03:14:00,
2013-03-02 22:15:00,36.5,22.2,29.63,West,270,0.0,0.0,56,0.00,,,0.00,WUHU216HW,2013-03-03 03:15:00,
2013-03-02 22:16:00,54.1,28.2,29.86,WNW,293,0.0,6.0,37,0.00,,,0.00,WUHU216HW,2013-03-03 03:16:00,
2013-03-02 22:17:00,54.1,28.2,29.86,WNW,293,0.0,0.8,37,0.00,,,0.00,WUHU216HW,2013-03-03 03:17:00,
2013-03-02 22:18:00,54.1,28.2,29.86,NW,315,0.0,0.8,35,0.00,,,0.00,WUHU216HW,2013-03-03 03:18:00,
2013-03-02 22:19:00,54.1,28.2,29.85,NW,315,0.0,0.0,35,0.00,,,0.00,WUHU216HW,2013-03-03 03:19:00,
2013-03-02 22:20:00,36.1,22.3,29.63,West,270,0.0,0.0,57,0.00,,,0.00,WUHU216HW,2013-03-03 03:20:00,
2013-03-02 22:21:00,54.1,28.2,29.85,West,270,0.0,0.0,35,0.00,,,0.00,WUHU216HW,2013-03-03 03:21:00,
2013-03-02 22:22:00,54.3,26.3,29.85,SW,225,2.6,2.6,34,0.00,,,0.00,WUHU216HW,2013-03-03 03:22:00,
2013-03-02 22:23:00,54.3,26.3,29.85,SW,225,2.6,2.6,34,0.00,,,0.00,WUHU216HW,2013-03-03 03:23:00,
2013-03-02 22:24:00,54.1,26.1,29.85,WSW,248,0.0,2.6,34,0.00,,,0.00,WUHU216HW,2013-03-03 03:24:00,
2013-03-02 22:25:00,36.1,22.3,29.62,West,270,0.0,0.0,57,0.00,,,0.00,WUHU216HW,2013-03-03 03:25:00,
2013-03-02 22:26:00,53.7,25.8,29.85,West,270,0.0,2.6,34,0.00,,,0.00,WUHU216HW,2013-03-03 03:26:00,
2013-03-02 22:27:00,53.7,25.8,29.85,West,270,0.0,2.6,34,0.00,,,0.00,WUHU216HW,2013-03-03 03:27:00,
2013-03-02 22:28:00,53.7,25.8,29.85,West,270,0.0,2.6,34,0.00,,,0.00,WUHU216HW,2013-03-03 03:28:00,
2013-03-02 22:29:00,53.6,25.7,29.85,West,270,0.0,2.6,34,0.00,,,0.00,WUHU216HW,2013-03-03 03:29:00,
2013-03-02 22:30:00,36.1,22.3,29.63,West,270,0.0,0.0,57,0.00,,,0.00,WUHU216HW,2013-03-03 03:30:00,
2013-03-02 22:31:00,53.9,26.7,29.85,WNW,293,0.0,2.6,35,0.00,,,0.00,WUHU216HW,2013-03-03 03:31:00,
2013-03-02 22:32:00,53.9,26.7,29.85,West,270,0.0,2.6,34,0.00,,,0.00,WUHU216HW,2013-03-03 03:32:00,
2013-03-02 22:33:00,53.9,26.7,29.85,West,270,0.0,2.6,34,0.00,,,0.00,WUHU216HW,2013-03-03 03:33:00,
2013-03-02 22:34:00,53.9,26.7,29.85,West,270,0.0,0.0,34,0.00,,,0.00,WUHU216HW,2013-03-03 03:34:00,
2013-03-02 22:35:00,35.9,22.2,29.62,West,270,0.0,0.0,57,0.00,,,0.00,WUHU216HW,2013-03-03 03:35:00,
2013-03-02 22:36:00,54.1,26.1,29.85,West,270,0.0,0.0,34,0.00,,,0.00,WUHU216HW,2013-03-03 03:36:00,
2013-03-02 22:37:00,54.5,26.4,29.85,WSW,248,0.0,0.0,34,0.00,,,0.00,WUHU216HW,2013-03-03 03:37:00,
2013-03-02 22:38:00,54.5,26.4,29.85,WSW,248,0.0,0.0,34,0.00,,,0.00,WUHU216HW,2013-03-03 03:38:00,
2013-03-02 22:39:00,54.5,27.8,29.85,West,270,0.6,4.2,36,0.00,,,0.00,WUHU216HW,2013-03-03 03:39:00,
2013-03-02 22:40:00,35.7,22.4,29.62,West,270,0.0,0.0,58,0.00,,,0.00,WUHU216HW,2013-03-03 03:40:00,
2013-03-02 22:41:00,54.5,27.8,29.85,West,270,0.6,4.2,36,0.00,,,0.00,WUHU216HW,2013-03-03 03:41:00,
2013-03-02 22:42:00,54.6,28.0,29.85,ENE,68,0.0,4.2,36,0.00,,,0.00,WUHU216HW,2013-03-03 03:42:00,
2013-03-02 22:43:00,54.6,28.0,29.85,ENE,68,0.0,4.2,36,0.00,,,0.00,WUHU216HW,2013-03-03 03:43:00,
2013-03-02 22:44:00,54.6,28.0,29.85,SSW,203,0.0,4.2,34,0.00,,,0.00,WUHU216HW,2013-03-03 03:44:00,
2013-03-02 22:45:00,35.6,21.8,29.62,West,270,0.0,0.0,57,0.00,,,0.00,WUHU216HW,2013-03-03 03:45:00,
2013-03-02 22:46:00,55.0,28.3,29.85,West,270,0.0,4.2,36,0.00,,,0.00,WUHU216HW,2013-03-03 03:46:00,
2013-03-02 22:47:00,55.0,28.3,29.85,West,270,0.0,4.2,36,0.00,,,0.00,WUHU216HW,2013-03-03 03:47:00,
2013-03-02 22:48:00,55.0,28.3,29.85,West,270,0.0,4.2,36,0.00,,,0.00,WUHU216HW,2013-03-03 03:48:00,
2013-03-02 22:49:00,55.2,26.3,29.85,West,270,0.0,4.2,33,0.00,,,0.00,WUHU216HW,2013-03-03 03:49:00,
2013-03-02 22:50:00,35.4,21.7,29.62,West,270,0.0,0.0,58,0.00,,,0.00,WUHU216HW,2013-03-03 03:50:00,
2013-03-02 22:51:00,55.0,25.5,29.84,WSW,248,0.0,0.6,32,0.00,,,0.00,WUHU216HW,2013-03-03 03:51:00,
2013-03-02 22:52:00,55.0,25.5,29.84,WSW,248,0.0,0.0,32,0.00,,,0.00,WUHU216HW,2013-03-03 03:52:00,
2013-03-02 22:53:00,55.2,27.0,29.84,West,270,2.9,2.9,34,0.00,,,0.00,WUHU216HW,2013-03-03 03:53:00,
2013-03-02 22:54:00,55.2,27.0,29.84,West,270,2.9,2.9,34,0.00,,,0.00,WUHU216HW,2013-03-03 03:54:00,
2013-03-02 22:55:00,35.2,21.9,29.62,West,270,0.0,0.0,58,0.00,,,0.00,WUHU216HW,2013-03-03 03:55:00,
2013-03-02 22:56:00,55.5,26.0,29.84,West,270,0.0,2.9,32,0.00,,,0.00,WUHU216HW,2013-03-03 03:56:00,
2013-03-02 22:57:00,55.7,26.8,29.84,WSW,248,3.3,3.3,33,0.00,,,0.00,WUHU216HW,2013-03-03 03:57:00,
2013-03-02 22:58:00,55.7,26.8,29.84,WSW,248,3.3,3.3,33,0.00,,,0.00,WUHU216HW,2013-03-03 03:58:00,
2013-03-02 22:59:00,55.7,26.8,29.85,West,270,0.0,3.3,35,0.00,,,0.00,WUHU216HW,2013-03-03 03:59:00,
2013-03-02 23:00:00,35.2,21.9,29.62,West,270,0.0,0.0,58,0.00,,,0.00,WUHU216HW,2013-03-03 04:00:00,
2013-03-02 23:01:00,55.7,26.8,29.85,West,270,0.0,3.3,35,0.00,,,0.00,WUHU216HW,2013-03-03 04:01:00,
2013-03-02 23:02:00,55.9,27.0,29.84,ENE,68,0.0,3.3,33,0.00,,,0.00,WUHU216HW,2013-03-03 04:02:00,
2013-03-02 23:03:00,56.1,26.4,29.84,WNW,293,0.0,3.3,32,0.00,,,0.00,WUHU216HW,2013-03-03 04:03:00,
2013-03-02 23:04:00,56.1,26.4,29.84,WNW,293,0.0,3.3,32,0.00,,,0.00,WUHU216HW,2013-03-03 04:04:00,
2013-03-02 23:05:00,35.0,22.2,29.62,West,270,0.0,0.0,59,0.00,,,0.00,WUHU216HW,2013-03-03 04:05:00,
2013-03-02 23:06:00,56.1,26.4,29.84,WSW,248,0.0,3.3,31,0.00,,,0.00,WUHU216HW,2013-03-03 04:06:00,
2013-03-02 23:07:00,56.1,26.4,29.84,WSW,248,0.0,3.3,31,0.00,,,0.00,WUHU216HW,2013-03-03 04:07:00,
2013-03-02 23:08:00,56.1,26.4,29.84,WSW,248,0.0,3.3,32,0.00,,,0.00,WUHU216HW,2013-03-03 04:08:00,
2013-03-02 23:09:00,56.1,26.4,29.84,WSW,248,0.0,0.0,32,0.00,,,0.00,WUHU216HW,2013-03-03 04:09:00,
2013-03-02 23:10:00,34.8,22.0,29.62,West,270,0.0,0.0,59,0.00,,,0.00,WUHU216HW,2013-03-03 04:10:00,
2013-03-02 23:11:00,56.1,26.4,29.84,West,270,0.0,0.0,33,0.00,,,0.00,WUHU216HW,2013-03-03 04:11:00,
2013-03-02 23:12:00,56.8,27.1,29.84,West,270,0.0,0.0,32,0.00,,,0.00,WUHU216HW,2013-03-03 04:12:00,
2013-03-02 23:13:00,56.8,27.1,29.84,West,270,0.0,0.0,32,0.00,,,0.00,WUHU216HW,2013-03-03 04:13:00,
2013-03-02 23:15:00,34.7,22.2,29.63,West,270,0.0,0.0,60,0.00,,,0.00,WUHU216HW,2013-03-03 04:15:00,
2013-03-02 23:16:00,56.8,27.1,29.84,NE,45,0.0,0.0,35,0.00,,,0.00,WUHU216HW,2013-03-03 04:16:00,
2013-03-02 23:17:00,56.8,27.1,29.84,WNW,293,0.0,0.0,31,0.00,,,0.00,WUHU216HW,2013-03-03 04:17:00,
2013-03-02 23:18:00,56.8,27.1,29.84,WNW,293,0.0,0.0,31,0.00,,,0.00,WUHU216HW,2013-03-03 04:18:00,
2013-03-02 23:19:00,56.8,27.1,29.84,WNW,293,0.0,0.0,32,0.00,,,0.00,WUHU216HW,2013-03-03 04:19:00,
2013-03-02 23:20:00,34.5,22.1,29.63,West,270,0.0,0.0,60,0.00,,,0.00,WUHU216HW,2013-03-03 04:20:00,
2013-03-02 23:21:00,57.0,26.6,29.84,SSW,203,0.0,0.0,31,0.00,,,0.00,WUHU216HW,2013-03-03 04:21:00,
2013-03-02 23:22:00,57.0,26.6,29.83,SW,225,0.0,0.0,32,0.00,,,0.00,WUHU216HW,2013-03-03 04:22:00,
2013-03-02 23:23:00,57.0,26.6,29.83,SW,225,0.0,0.0,32,0.00,,,0.00,WUHU216HW,2013-03-03 04:23:00,
2013-03-02 23:24:00,57.0,26.6,29.83,SW,225,0.0,0.0,32,0.00,,,0.00,WUHU216HW,2013-03-03 04:24:00,
2013-03-02 23:25:00,34.5,22.1,29.63,West,270,0.0,0.0,60,0.00,,,0.00,WUHU216HW,2013-03-03 04:25:00,
2013-03-02 23:26:00,56.8,25.7,29.83,SSW,203,2.6,5.1,30,0.00,,,0.00,WUHU216HW,2013-03-03 04:26:00,
2013-03-02 23:27:00,56.8,25.7,29.83,SSW,203,2.6,5.1,30,0.00,,,0.00,WUHU216HW,2013-03-03 04:27:00,
2013-03-02 23:28:00,56.8,25.7,29.83,West,270,0.0,5.1,30,0.00,,,0.00,WUHU216HW,2013-03-03 04:28:00,
2013-03-02 23:29:00,56.8,25.7,29.83,West,270,0.0,5.1,30,0.00,,,0.00,WUHU216HW,2013-03-03 04:29:00,
2013-03-02 23:30:00,34.3,21.9,29.63,West,270,0.0,0.0,60,0.00,,,0.00,WUHU216HW,2013-03-03 04:30:00,
2013-03-02 23:31:00,56.8,25.7,29.83,West,270,0.0,5.1,31,0.00,,,0.00,WUHU216HW,2013-03-03 04:31:00,
2013-03-02 23:32:00,56.8,25.7,29.83,West,270,0.0,5.1,31,0.00,,,0.00,WUHU216HW,2013-03-03 04:32:00,
2013-03-02 23:33:00,56.8,25.7,29.83,ESE,113,0.0,5.1,30,0.00,,,0.00,WUHU216HW,2013-03-03 04:33:00,
2013-03-02 23:34:00,56.8,25.7,29.83,ESE,113,0.0,5.1,30,0.00,,,0.00,WUHU216HW,2013-03-03 04:34:00,
2013-03-02 23:35:00,57.0,25.9,29.84,WSW,248,6.7,6.7,30,0.00,,,0.00,WUHU216HW,2013-03-03 04:35:00,
2013-03-02 23:36:00,34.1,22.1,29.63,West,270,0.0,0.0,61,0.00,,,0.00,WUHU216HW,2013-03-03 04:36:00,
2013-03-02 23:39:00,56.6,26.9,29.83,West,270,0.0,6.7,32,0.00,,,0.00,WUHU216HW,2013-03-03 04:39:00,
2013-03-02 23:40:00,56.8,27.8,29.83,SSW,203,0.0,6.7,33,0.00,,,0.00,WUHU216HW,2013-03-03 04:40:00,
2013-03-02 23:41:00,33.9,21.9,29.63,West,270,0.0,0.0,61,0.00,,,0.00,WUHU216HW,2013-03-03 04:41:00,
2013-03-02 23:42:00,56.8,27.8,29.84,WSW,248,0.0,6.7,30,0.00,,,0.00,WUHU216HW,2013-03-03 04:42:00,
2013-03-02 23:43:00,56.8,27.8,29.83,WSW,248,0.0,6.7,30,0.00,,,0.00,WUHU216HW,2013-03-03 04:43:00,
2013-03-02 23:44:00,56.8,27.8,29.83,WSW,248,0.0,6.7,30,0.00,,,0.00,WUHU216HW,2013-03-03 04:44:00,
2013-03-02 23:45:00,56.8,27.8,29.84,NE,45,0.0,6.7,32,0.00,,,0.00,WUHU216HW,2013-03-03 04:45:00,
2013-03-02 23:46:00,33.8,22.1,29.63,West,270,0.0,0.0,62,0.00,,,0.00,WUHU216HW,2013-03-03 04:46:00,
2013-03-02 23:47:00,56.8,27.8,29.83,WNW,293,0.0,0.0,32,0.00,,,0.00,WUHU216HW,2013-03-03 04:47:00,
2013-03-02 23:48:00,56.8,27.8,29.83,WNW,293,0.0,0.0,32,0.00,,,0.00,WUHU216HW,2013-03-03 04:48:00,
2013-03-02 23:49:00,57.0,27.3,29.83,West,270,0.0,0.0,32,0.00,,,0.00,WUHU216HW,2013-03-03 04:49:00,
2013-03-02 23:50:00,57.0,27.3,29.83,West,270,0.0,0.0,32,0.00,,,0.00,WUHU216HW,2013-03-03 04:50:00,
2013-03-02 23:51:00,33.6,22.3,29.62,West,270,0.0,0.0,63,0.00,,,0.00,WUHU216HW,2013-03-03 04:51:00,
2013-03-02 23:52:00,57.0,27.3,29.83,West,270,0.0,0.0,33,0.00,,,0.00,WUHU216HW,2013-03-03 04:52:00,
2013-03-02 23:54:00,57.2,28.1,29.83,East,90,0.0,0.0,33,0.00,,,0.00,WUHU216HW,2013-03-03 04:54:00,
2013-03-02 23:55:00,57.0,27.3,29.83,SSE,158,0.0,0.0,32,0.00,,,0.00,WUHU216HW,2013-03-03 04:55:00,
2013-03-02 23:56:00,33.6,22.3,29.62,West,270,0.0,0.0,63,0.00,,,0.00,WUHU216HW,2013-03-03 04:56:00,
2013-03-02 23:57:00,57.0,27.3,29.83,WSW,248,0.0,0.0,31,0.00,,,0.00,WUHU216HW,2013-03-03 04:57:00,
2013-03-02 23:58:00,57.0,27.3,29.82,WSW,248,0.0,0.0,31,0.00,,,0.00,WUHU216HW,2013-03-03 04:58:00,
2013-03-02 23:59:00,57.0,27.3,29.82,WSW,248,0.0,0.0,31,0.00,,,0.00,WUHU216HW,2013-03-03 04:59:00,